Wetterdaten: Sonntag, 19.02.2017
Datum Zeit Temp. A. Feuchte A. Luftdruck Regen Wind Richtung Richtung Sonnenschein ET UV Solar Taupunkt Windchill Windben Empfang
19.02.2017 00:00 1,3 C 96 % 1026,3 hPa 0,0 l/m 0,1 km/h (0 Bft) SW 219 0 min 0,000 mm 0,0 UV-I 0 W/m 0,7 C 1,3 C 1,6 km/h (1 Bft) 98,00 %
19.02.2017 00:02 1,3 C 96 % 1026,2 hPa 0,0 l/m 1,6 km/h (1 Bft) SW 219 0 min 0,000 mm 0,0 UV-I 0 W/m 0,7 C 1,3 C 1,6 km/h (1 Bft) 97,56 %
19.02.2017 00:04 1,3 C 96 % 1026,3 hPa 0,0 l/m 2,5 km/h (1 Bft) SW 219 0 min 0,000 mm 0,0 UV-I 0 W/m 0,7 C 1,3 C 3,2 km/h (1 Bft) 97,44 %
19.02.2017 00:06 1,3 C 97 % 1026,2 hPa 0,0 l/m 2,7 km/h (1 Bft) SW 219 0 min 0,000 mm 0,0 UV-I 0 W/m 0,9 C 1,3 C 3,2 km/h (1 Bft) 96,00 %
19.02.2017 00:08 1,3 C 97 % 1026,3 hPa 0,0 l/m 1,9 km/h (1 Bft) SW 219 0 min 0,000 mm 0,0 UV-I 0 W/m 0,9 C 1,3 C 3,2 km/h (1 Bft) 95,12 %
19.02.2017 00:10 1,3 C 97 % 1026,3 hPa 0,0 l/m 0,0 km/h (0 Bft) SW 219 0 min 0,000 mm 0,0 UV-I 0 W/m 0,9 C 1,3 C 1,6 km/h (1 Bft) 96,23 %
19.02.2017 00:12 1,3 C 97 % 1026,3 hPa 0,0 l/m 0,1 km/h (0 Bft) SW 219 0 min 0,000 mm 0,0 UV-I 0 W/m 0,9 C 1,3 C 1,6 km/h (1 Bft) 97,73 %
19.02.2017 00:14 1,2 C 97 % 1026,3 hPa 0,0 l/m 0,2 km/h (0 Bft) SW 219 0 min 0,000 mm 0,0 UV-I 0 W/m 0,8 C 1,2 C 1,6 km/h (1 Bft) 98,21 %
19.02.2017 00:16 1,2 C 97 % 1026,3 hPa 0,0 l/m 1,2 km/h (1 Bft) SW 219 0 min 0,000 mm 0,0 UV-I 0 W/m 0,8 C 1,2 C 1,6 km/h (1 Bft) 95,12 %
19.02.2017 00:18 1,2 C 96 % 1026,3 hPa 0,0 l/m 2,8 km/h (1 Bft) SW 219 0 min 0,000 mm 0,0 UV-I 0 W/m 0,6 C 1,2 C 4,8 km/h (1 Bft) 98,21 %
19.02.2017 00:20 1,2 C 97 % 1026,2 hPa 0,0 l/m 1,9 km/h (1 Bft) SW 219 0 min 0,000 mm 0,0 UV-I 0 W/m 0,8 C 1,2 C 3,2 km/h (1 Bft) 97,37 %
19.02.2017 00:22 1,2 C 96 % 1026,2 hPa 0,0 l/m 2,0 km/h (1 Bft) SW 219 0 min 0,000 mm 0,0 UV-I 0 W/m 0,6 C 1,2 C 3,2 km/h (1 Bft) 100,00 %
19.02.2017 00:24 1,1 C 96 % 1026,2 hPa 0,0 l/m 2,5 km/h (1 Bft) SW 219 0 min 0,000 mm 0,0 UV-I 0 W/m 0,5 C 1,1 C 3,2 km/h (1 Bft) 94,00 %
19.02.2017 00:26 1,1 C 97 % 1026,1 hPa 0,0 l/m 2,6 km/h (1 Bft) SW 219 0 min 0,000 mm 0,0 UV-I 0 W/m 0,7 C 1,1 C 4,8 km/h (1 Bft) 98,00 %
19.02.2017 00:28 1,1 C 97 % 1026,1 hPa 0,0 l/m 2,4 km/h (1 Bft) SW 219 0 min 0,000 mm 0,0 UV-I 0 W/m 0,7 C 1,1 C 3,2 km/h (1 Bft) 95,74 %
19.02.2017 00:30 1,1 C 97 % 1026,2 hPa 0,0 l/m 1,2 km/h (1 Bft) SW 219 0 min 0,000 mm 0,0 UV-I 0 W/m 0,7 C 1,1 C 3,2 km/h (1 Bft) 97,37 %
19.02.2017 00:32 1,1 C 97 % 1026,1 hPa 0,0 l/m 2,8 km/h (1 Bft) SW 219 0 min 0,000 mm 0,0 UV-I 0 W/m 0,7 C 1,1 C 3,2 km/h (1 Bft) 96,00 %
19.02.2017 00:34 1,1 C 97 % 1026,1 hPa 0,0 l/m 0,7 km/h (0 Bft) SW 219 0 min 0,000 mm 0,0 UV-I 0 W/m 0,7 C 1,1 C 3,2 km/h (1 Bft) 100,00 %
19.02.2017 00:36 1,0 C 97 % 1026,1 hPa 0,0 l/m 1,7 km/h (1 Bft) SW 219 0 min 0,000 mm 0,0 UV-I 0 W/m 0,6 C 1,0 C 3,2 km/h (1 Bft) 100,00 %
19.02.2017 00:38 0,9 C 97 % 1026,1 hPa 0,0 l/m 1,1 km/h (1 Bft) SW 219 0 min 0,000 mm 0,0 UV-I 0 W/m 0,5 C 0,9 C 3,2 km/h (1 Bft) 100,00 %
19.02.2017 00:40 0,9 C 97 % 1026,1 hPa 0,0 l/m 0,7 km/h (0 Bft) SW 219 0 min 0,000 mm 0,0 UV-I 0 W/m 0,5 C 0,9 C 3,2 km/h (1 Bft) 96,23 %
19.02.2017 00:42 0,9 C 97 % 1026,1 hPa 0,0 l/m 1,5 km/h (1 Bft) SW 219 0 min 0,000 mm 0,0 UV-I 0 W/m 0,5 C 0,9 C 3,2 km/h (1 Bft) 100,00 %
19.02.2017 00:44 1,0 C 97 % 1026,0 hPa 0,0 l/m 0,8 km/h (0 Bft) SW 219 0 min 0,000 mm 0,0 UV-I 0 W/m 0,6 C 1,0 C 1,6 km/h (1 Bft) 97,44 %
19.02.2017 00:46 1,0 C 97 % 1026,0 hPa 0,0 l/m 0,7 km/h (0 Bft) SW 219 0 min 0,000 mm 0,0 UV-I 0 W/m 0,6 C 1,0 C 1,6 km/h (1 Bft) 95,92 %
19.02.2017 00:48 1,1 C 97 % 1025,9 hPa 0,0 l/m 2,0 km/h (1 Bft) SW 219 0 min 0,000 mm 0,0 UV-I 0 W/m 0,7 C 1,1 C 3,2 km/h (1 Bft) 94,44 %
19.02.2017 00:50 1,0 C 97 % 1025,9 hPa 0,0 l/m 1,7 km/h (1 Bft) SW 219 0 min 0,000 mm 0,0 UV-I 0 W/m 0,6 C 1,0 C 3,2 km/h (1 Bft) 96,77 %
19.02.2017 00:52 1,1 C 97 % 1025,9 hPa 0,0 l/m 1,0 km/h (0 Bft) SW 219 0 min 0,000 mm 0,0 UV-I 0 W/m 0,7 C 1,1 C 3,2 km/h (1 Bft) 97,37 %
19.02.2017 00:54 1,2 C 97 % 1025,9 hPa 0,0 l/m 1,1 km/h (1 Bft) SW 219 0 min 0,000 mm 0,0 UV-I 0 W/m 0,8 C 1,2 C 3,2 km/h (1 Bft) 100,00 %
19.02.2017 00:56 1,3 C 97 % 1025,9 hPa 0,0 l/m 1,0 km/h (0 Bft) SW 219 0 min 0,000 mm 0,0 UV-I 0 W/m 0,9 C 1,3 C 1,6 km/h (1 Bft) 92,68 %
19.02.2017 00:58 1,4 C 97 % 1025,9 hPa 0,0 l/m 1,8 km/h (1 Bft) SW 219 0 min 0,000 mm 0,0 UV-I 0 W/m 1,0 C 1,4 C 3,2 km/h (1 Bft) 98,11 %
19.02.2017 01:00 1,4 C 97 % 1025,9 hPa 0,0 l/m 3,0 km/h (1 Bft) SW 219 0 min 0,000 mm 0,0 UV-I 0 W/m 1,0 C 1,4 C 4,8 km/h (1 Bft) 97,37 %
19.02.2017 01:02 1,4 C 97 % 1025,8 hPa 0,0 l/m 1,9 km/h (1 Bft) SW 219 0 min 0,000 mm 0,0 UV-I 0 W/m 1,0 C 1,4 C 3,2 km/h (1 Bft) 96,00 %
19.02.2017 01:04 1,4 C 97 % 1025,8 hPa 0,0 l/m 1,3 km/h (1 Bft) SW 219 0 min 0,000 mm 0,0 UV-I 0 W/m 1,0 C 1,4 C 3,2 km/h (1 Bft) 92,00 %
19.02.2017 01:06 1,4 C 97 % 1025,8 hPa 0,0 l/m 0,5 km/h (0 Bft) SW 219 0 min 0,000 mm 0,0 UV-I 0 W/m 1,0 C 1,4 C 1,6 km/h (1 Bft) 95,12 %
19.02.2017 01:08 1,3 C 97 % 1025,8 hPa 0,0 l/m 1,3 km/h (1 Bft) SW 219 0 min 0,000 mm 0,0 UV-I 0 W/m 0,9 C 1,3 C 3,2 km/h (1 Bft) 97,37 %
19.02.2017 01:10 1,3 C 97 % 1025,8 hPa 0,0 l/m 1,0 km/h (0 Bft) SW 219 0 min 0,000 mm 0,0 UV-I 0 W/m 0,9 C 1,3 C 3,2 km/h (1 Bft) 94,92 %
19.02.2017 01:12 1,2 C 97 % 1025,8 hPa 0,0 l/m 0,5 km/h (0 Bft) SW 219 0 min 0,000 mm 0,0 UV-I 0 W/m 0,8 C 1,2 C 1,6 km/h (1 Bft) 98,11 %
19.02.2017 01:14 1,2 C 97 % 1025,8 hPa 0,0 l/m 0,6 km/h (0 Bft) SW 219 0 min 0,000 mm 0,0 UV-I 0 W/m 0,8 C 1,2 C 3,2 km/h (1 Bft) 95,12 %
19.02.2017 01:16 1,2 C 97 % 1025,8 hPa 0,0 l/m 0,9 km/h (0 Bft) SW 219 0 min 0,000 mm 0,0 UV-I 0 W/m 0,8 C 1,2 C 3,2 km/h (1 Bft) 93,62 %
19.02.2017 01:18 1,2 C 97 % 1025,7 hPa 0,0 l/m 1,3 km/h (1 Bft) SW 219 0 min 0,000 mm 0,0 UV-I 0 W/m 0,8 C 1,2 C 3,2 km/h (1 Bft) 91,49 %
19.02.2017 01:20 1,2 C 97 % 1025,7 hPa 0,0 l/m 1,7 km/h (1 Bft) SW 219 0 min 0,000 mm 0,0 UV-I 0 W/m 0,8 C 1,2 C 3,2 km/h (1 Bft) 95,74 %
19.02.2017 01:22 1,2 C 97 % 1025,7 hPa 0,0 l/m 2,7 km/h (1 Bft) SW 219 0 min 0,000 mm 0,0 UV-I 0 W/m 0,8 C 1,2 C 4,8 km/h (1 Bft) 93,62 %
19.02.2017 01:24 1,3 C 97 % 1025,7 hPa 0,0 l/m 1,3 km/h (1 Bft) SW 219 0 min 0,000 mm 0,0 UV-I 0 W/m 0,9 C 1,3 C 3,2 km/h (1 Bft) 93,62 %
19.02.2017 01:26 1,3 C 97 % 1025,7 hPa 0,0 l/m 0,0 km/h (0 Bft) SW 219 0 min 0,000 mm 0,0 UV-I 0 W/m 0,9 C 1,3 C 0,0 km/h (0 Bft) 95,74 %
19.02.2017 01:28 1,2 C 97 % 1025,7 hPa 0,0 l/m 0,0 km/h (0 Bft) SW 219 0 min 0,000 mm 0,0 UV-I 0 W/m 0,8 C 1,2 C 0,0 km/h (0 Bft) 96,00 %
19.02.2017 01:30 1,1 C 96 % 1025,7 hPa 0,0 l/m 1,0 km/h (0 Bft) SW 219 0 min 0,000 mm 0,0 UV-I 0 W/m 0,5 C 1,1 C 3,2 km/h (1 Bft) 94,87 %
19.02.2017 01:32 1,1 C 97 % 1025,7 hPa 0,0 l/m 2,7 km/h (1 Bft) SW 219 0 min 0,000 mm 0,0 UV-I 0 W/m 0,7 C 1,1 C 3,2 km/h (1 Bft) 97,87 %
19.02.2017 01:34 1,1 C 97 % 1025,7 hPa 0,0 l/m 2,5 km/h (1 Bft) SW 219 0 min 0,000 mm 0,0 UV-I 0 W/m 0,7 C 1,1 C 4,8 km/h (1 Bft) 97,87 %
19.02.2017 01:36 1,1 C 97 % 1025,7 hPa 0,0 l/m 2,5 km/h (1 Bft) SW 219 0 min 0,000 mm 0,0 UV-I 0 W/m 0,7 C 1,1 C 3,2 km/h (1 Bft) 96,00 %
19.02.2017 01:38 1,1 C 97 % 1025,6 hPa 0,0 l/m 0,7 km/h (0 Bft) SW 219 0 min 0,000 mm 0,0 UV-I 0 W/m 0,7 C 1,1 C 3,2 km/h (1 Bft) 95,74 %
19.02.2017 01:40 1,2 C 97 % 1025,5 hPa 0,0 l/m 0,0 km/h (0 Bft) SW 219 0 min 0,000 mm 0,0 UV-I 0 W/m 0,8 C 1,2 C 0,0 km/h (0 Bft) 98,00 %
19.02.2017 01:42 1,1 C 97 % 1025,5 hPa 0,0 l/m 0,0 km/h (0 Bft) SW 219 0 min 0,000 mm 0,0 UV-I 0 W/m 0,7 C 1,1 C 0,0 km/h (0 Bft) 97,37 %
19.02.2017 01:44 0,9 C 97 % 1025,5 hPa 0,0 l/m 0,4 km/h (0 Bft) SW 219 0 min 0,000 mm 0,0 UV-I 0 W/m 0,5 C 0,9 C 1,6 km/h (1 Bft) 98,00 %
19.02.2017 01:46 0,9 C 97 % 1025,5 hPa 0,0 l/m 2,6 km/h (1 Bft) SW 219 0 min 0,000 mm 0,0 UV-I 0 W/m 0,5 C 0,9 C 3,2 km/h (1 Bft) 100,00 %
19.02.2017 01:48 1,0 C 97 % 1025,5 hPa 0,0 l/m 1,9 km/h (1 Bft) SW 219 0 min 0,000 mm 0,0 UV-I 0 W/m 0,6 C 1,0 C 3,2 km/h (1 Bft) 98,00 %
19.02.2017 01:50 1,1 C 97 % 1025,5 hPa 0,0 l/m 1,4 km/h (1 Bft) SW 219 0 min 0,000 mm 0,0 UV-I 0 W/m 0,7 C 1,1 C 3,2 km/h (1 Bft) 98,00 %
19.02.2017 01:52 0,9 C 97 % 1025,5 hPa 0,0 l/m 2,9 km/h (1 Bft) SW 219 0 min 0,000 mm 0,0 UV-I 0 W/m 0,5 C 0,9 C 4,8 km/h (1 Bft) 97,87 %
19.02.2017 01:54 0,8 C 96 % 1025,5 hPa 0,0 l/m 2,1 km/h (1 Bft) SW 219 0 min 0,000 mm 0,0 UV-I 0 W/m 0,2 C 0,8 C 3,2 km/h (1 Bft) 98,00 %
19.02.2017 01:56 0,6 C 96 % 1025,5 hPa 0,0 l/m 1,6 km/h (1 Bft) SW 219 0 min 0,000 mm 0,0 UV-I 0 W/m 0,0 C 0,6 C 3,2 km/h (1 Bft) 97,87 %
19.02.2017 01:58 0,5 C 97 % 1025,5 hPa 0,0 l/m 0,5 km/h (0 Bft) SW 219 0 min 0,000 mm 0,0 UV-I 0 W/m 0,1 C 0,5 C 1,6 km/h (1 Bft) 97,37 %
19.02.2017 02:00 0,4 C 97 % 1025,5 hPa 0,0 l/m 1,1 km/h (1 Bft) SW 219 0 min 0,000 mm 0,0 UV-I 0 W/m -0,0 C 0,4 C 3,2 km/h (1 Bft) 96,00 %
19.02.2017 02:02 0,4 C 97 % 1025,5 hPa 0,0 l/m 1,2 km/h (1 Bft) SW 219 0 min 0,000 mm 0,0 UV-I 0 W/m -0,0 C 0,4 C 3,2 km/h (1 Bft) 97,87 %
19.02.2017 02:04 0,5 C 97 % 1025,4 hPa 0,0 l/m 2,3 km/h (1 Bft) SW 219 0 min 0,000 mm 0,0 UV-I 0 W/m 0,1 C 0,5 C 3,2 km/h (1 Bft) 95,74 %
19.02.2017 02:06 0,5 C 97 % 1025,5 hPa 0,0 l/m 2,8 km/h (1 Bft) SW 219 0 min 0,000 mm 0,0 UV-I 0 W/m 0,1 C 0,5 C 3,2 km/h (1 Bft) 94,00 %
19.02.2017 02:08 0,6 C 97 % 1025,5 hPa 0,0 l/m 4,1 km/h (1 Bft) SW 219 0 min 0,000 mm 0,0 UV-I 0 W/m 0,2 C 0,6 C 4,8 km/h (1 Bft) 97,62 %
19.02.2017 02:10 0,6 C 97 % 1025,4 hPa 0,0 l/m 3,5 km/h (1 Bft) SW 219 0 min 0,000 mm 0,0 UV-I 0 W/m 0,2 C 0,6 C 4,8 km/h (1 Bft) 96,00 %
19.02.2017 02:12 0,6 C 97 % 1025,5 hPa 0,0 l/m 2,4 km/h (1 Bft) SW 219 0 min 0,000 mm 0,0 UV-I 0 W/m 0,2 C 0,6 C 3,2 km/h (1 Bft) 97,37 %
19.02.2017 02:14 0,6 C 97 % 1025,5 hPa 0,0 l/m 2,2 km/h (1 Bft) SW 219 0 min 0,000 mm 0,0 UV-I 0 W/m 0,2 C 0,6 C 3,2 km/h (1 Bft) 98,21 %
19.02.2017 02:16 0,5 C 97 % 1025,5 hPa 0,0 l/m 2,1 km/h (1 Bft) SW 219 0 min 0,000 mm 0,0 UV-I 0 W/m 0,1 C 0,5 C 3,2 km/h (1 Bft) 95,74 %
19.02.2017 02:18 0,4 C 97 % 1025,5 hPa 0,0 l/m 2,6 km/h (1 Bft) SW 219 0 min 0,000 mm 0,0 UV-I 0 W/m -0,0 C 0,4 C 4,8 km/h (1 Bft) 94,74 %
19.02.2017 02:20 0,4 C 97 % 1025,5 hPa 0,0 l/m 3,6 km/h (1 Bft) SW 219 0 min 0,000 mm 0,0 UV-I 0 W/m -0,0 C 0,4 C 6,4 km/h (2 Bft) 98,00 %
19.02.2017 02:22 0,3 C 97 % 1025,5 hPa 0,0 l/m 2,0 km/h (1 Bft) SW 219 0 min 0,000 mm 0,0 UV-I 0 W/m -0,1 C 0,3 C 3,2 km/h (1 Bft) 96,00 %
19.02.2017 02:24 0,3 C 97 % 1025,5 hPa 0,0 l/m 1,0 km/h (0 Bft) SW 219 0 min 0,000 mm 0,0 UV-I 0 W/m -0,1 C 0,3 C 3,2 km/h (1 Bft) 93,62 %
19.02.2017 02:26 0,2 C 97 % 1025,5 hPa 0,0 l/m 0,4 km/h (0 Bft) SW 219 0 min 0,000 mm 0,0 UV-I 0 W/m -0,2 C 0,2 C 1,6 km/h (1 Bft) 96,23 %
19.02.2017 02:28 0,2 C 97 % 1025,5 hPa 0,0 l/m 1,7 km/h (1 Bft) SW 219 0 min 0,000 mm 0,0 UV-I 0 W/m -0,2 C 0,2 C 3,2 km/h (1 Bft) 97,14 %
19.02.2017 02:30 0,2 C 97 % 1025,6 hPa 0,0 l/m 3,4 km/h (1 Bft) SW 219 0 min 0,000 mm 0,0 UV-I 0 W/m -0,2 C 0,2 C 4,8 km/h (1 Bft) 98,11 %
19.02.2017 02:32 0,3 C 97 % 1025,5 hPa 0,0 l/m 2,7 km/h (1 Bft) SW 219 0 min 0,000 mm 0,0 UV-I 0 W/m -0,1 C 0,3 C 4,8 km/h (1 Bft) 96,00 %
19.02.2017 02:34 0,3 C 97 % 1025,5 hPa 0,0 l/m 1,0 km/h (0 Bft) SW 219 0 min 0,000 mm 0,0 UV-I 0 W/m -0,1 C 0,3 C 3,2 km/h (1 Bft) 97,37 %
19.02.2017 02:36 0,4 C 97 % 1025,5 hPa 0,0 l/m 0,0 km/h (0 Bft) SW 219 0 min 0,000 mm 0,0 UV-I 0 W/m -0,0 C 0,4 C 1,6 km/h (1 Bft) 96,23 %
19.02.2017 02:38 0,4 C 97 % 1025,5 hPa 0,0 l/m 0,2 km/h (0 Bft) SW 219 0 min 0,000 mm 0,0 UV-I 0 W/m -0,0 C 0,4 C 1,6 km/h (1 Bft) 100,00 %
19.02.2017 02:40 0,4 C 97 % 1025,5 hPa 0,0 l/m 0,0 km/h (0 Bft) SW 219 0 min 0,000 mm 0,0 UV-I 0 W/m -0,0 C 0,4 C 0,0 km/h (0 Bft) 96,77 %
19.02.2017 02:42 0,5 C 97 % 1025,5 hPa 0,0 l/m 1,0 km/h (0 Bft) SW 219 0 min 0,000 mm 0,0 UV-I 0 W/m 0,1 C 0,5 C 3,2 km/h (1 Bft) 97,87 %
19.02.2017 02:44 0,6 C 97 % 1025,5 hPa 0,0 l/m 0,0 km/h (0 Bft) SW 219 0 min 0,000 mm 0,0 UV-I 0 W/m 0,2 C 0,6 C 0,0 km/h (0 Bft) 97,87 %
19.02.2017 02:46 0,6 C 97 % 1025,5 hPa 0,0 l/m 0,0 km/h (0 Bft) SW 219 0 min 0,000 mm 0,0 UV-I 0 W/m 0,2 C 0,6 C 0,0 km/h (0 Bft) 100,00 %
19.02.2017 02:48 0,6 C 97 % 1025,5 hPa 0,0 l/m 0,0 km/h (0 Bft) SW 219 0 min 0,000 mm 0,0 UV-I 0 W/m 0,2 C 0,6 C 0,0 km/h (0 Bft) 97,87 %
19.02.2017 02:50 0,6 C 97 % 1025,5 hPa 0,0 l/m 0,5 km/h (0 Bft) SW 219 0 min 0,000 mm 0,0 UV-I 0 W/m 0,2 C 0,6 C 1,6 km/h (1 Bft) 98,11 %
19.02.2017 02:52 0,7 C 97 % 1025,5 hPa 0,0 l/m 1,5 km/h (1 Bft) SW 219 0 min 0,000 mm 0,0 UV-I 0 W/m 0,3 C 0,7 C 3,2 km/h (1 Bft) 100,00 %
19.02.2017 02:54 0,7 C 97 % 1025,5 hPa 0,0 l/m 1,6 km/h (1 Bft) SW 219 0 min 0,000 mm 0,0 UV-I 0 W/m 0,3 C 0,7 C 3,2 km/h (1 Bft) 100,00 %
19.02.2017 02:56 0,7 C 97 % 1025,5 hPa 0,0 l/m 0,3 km/h (0 Bft) SW 219 0 min 0,000 mm 0,0 UV-I 0 W/m 0,3 C 0,7 C 1,6 km/h (1 Bft) 98,00 %
19.02.2017 02:58 0,7 C 97 % 1025,5 hPa 0,0 l/m 0,0 km/h (0 Bft) SW 219 0 min 0,000 mm 0,0 UV-I 0 W/m 0,3 C 0,7 C 0,0 km/h (0 Bft) 100,00 %
19.02.2017 03:00 0,7 C 97 % 1025,5 hPa 0,0 l/m 0,0 km/h (0 Bft) SW 219 0 min 0,000 mm 0,0 UV-I 0 W/m 0,3 C 0,7 C 0,0 km/h (0 Bft) 98,00 %
19.02.2017 03:02 0,6 C 97 % 1025,5 hPa 0,0 l/m 0,0 km/h (0 Bft) SW 219 0 min 0,000 mm 0,0 UV-I 0 W/m 0,2 C 0,6 C 0,0 km/h (0 Bft) 98,04 %
19.02.2017 03:04 0,6 C 97 % 1025,5 hPa 0,0 l/m 0,0 km/h (0 Bft) SW 219 0 min 0,000 mm 0,0 UV-I 0 W/m 0,2 C 0,6 C 0,0 km/h (0 Bft) 98,00 %
19.02.2017 03:06 0,6 C 97 % 1025,5 hPa 0,0 l/m 0,3 km/h (0 Bft) SW 219 0 min 0,000 mm 0,0 UV-I 0 W/m 0,2 C 0,6 C 1,6 km/h (1 Bft) 93,62 %
19.02.2017 03:08 0,7 C 97 % 1025,5 hPa 0,0 l/m 1,6 km/h (1 Bft) SW 219 0 min 0,000 mm 0,0 UV-I 0 W/m 0,3 C 0,7 C 1,6 km/h (1 Bft) 94,74 %
19.02.2017 03:10 0,8 C 97 % 1025,5 hPa 0,0 l/m 1,0 km/h (0 Bft) SW 219 0 min 0,000 mm 0,0 UV-I 0 W/m 0,4 C 0,8 C 1,6 km/h (1 Bft) 98,00 %
19.02.2017 03:12 0,8 C 97 % 1025,5 hPa 0,0 l/m 0,7 km/h (0 Bft) SW 219 0 min 0,000 mm 0,0 UV-I 0 W/m 0,4 C 0,8 C 1,6 km/h (1 Bft) 95,74 %
19.02.2017 03:14 0,8 C 97 % 1025,5 hPa 0,0 l/m 0,1 km/h (0 Bft) SW 219 0 min 0,000 mm 0,0 UV-I 0 W/m 0,4 C 0,8 C 1,6 km/h (1 Bft) 95,74 %
19.02.2017 03:16 0,9 C 98 % 1025,5 hPa 0,0 l/m 0,0 km/h (0 Bft) SW 219 0 min 0,000 mm 0,0 UV-I 0 W/m 0,6 C 0,9 C 0,0 km/h (0 Bft) 96,00 %
19.02.2017 03:18 0,8 C 98 % 1025,5 hPa 0,0 l/m 0,0 km/h (0 Bft) SW 219 0 min 0,000 mm 0,0 UV-I 0 W/m 0,5 C 0,8 C 0,0 km/h (0 Bft) 97,87 %
19.02.2017 03:20 0,8 C 97 % 1025,5 hPa 0,0 l/m 0,4 km/h (0 Bft) SW 219 0 min 0,000 mm 0,0 UV-I 0 W/m 0,4 C 0,8 C 1,6 km/h (1 Bft) 93,62 %
19.02.2017 03:22 0,8 C 98 % 1025,4 hPa 0,0 l/m 0,0 km/h (0 Bft) SW 219 0 min 0,000 mm 0,0 UV-I 0 W/m 0,5 C 0,8 C 0,0 km/h (0 Bft) 95,83 %
19.02.2017 03:24 0,8 C 97 % 1025,5 hPa 0,0 l/m 0,7 km/h (0 Bft) SW 219 0 min 0,000 mm 0,0 UV-I 0 W/m 0,4 C 0,8 C 1,6 km/h (1 Bft) 96,92 %
19.02.2017 03:26 0,8 C 97 % 1025,4 hPa 0,0 l/m 0,7 km/h (0 Bft) SW 219 0 min 0,000 mm 0,0 UV-I 0 W/m 0,4 C 0,8 C 1,6 km/h (1 Bft) 92,73 %
19.02.2017 03:28 0,7 C 97 % 1025,5 hPa 0,0 l/m 0,0 km/h (0 Bft) SW 219 0 min 0,000 mm 0,0 UV-I 0 W/m 0,3 C 0,7 C 0,0 km/h (0 Bft) 97,22 %
19.02.2017 03:30 0,7 C 97 % 1025,5 hPa 0,0 l/m 0,0 km/h (0 Bft) SW 219 0 min 0,000 mm 0,0 UV-I 0 W/m 0,3 C 0,7 C 0,0 km/h (0 Bft) 86,00 %
19.02.2017 03:32 0,7 C 97 % 1025,4 hPa 0,0 l/m 0,0 km/h (0 Bft) SW 219 0 min 0,000 mm 0,0 UV-I 0 W/m 0,3 C 0,7 C 1,6 km/h (1 Bft) 96,00 %
19.02.2017 03:34 0,7 C 97 % 1025,4 hPa 0,0 l/m 0,2 km/h (0 Bft) SW 219 0 min 0,000 mm 0,0 UV-I 0 W/m 0,3 C 0,7 C 1,6 km/h (1 Bft) 93,75 %
19.02.2017 03:36 0,7 C 97 % 1025,3 hPa 0,0 l/m 0,2 km/h (0 Bft) SW 219 0 min 0,000 mm 0,0 UV-I 0 W/m 0,3 C 0,7 C 1,6 km/h (1 Bft) 97,56 %
19.02.2017 03:38 0,7 C 97 % 1025,4 hPa 0,0 l/m 0,0 km/h (0 Bft) SW 219 0 min 0,000 mm 0,0 UV-I 0 W/m 0,3 C 0,7 C 0,0 km/h (0 Bft) 98,11 %
19.02.2017 03:40 0,7 C 97 % 1025,4 hPa 0,0 l/m 0,7 km/h (0 Bft) SW 219 0 min 0,000 mm 0,0 UV-I 0 W/m 0,3 C 0,7 C 3,2 km/h (1 Bft) 97,92 %
19.02.2017 03:42 0,7 C 97 % 1025,4 hPa 0,0 l/m 0,3 km/h (0 Bft) SW 219 0 min 0,000 mm 0,0 UV-I 0 W/m 0,3 C 0,7 C 1,6 km/h (1 Bft) 94,74 %
19.02.2017 03:44 0,7 C 97 % 1025,4 hPa 0,0 l/m 0,2 km/h (0 Bft) SW 219 0 min 0,000 mm 0,0 UV-I 0 W/m 0,3 C 0,7 C 1,6 km/h (1 Bft) 100,00 %
19.02.2017 03:46 0,7 C 97 % 1025,4 hPa 0,0 l/m 0,1 km/h (0 Bft) SW 219 0 min 0,000 mm 0,0 UV-I 0 W/m 0,3 C 0,7 C 1,6 km/h (1 Bft) 98,00 %
19.02.2017 03:48 0,7 C 97 % 1025,4 hPa 0,0 l/m 0,0 km/h (0 Bft) SW 219 0 min 0,000 mm 0,0 UV-I 0 W/m 0,3 C 0,7 C 1,6 km/h (1 Bft) 96,00 %
19.02.2017 03:50 0,7 C 97 % 1025,4 hPa 0,0 l/m 1,3 km/h (1 Bft) SW 219 0 min 0,000 mm 0,0 UV-I 0 W/m 0,3 C 0,7 C 3,2 km/h (1 Bft) 97,56 %
19.02.2017 03:52 0,7 C 97 % 1025,4 hPa 0,0 l/m 1,5 km/h (1 Bft) SW 219 0 min 0,000 mm 0,0 UV-I 0 W/m 0,3 C 0,7 C 1,6 km/h (1 Bft) 100,00 %
19.02.2017 03:54 0,7 C 97 % 1025,4 hPa 0,0 l/m 0,5 km/h (0 Bft) SW 219 0 min 0,000 mm 0,0 UV-I 0 W/m 0,3 C 0,7 C 1,6 km/h (1 Bft) 95,74 %
19.02.2017 03:56 0,8 C 98 % 1025,4 hPa 0,0 l/m 0,0 km/h (0 Bft) SW 219 0 min 0,000 mm 0,0 UV-I 0 W/m 0,5 C 0,8 C 0,0 km/h (0 Bft) 100,00 %
19.02.2017 03:58 0,8 C 98 % 1025,4 hPa 0,0 l/m 0,0 km/h (0 Bft) SW 219 0 min 0,000 mm 0,0 UV-I 0 W/m 0,5 C 0,8 C 0,0 km/h (0 Bft) 96,00 %
19.02.2017 04:00 0,7 C 97 % 1025,4 hPa 0,0 l/m 0,0 km/h (0 Bft) SW 219 0 min 0,000 mm 0,0 UV-I 0 W/m 0,3 C 0,7 C 0,0 km/h (0 Bft) 96,00 %
19.02.2017 04:02 0,7 C 97 % 1025,5 hPa 0,0 l/m 0,0 km/h (0 Bft) SW 219 0 min 0,000 mm 0,0 UV-I 0 W/m 0,3 C 0,7 C 0,0 km/h (0 Bft) 92,86 %
19.02.2017 04:04 0,7 C 97 % 1025,5 hPa 0,0 l/m 0,8 km/h (0 Bft) SW 219 0 min 0,000 mm 0,0 UV-I 0 W/m 0,3 C 0,7 C 3,2 km/h (1 Bft) 97,92 %
19.02.2017 04:06 0,7 C 97 % 1025,5 hPa 0,0 l/m 0,0 km/h (0 Bft) SW 219 0 min 0,000 mm 0,0 UV-I 0 W/m 0,3 C 0,7 C 0,0 km/h (0 Bft) 96,36 %
19.02.2017 04:08 0,6 C 97 % 1025,4 hPa 0,0 l/m 0,2 km/h (0 Bft) SW 219 0 min 0,000 mm 0,0 UV-I 0 W/m 0,2 C 0,6 C 1,6 km/h (1 Bft) 100,00 %
19.02.2017 04:10 0,6 C 97 % 1025,4 hPa 0,0 l/m 1,2 km/h (1 Bft) SW 219 0 min 0,000 mm 0,0 UV-I 0 W/m 0,2 C 0,6 C 3,2 km/h (1 Bft) 97,87 %
19.02.2017 04:12 0,6 C 97 % 1025,4 hPa 0,0 l/m 0,3 km/h (0 Bft) SW 219 0 min 0,000 mm 0,0 UV-I 0 W/m 0,2 C 0,6 C 1,6 km/h (1 Bft) 95,83 %
19.02.2017 04:14 0,6 C 97 % 1025,5 hPa 0,0 l/m 2,8 km/h (1 Bft) SW 219 0 min 0,000 mm 0,0 UV-I 0 W/m 0,2 C 0,6 C 4,8 km/h (1 Bft) 97,37 %
19.02.2017 04:16 0,6 C 97 % 1025,5 hPa 0,0 l/m 3,0 km/h (1 Bft) SW 219 0 min 0,000 mm 0,0 UV-I 0 W/m 0,2 C 0,6 C 4,8 km/h (1 Bft) 96,00 %
19.02.2017 04:18 0,6 C 98 % 1025,5 hPa 0,0 l/m 2,0 km/h (1 Bft) SW 219 0 min 0,000 mm 0,0 UV-I 0 W/m 0,3 C 0,6 C 3,2 km/h (1 Bft) 98,00 %
19.02.2017 04:20 0,6 C 97 % 1025,5 hPa 0,0 l/m 1,3 km/h (1 Bft) SW 219 0 min 0,000 mm 0,0 UV-I 0 W/m 0,2 C 0,6 C 3,2 km/h (1 Bft) 95,12 %
19.02.2017 04:22 0,6 C 97 % 1025,5 hPa 0,0 l/m 0,9 km/h (0 Bft) SW 219 0 min 0,000 mm 0,0 UV-I 0 W/m 0,2 C 0,6 C 3,2 km/h (1 Bft) 98,00 %
19.02.2017 04:24 0,6 C 97 % 1025,5 hPa 0,0 l/m 2,9 km/h (1 Bft) SW 219 0 min 0,000 mm 0,0 UV-I 0 W/m 0,2 C 0,6 C 3,2 km/h (1 Bft) 94,00 %
19.02.2017 04:26 0,5 C 97 % 1025,5 hPa 0,0 l/m 2,0 km/h (1 Bft) SW 219 0 min 0,000 mm 0,0 UV-I 0 W/m 0,1 C 0,5 C 3,2 km/h (1 Bft) 97,37 %
19.02.2017 04:28 0,5 C 97 % 1025,4 hPa 0,0 l/m 0,9 km/h (0 Bft) SW 219 0 min 0,000 mm 0,0 UV-I 0 W/m 0,1 C 0,5 C 3,2 km/h (1 Bft) 96,00 %
19.02.2017 04:30 0,6 C 97 % 1025,4 hPa 0,0 l/m 3,0 km/h (1 Bft) SW 219 0 min 0,000 mm 0,0 UV-I 0 W/m 0,2 C 0,6 C 4,8 km/h (1 Bft) 98,00 %
19.02.2017 04:32 0,5 C 97 % 1025,4 hPa 0,0 l/m 2,9 km/h (1 Bft) SW 219 0 min 0,000 mm 0,0 UV-I 0 W/m 0,1 C 0,5 C 4,8 km/h (1 Bft) 97,87 %
19.02.2017 04:34 0,5 C 97 % 1025,4 hPa 0,0 l/m 0,9 km/h (0 Bft) SW 219 0 min 0,000 mm 0,0 UV-I 0 W/m 0,1 C 0,5 C 3,2 km/h (1 Bft) 95,74 %
19.02.2017 04:36 0,5 C 97 % 1025,4 hPa 0,0 l/m 2,3 km/h (1 Bft) SW 219 0 min 0,000 mm 0,0 UV-I 0 W/m 0,1 C 0,5 C 3,2 km/h (1 Bft) 92,68 %
19.02.2017 04:38 0,5 C 97 % 1025,4 hPa 0,0 l/m 0,6 km/h (0 Bft) SW 219 0 min 0,000 mm 0,0 UV-I 0 W/m 0,1 C 0,5 C 1,6 km/h (1 Bft) 94,64 %
19.02.2017 04:40 0,5 C 97 % 1025,4 hPa 0,0 l/m 0,7 km/h (0 Bft) SW 219 0 min 0,000 mm 0,0 UV-I 0 W/m 0,1 C 0,5 C 1,6 km/h (1 Bft) 97,37 %
19.02.2017 04:42 0,5 C 97 % 1025,4 hPa 0,0 l/m 0,4 km/h (0 Bft) SW 219 0 min 0,000 mm 0,0 UV-I 0 W/m 0,1 C 0,5 C 1,6 km/h (1 Bft) 94,34 %
19.02.2017 04:44 0,5 C 97 % 1025,4 hPa 0,0 l/m 0,1 km/h (0 Bft) SW 219 0 min 0,000 mm 0,0 UV-I 0 W/m 0,1 C 0,5 C 1,6 km/h (1 Bft) 93,62 %
19.02.2017 04:46 0,5 C 97 % 1025,4 hPa 0,0 l/m 1,2 km/h (1 Bft) SW 219 0 min 0,000 mm 0,0 UV-I 0 W/m 0,1 C 0,5 C 3,2 km/h (1 Bft) 94,87 %
19.02.2017 04:48 0,5 C 97 % 1025,4 hPa 0,0 l/m 2,0 km/h (1 Bft) SW 219 0 min 0,000 mm 0,0 UV-I 0 W/m 0,1 C 0,5 C 3,2 km/h (1 Bft) 95,74 %
19.02.2017 04:50 0,4 C 97 % 1025,4 hPa 0,0 l/m 0,8 km/h (0 Bft) SW 219 0 min 0,000 mm 0,0 UV-I 0 W/m -0,0 C 0,4 C 1,6 km/h (1 Bft) 96,55 %
19.02.2017 04:52 0,4 C 97 % 1025,3 hPa 0,0 l/m 0,4 km/h (0 Bft) SW 219 0 min 0,000 mm 0,0 UV-I 0 W/m -0,0 C 0,4 C 1,6 km/h (1 Bft) 98,46 %
19.02.2017 04:54 0,4 C 97 % 1025,3 hPa 0,0 l/m 0,3 km/h (0 Bft) SW 219 0 min 0,000 mm 0,0 UV-I 0 W/m -0,0 C 0,4 C 1,6 km/h (1 Bft) 97,87 %
19.02.2017 04:56 0,4 C 98 % 1025,4 hPa 0,0 l/m 0,9 km/h (0 Bft) SW 219 0 min 0,000 mm 0,0 UV-I 0 W/m 0,1 C 0,4 C 3,2 km/h (1 Bft) 93,62 %
19.02.2017 04:58 0,3 C 98 % 1025,4 hPa 0,0 l/m 1,7 km/h (1 Bft) SW 219 0 min 0,000 mm 0,0 UV-I 0 W/m 0,0 C 0,3 C 3,2 km/h (1 Bft) 100,00 %
19.02.2017 05:00 0,3 C 98 % 1025,3 hPa 0,0 l/m 0,9 km/h (0 Bft) SW 219 0 min 0,000 mm 0,0 UV-I 0 W/m 0,0 C 0,3 C 1,6 km/h (1 Bft) 100,00 %
19.02.2017 05:02 0,3 C 98 % 1025,3 hPa 0,0 l/m 0,2 km/h (0 Bft) SW 219 0 min 0,000 mm 0,0 UV-I 0 W/m 0,0 C 0,3 C 1,6 km/h (1 Bft) 98,00 %
19.02.2017 05:04 0,3 C 98 % 1025,3 hPa 0,0 l/m 0,8 km/h (0 Bft) SW 219 0 min 0,000 mm 0,0 UV-I 0 W/m 0,0 C 0,3 C 3,2 km/h (1 Bft) 96,00 %
19.02.2017 05:06 0,3 C 98 % 1025,3 hPa 0,0 l/m 1,9 km/h (1 Bft) SW 219 0 min 0,000 mm 0,0 UV-I 0 W/m 0,0 C 0,3 C 3,2 km/h (1 Bft) 100,00 %
19.02.2017 05:08 0,3 C 98 % 1025,3 hPa 0,0 l/m 2,8 km/h (1 Bft) SW 219 0 min 0,000 mm 0,0 UV-I 0 W/m 0,0 C 0,3 C 3,2 km/h (1 Bft) 96,15 %
19.02.2017 05:10 0,2 C 97 % 1025,3 hPa 0,0 l/m 1,2 km/h (1 Bft) SW 219 0 min 0,000 mm 0,0 UV-I 0 W/m -0,2 C 0,2 C 3,2 km/h (1 Bft) 98,00 %
19.02.2017 05:12 0,2 C 97 % 1025,3 hPa 0,0 l/m 0,8 km/h (0 Bft) SW 219 0 min 0,000 mm 0,0 UV-I 0 W/m -0,2 C 0,2 C 1,6 km/h (1 Bft) 100,00 %
19.02.2017 05:14 0,2 C 97 % 1025,3 hPa 0,0 l/m 0,5 km/h (0 Bft) SW 219 0 min 0,000 mm 0,0 UV-I 0 W/m -0,2 C 0,2 C 1,6 km/h (1 Bft) 95,74 %
19.02.2017 05:16 0,2 C 97 % 1025,3 hPa 0,0 l/m 0,3 km/h (0 Bft) SW 219 0 min 0,000 mm 0,0 UV-I 0 W/m -0,2 C 0,2 C 1,6 km/h (1 Bft) 96,00 %
19.02.2017 05:18 0,2 C 97 % 1025,3 hPa 0,0 l/m 1,4 km/h (1 Bft) SW 219 0 min 0,000 mm 0,0 UV-I 0 W/m -0,2 C 0,2 C 3,2 km/h (1 Bft) 94,74 %
19.02.2017 05:20 0,1 C 97 % 1025,3 hPa 0,0 l/m 2,2 km/h (1 Bft) SW 219 0 min 0,000 mm 0,0 UV-I 0 W/m -0,3 C 0,1 C 3,2 km/h (1 Bft) 94,00 %
19.02.2017 05:22 0,1 C 98 % 1025,4 hPa 0,0 l/m 2,5 km/h (1 Bft) SW 219 0 min 0,000 mm 0,0 UV-I 0 W/m -0,2 C 0,1 C 3,2 km/h (1 Bft) 94,00 %
19.02.2017 05:24 0,1 C 98 % 1025,3 hPa 0,0 l/m 3,0 km/h (1 Bft) SW 219 0 min 0,000 mm 0,0 UV-I 0 W/m -0,2 C 0,1 C 4,8 km/h (1 Bft) 96,00 %
19.02.2017 05:26 0,0 C 98 % 1025,3 hPa 0,0 l/m 2,8 km/h (1 Bft) SW 219 0 min 0,000 mm 0,0 UV-I 0 W/m -0,3 C 0,0 C 4,8 km/h (1 Bft) 92,31 %
19.02.2017 05:28 0,0 C 98 % 1025,3 hPa 0,0 l/m 2,0 km/h (1 Bft) SW 219 0 min 0,000 mm 0,0 UV-I 0 W/m -0,3 C 0,0 C 3,2 km/h (1 Bft) 97,14 %
19.02.2017 05:30 0,0 C 98 % 1025,3 hPa 0,0 l/m 0,2 km/h (0 Bft) SW 219 0 min 0,000 mm 0,0 UV-I 0 W/m -0,3 C 0,0 C 1,6 km/h (1 Bft) 93,55 %
19.02.2017 05:32 0,0 C 98 % 1025,3 hPa 0,0 l/m 1,7 km/h (1 Bft) SW 219 0 min 0,000 mm 0,0 UV-I 0 W/m -0,3 C 0,0 C 3,2 km/h (1 Bft) 98,00 %
19.02.2017 05:34 -0,1 C 98 % 1025,3 hPa 0,0 l/m 2,3 km/h (1 Bft) SW 219 0 min 0,000 mm 0,0 UV-I 0 W/m -0,4 C -0,1 C 3,2 km/h (1 Bft) 95,74 %
19.02.2017 05:36 -0,1 C 98 % 1025,3 hPa 0,0 l/m 2,0 km/h (1 Bft) SW 219 0 min 0,000 mm 0,0 UV-I 0 W/m -0,4 C -0,1 C 3,2 km/h (1 Bft) 97,87 %
19.02.2017 05:38 -0,1 C 98 % 1025,3 hPa 0,0 l/m 2,6 km/h (1 Bft) SW 219 0 min 0,000 mm 0,0 UV-I 0 W/m -0,4 C -0,1 C 3,2 km/h (1 Bft) 97,73 %
19.02.2017 05:40 -0,1 C 97 % 1025,3 hPa 0,0 l/m 2,6 km/h (1 Bft) SW 219 0 min 0,000 mm 0,0 UV-I 0 W/m -0,5 C -0,1 C 3,2 km/h (1 Bft) 96,00 %
19.02.2017 05:42 -0,2 C 97 % 1025,3 hPa 0,0 l/m 2,3 km/h (1 Bft) SW 219 0 min 0,000 mm 0,0 UV-I 0 W/m -0,6 C -0,2 C 3,2 km/h (1 Bft) 97,87 %
19.02.2017 05:44 -0,2 C 97 % 1025,3 hPa 0,0 l/m 2,1 km/h (1 Bft) SW 219 0 min 0,000 mm 0,0 UV-I 0 W/m -0,6 C -0,2 C 3,2 km/h (1 Bft) 96,00 %
19.02.2017 05:46 -0,2 C 98 % 1025,3 hPa 0,0 l/m 2,8 km/h (1 Bft) SW 219 0 min 0,000 mm 0,0 UV-I 0 W/m -0,5 C -0,2 C 3,2 km/h (1 Bft) 100,00 %
19.02.2017 05:48 -0,2 C 98 % 1025,3 hPa 0,0 l/m 3,1 km/h (1 Bft) SW 219 0 min 0,000 mm 0,0 UV-I 0 W/m -0,5 C -0,2 C 4,8 km/h (1 Bft) 98,00 %
19.02.2017 05:50 -0,2 C 98 % 1025,3 hPa 0,0 l/m 2,1 km/h (1 Bft) SW 219 0 min 0,000 mm 0,0 UV-I 0 W/m -0,5 C -0,2 C 4,8 km/h (1 Bft) 97,87 %
19.02.2017 05:52 -0,2 C 98 % 1025,3 hPa 0,0 l/m 1,7 km/h (1 Bft) SW 219 0 min 0,000 mm 0,0 UV-I 0 W/m -0,5 C -0,2 C 4,8 km/h (1 Bft) 97,73 %
19.02.2017 05:54 -0,2 C 98 % 1025,3 hPa 0,0 l/m 3,9 km/h (1 Bft) SW 219 0 min 0,000 mm 0,0 UV-I 0 W/m -0,5 C -0,2 C 4,8 km/h (1 Bft) 98,00 %
19.02.2017 05:56 -0,2 C 98 % 1025,3 hPa 0,0 l/m 3,8 km/h (1 Bft) SW 219 0 min 0,000 mm 0,0 UV-I 0 W/m -0,5 C -0,2 C 6,4 km/h (2 Bft) 100,00 %
19.02.2017 05:58 -0,3 C 98 % 1025,3 hPa 0,0 l/m 3,0 km/h (1 Bft) SW 219 0 min 0,000 mm 0,0 UV-I 0 W/m -0,6 C -0,3 C 4,8 km/h (1 Bft) 97,87 %
19.02.2017 06:00 -0,3 C 98 % 1025,3 hPa 0,0 l/m 3,7 km/h (1 Bft) SW 219 0 min 0,000 mm 0,0 UV-I 0 W/m -0,6 C -0,3 C 4,8 km/h (1 Bft) 98,11 %
19.02.2017 06:02 -0,3 C 98 % 1025,2 hPa 0,0 l/m 4,5 km/h (1 Bft) SW 219 0 min 0,000 mm 0,0 UV-I 0 W/m -0,6 C -0,3 C 6,4 km/h (2 Bft) 100,00 %
19.02.2017 06:04 -0,3 C 98 % 1025,2 hPa 0,0 l/m 4,0 km/h (1 Bft) SW 219 0 min 0,000 mm 0,0 UV-I 0 W/m -0,6 C -0,3 C 6,4 km/h (2 Bft) 97,44 %
19.02.2017 06:06 -0,3 C 97 % 1025,2 hPa 0,0 l/m 5,3 km/h (1 Bft) W-SW 239 0 min 0,000 mm 0,0 UV-I 0 W/m -0,7 C -0,3 C 9,7 km/h (2 Bft) 97,37 %
19.02.2017 06:08 -0,4 C 97 % 1025,2 hPa 0,0 l/m 7,3 km/h (2 Bft) W 259 0 min 0,000 mm 0,0 UV-I 0 W/m -0,8 C -1,3 C 11,3 km/h (2 Bft) 96,43 %
19.02.2017 06:10 -0,4 C 97 % 1025,2 hPa 0,0 l/m 3,8 km/h (1 Bft) W 261 0 min 0,000 mm 0,0 UV-I 0 W/m -0,8 C -0,4 C 6,4 km/h (2 Bft) 98,00 %
19.02.2017 06:12 -0,5 C 98 % 1025,2 hPa 0,0 l/m 4,4 km/h (1 Bft) SW 236 0 min 0,000 mm 0,0 UV-I 0 W/m -0,8 C -0,5 C 6,4 km/h (2 Bft) 100,00 %
19.02.2017 06:14 -0,5 C 98 % 1025,2 hPa 0,0 l/m 3,8 km/h (1 Bft) SW 234 0 min 0,000 mm 0,0 UV-I 0 W/m -0,8 C -0,5 C 6,4 km/h (2 Bft) 100,00 %
19.02.2017 06:16 -0,6 C 98 % 1025,2 hPa 0,0 l/m 5,5 km/h (1 Bft) SW 230 0 min 0,000 mm 0,0 UV-I 0 W/m -0,9 C -0,6 C 8,0 km/h (2 Bft) 100,00 %
19.02.2017 06:18 -0,5 C 98 % 1025,2 hPa 0,0 l/m 4,3 km/h (1 Bft) SW 234 0 min 0,000 mm 0,0 UV-I 0 W/m -0,8 C -0,5 C 6,4 km/h (2 Bft) 100,00 %
19.02.2017 06:20 -0,6 C 98 % 1025,1 hPa 0,0 l/m 4,2 km/h (1 Bft) SW 234 0 min 0,000 mm 0,0 UV-I 0 W/m -0,9 C -0,6 C 4,8 km/h (1 Bft) 97,37 %
19.02.2017 06:22 -0,6 C 98 % 1025,1 hPa 0,0 l/m 4,2 km/h (1 Bft) SW 234 0 min 0,000 mm 0,0 UV-I 0 W/m -0,9 C -0,6 C 6,4 km/h (2 Bft) 94,34 %
19.02.2017 06:24 -0,6 C 98 % 1025,1 hPa 0,0 l/m 5,4 km/h (1 Bft) SW 224 0 min 0,000 mm 0,0 UV-I 0 W/m -0,9 C -0,6 C 8,0 km/h (2 Bft) 97,87 %
19.02.2017 06:26 -0,6 C 98 % 1025,2 hPa 0,0 l/m 4,6 km/h (1 Bft) SW 224 0 min 0,000 mm 0,0 UV-I 0 W/m -0,9 C -0,6 C 6,4 km/h (2 Bft) 94,00 %
19.02.2017 06:28 -0,6 C 98 % 1025,2 hPa 0,0 l/m 3,7 km/h (1 Bft) SW 227 0 min 0,000 mm 0,0 UV-I 0 W/m -0,9 C -0,6 C 6,4 km/h (2 Bft) 96,00 %
19.02.2017 06:30 -0,6 C 98 % 1025,2 hPa 0,0 l/m 3,4 km/h (1 Bft) SW 231 0 min 0,000 mm 0,0 UV-I 0 W/m -0,9 C -0,6 C 4,8 km/h (1 Bft) 93,62 %
19.02.2017 06:32 -0,6 C 98 % 1025,2 hPa 0,0 l/m 5,4 km/h (1 Bft) SW 232 0 min 0,000 mm 0,0 UV-I 0 W/m -0,9 C -0,6 C 8,0 km/h (2 Bft) 92,68 %
19.02.2017 06:34 -0,6 C 98 % 1025,2 hPa 0,0 l/m 5,8 km/h (2 Bft) SW 232 0 min 0,000 mm 0,0 UV-I 0 W/m -0,9 C -0,6 C 8,0 km/h (2 Bft) 96,00 %
19.02.2017 06:36 -0,6 C 98 % 1025,2 hPa 0,0 l/m 6,0 km/h (2 Bft) SW 235 0 min 0,000 mm 0,0 UV-I 0 W/m -0,9 C -0,6 C 8,0 km/h (2 Bft) 92,31 %
19.02.2017 06:38 -0,6 C 98 % 1025,2 hPa 0,0 l/m 4,6 km/h (1 Bft) SW 233 0 min 0,000 mm 0,0 UV-I 0 W/m -0,9 C -0,6 C 6,4 km/h (2 Bft) 98,11 %
19.02.2017 06:40 -0,6 C 98 % 1025,2 hPa 0,0 l/m 5,2 km/h (1 Bft) S 186 0 min 0,000 mm 0,0 UV-I 0 W/m -0,9 C -0,6 C 8,0 km/h (2 Bft) 90,91 %
19.02.2017 06:42 -0,7 C 98 % 1025,1 hPa 0,0 l/m 6,1 km/h (2 Bft) S-SW 201 0 min 0,000 mm 0,0 UV-I 0 W/m -1,0 C -0,7 C 8,0 km/h (2 Bft) 96,00 %
19.02.2017 06:44 -0,7 C 98 % 1025,1 hPa 0,0 l/m 5,6 km/h (1 Bft) SW 215 0 min 0,000 mm 0,0 UV-I 0 W/m -1,0 C -0,7 C 9,7 km/h (2 Bft) 95,74 %
19.02.2017 06:46 -0,7 C 98 % 1025,1 hPa 0,0 l/m 5,6 km/h (1 Bft) S-SW 211 0 min 0,000 mm 0,0 UV-I 0 W/m -1,0 C -0,7 C 11,3 km/h (2 Bft) 96,00 %
19.02.2017 06:48 -0,7 C 98 % 1025,1 hPa 0,0 l/m 6,1 km/h (2 Bft) S-SW 199 0 min 0,000 mm 0,0 UV-I 0 W/m -1,0 C -0,7 C 9,7 km/h (2 Bft) 93,33 %
19.02.2017 06:50 -0,7 C 98 % 1025,1 hPa 0,0 l/m 4,9 km/h (1 Bft) SW 219 0 min 0,000 mm 0,0 UV-I 0 W/m -1,0 C -0,7 C 6,4 km/h (2 Bft) 94,92 %
19.02.2017 06:52 -0,7 C 98 % 1025,0 hPa 0,0 l/m 5,7 km/h (1 Bft) S-SW 207 0 min 0,000 mm 0,0 UV-I 0 W/m -1,0 C -0,7 C 8,0 km/h (2 Bft) 96,23 %
19.02.2017 06:54 -0,8 C 98 % 1025,0 hPa 0,0 l/m 4,6 km/h (1 Bft) SW 224 0 min 0,000 mm 0,0 UV-I 4 W/m -1,1 C -0,8 C 6,4 km/h (2 Bft) 95,74 %
19.02.2017 06:56 -0,7 C 98 % 1025,1 hPa 0,0 l/m 6,6 km/h (2 Bft) SW 220 0 min 0,000 mm 0,0 UV-I 5 W/m -1,0 C -0,9 C 9,7 km/h (2 Bft) 100,00 %
19.02.2017 06:58 -0,8 C 98 % 1025,1 hPa 0,0 l/m 4,3 km/h (1 Bft) S-SW 204 0 min 0,000 mm 0,0 UV-I 5 W/m -1,1 C -0,8 C 9,7 km/h (2 Bft) 100,00 %
19.02.2017 07:00 -0,8 C 98 % 1025,1 hPa 0,0 l/m 6,6 km/h (2 Bft) S-SW 212 0 min 0,000 mm 0,0 UV-I 5 W/m -1,1 C -1,0 C 9,7 km/h (2 Bft) 98,11 %
19.02.2017 07:02 -0,8 C 98 % 1025,1 hPa 0,0 l/m 5,4 km/h (1 Bft) SW 223 0 min 0,000 mm 0,0 UV-I 5 W/m -1,1 C -0,8 C 9,7 km/h (2 Bft) 95,12 %
19.02.2017 07:04 -0,8 C 98 % 1025,1 hPa 0,0 l/m 4,8 km/h (1 Bft) SW 225 0 min 0,000 mm 0,0 UV-I 7 W/m -1,1 C -0,8 C 8,0 km/h (2 Bft) 95,12 %
19.02.2017 07:06 -0,8 C 98 % 1025,1 hPa 0,0 l/m 5,1 km/h (1 Bft) W-SW 242 0 min 0,000 mm 0,0 UV-I 7 W/m -1,1 C -0,8 C 6,4 km/h (2 Bft) 98,00 %
19.02.2017 07:08 -0,8 C 98 % 1025,1 hPa 0,0 l/m 5,6 km/h (1 Bft) SW 236 0 min 0,000 mm 0,0 UV-I 7 W/m -1,1 C -0,8 C 9,7 km/h (2 Bft) 94,29 %
19.02.2017 07:10 -0,8 C 98 % 1025,1 hPa 0,0 l/m 7,0 km/h (2 Bft) SW 234 0 min 0,000 mm 0,0 UV-I 8 W/m -1,1 C -1,4 C 8,0 km/h (2 Bft) 91,94 %
19.02.2017 07:12 -0,8 C 98 % 1025,1 hPa 0,0 l/m 6,1 km/h (2 Bft) W-SW 243 0 min 0,000 mm 0,0 UV-I 9 W/m -1,1 C -0,8 C 8,0 km/h (2 Bft) 89,47 %
19.02.2017 07:14 -0,8 C 98 % 1025,2 hPa 0,0 l/m 6,0 km/h (2 Bft) S-SW 210 2 min 0,000 mm 0,0 UV-I 10 W/m -1,1 C -0,8 C 8,0 km/h (2 Bft) 92,00 %
19.02.2017 07:16 -0,8 C 98 % 1025,2 hPa 0,0 l/m 4,4 km/h (1 Bft) S-SW 200 0 min 0,000 mm 0,0 UV-I 11 W/m -1,1 C -0,8 C 8,0 km/h (2 Bft) 98,00 %
19.02.2017 07:18 -0,8 C 98 % 1025,2 hPa 0,0 l/m 5,1 km/h (1 Bft) S-SW 198 0 min 0,000 mm 0,0 UV-I 12 W/m -1,1 C -0,8 C 9,7 km/h (2 Bft) 97,56 %
19.02.2017 07:20 -0,8 C 98 % 1025,2 hPa 0,0 l/m 4,8 km/h (1 Bft) S-SW 211 0 min 0,000 mm 0,0 UV-I 12 W/m -1,1 C -0,8 C 9,7 km/h (2 Bft) 96,08 %
19.02.2017 07:22 -0,8 C 98 % 1025,2 hPa 0,0 l/m 6,3 km/h (2 Bft) S-SW 212 0 min 0,000 mm 0,0 UV-I 15 W/m -1,1 C -0,8 C 9,7 km/h (2 Bft) 95,92 %
19.02.2017 07:24 -0,9 C 98 % 1025,2 hPa 0,0 l/m 8,8 km/h (2 Bft) S-SW 195 0 min 0,000 mm 0,0 UV-I 16 W/m -1,2 C -3,4 C 12,9 km/h (3 Bft) 96,00 %
19.02.2017 07:26 -0,9 C 98 % 1025,2 hPa 0,0 l/m 6,8 km/h (2 Bft) S-SW 208 0 min 0,000 mm 0,0 UV-I 19 W/m -1,2 C -1,3 C 12,9 km/h (3 Bft) 93,62 %
19.02.2017 07:28 -0,9 C 98 % 1025,2 hPa 0,0 l/m 7,5 km/h (2 Bft) SW 219 0 min 0,000 mm 0,0 UV-I 21 W/m -1,2 C -2,1 C 12,9 km/h (3 Bft) 97,92 %
19.02.2017 07:30 -0,9 C 98 % 1025,3 hPa 0,0 l/m 7,8 km/h (2 Bft) SW 222 0 min 0,000 mm 0,0 UV-I 24 W/m -1,2 C -2,4 C 12,9 km/h (3 Bft) 95,74 %
19.02.2017 07:32 -1,0 C 98 % 1025,3 hPa 0,0 l/m 7,8 km/h (2 Bft) W-SW 252 0 min 0,000 mm 0,0 UV-I 25 W/m -1,3 C -2,5 C 11,3 km/h (2 Bft) 90,00 %
19.02.2017 07:34 -0,9 C 98 % 1025,3 hPa 0,0 l/m 7,1 km/h (2 Bft) S-SW 207 0 min 0,000 mm 0,0 UV-I 26 W/m -1,2 C -1,6 C 14,5 km/h (3 Bft) 97,37 %
19.02.2017 07:36 -0,9 C 98 % 1025,4 hPa 0,0 l/m 7,4 km/h (2 Bft) S-SW 213 0 min 0,000 mm 0,0 UV-I 27 W/m -1,2 C -2,0 C 12,9 km/h (3 Bft) 98,00 %
19.02.2017 07:38 -0,9 C 98 % 1025,3 hPa 0,0 l/m 7,7 km/h (2 Bft) S-SW 209 0 min 0,000 mm 0,0 UV-I 32 W/m -1,2 C -2,3 C 9,7 km/h (2 Bft) 96,00 %
19.02.2017 07:40 -0,9 C 98 % 1025,4 hPa 0,0 l/m 6,0 km/h (2 Bft) SW 215 0 min 0,000 mm 0,0 UV-I 35 W/m -1,2 C -0,9 C 11,3 km/h (2 Bft) 92,11 %
19.02.2017 07:42 -0,9 C 98 % 1025,4 hPa 0,0 l/m 7,6 km/h (2 Bft) S-SW 209 0 min 0,000 mm 0,0 UV-I 37 W/m -1,2 C -2,2 C 11,3 km/h (2 Bft) 98,11 %
19.02.2017 07:44 -0,9 C 98 % 1025,3 hPa 0,0 l/m 6,0 km/h (2 Bft) S-SW 207 0 min 0,000 mm 0,0 UV-I 36 W/m -1,2 C -0,9 C 8,0 km/h (2 Bft) 96,00 %
19.02.2017 07:46 -0,9 C 98 % 1025,3 hPa 0,0 l/m 5,0 km/h (1 Bft) S-SW 201 0 min 0,000 mm 0,0 UV-I 38 W/m -1,2 C -0,9 C 6,4 km/h (2 Bft) 100,00 %
19.02.2017 07:48 -0,9 C 98 % 1025,4 hPa 0,0 l/m 8,5 km/h (2 Bft) SW 220 0 min 0,000 mm 0,0 UV-I 42 W/m -1,2 C -3,1 C 11,3 km/h (2 Bft) 96,43 %
19.02.2017 07:50 -0,9 C 98 % 1025,3 hPa 0,0 l/m 7,0 km/h (2 Bft) S-SW 202 0 min 0,000 mm 0,0 UV-I 46 W/m -1,2 C -1,5 C 9,7 km/h (2 Bft) 100,00 %
19.02.2017 07:52 -0,8 C 98 % 1025,3 hPa 0,0 l/m 8,0 km/h (2 Bft) S-SW 208 0 min 0,000 mm 0,0 UV-I 45 W/m -1,1 C -2,5 C 9,7 km/h (2 Bft) 100,00 %
19.02.2017 07:54 -0,8 C 98 % 1025,4 hPa 0,0 l/m 7,8 km/h (2 Bft) S-SW 213 0 min 0,000 mm 0,0 UV-I 44 W/m -1,1 C -2,3 C 12,9 km/h (3 Bft) 96,00 %
19.02.2017 07:56 -0,8 C 98 % 1025,4 hPa 0,0 l/m 7,1 km/h (2 Bft) S-SW 205 0 min 0,000 mm 0,0 UV-I 48 W/m -1,1 C -1,5 C 8,0 km/h (2 Bft) 100,00 %
19.02.2017 07:58 -0,8 C 98 % 1025,4 hPa 0,0 l/m 4,3 km/h (1 Bft) S-SW 209 0 min 0,000 mm 0,0 UV-I 54 W/m -1,1 C -0,8 C 6,4 km/h (2 Bft) 98,00 %
19.02.2017 08:00 -0,8 C 98 % 1025,4 hPa 0,0 l/m 5,5 km/h (1 Bft) S-SW 205 0 min 0,000 mm 0,0 UV-I 54 W/m -1,1 C -0,8 C 8,0 km/h (2 Bft) 96,00 %
19.02.2017 08:02 -0,8 C 98 % 1025,3 hPa 0,0 l/m 6,4 km/h (2 Bft) S-SW 209 0 min 0,000 mm 0,0 UV-I 55 W/m -1,1 C -0,8 C 8,0 km/h (2 Bft) 100,00 %
19.02.2017 08:04 -0,8 C 98 % 1025,4 hPa 0,0 l/m 5,0 km/h (1 Bft) S-SW 195 0 min 0,000 mm 0,0 UV-I 55 W/m -1,1 C -0,8 C 9,7 km/h (2 Bft) 97,01 %
19.02.2017 08:06 -0,8 C 98 % 1025,4 hPa 0,0 l/m 4,8 km/h (1 Bft) S-SW 204 0 min 0,000 mm 0,0 UV-I 66 W/m -1,1 C -0,8 C 9,7 km/h (2 Bft) 94,87 %
19.02.2017 08:08 -0,7 C 98 % 1025,4 hPa 0,0 l/m 4,5 km/h (1 Bft) S-SW 202 0 min 0,000 mm 0,0 UV-I 70 W/m -1,0 C -0,7 C 6,4 km/h (2 Bft) 98,00 %
19.02.2017 08:10 -0,7 C 98 % 1025,4 hPa 0,0 l/m 4,5 km/h (1 Bft) S-SW 199 0 min 0,000 mm 0,0 UV-I 70 W/m -1,0 C -0,7 C 8,0 km/h (2 Bft) 93,62 %
19.02.2017 08:12 -0,7 C 98 % 1025,4 hPa 0,0 l/m 4,1 km/h (1 Bft) S-SW 211 0 min 0,000 mm 0,0 UV-I 72 W/m -1,0 C -0,7 C 8,0 km/h (2 Bft) 98,00 %
19.02.2017 08:14 -0,7 C 98 % 1025,3 hPa 0,0 l/m 5,1 km/h (1 Bft) S-SW 213 0 min 0,000 mm 0,0 UV-I 75 W/m -1,0 C -0,7 C 8,0 km/h (2 Bft) 100,00 %
19.02.2017 08:16 -0,7 C 98 % 1025,3 hPa 0,0 l/m 5,9 km/h (2 Bft) S-SW 209 0 min 0,000 mm 0,0 UV-I 76 W/m -1,0 C -0,7 C 11,3 km/h (2 Bft) 94,64 %
19.02.2017 08:18 -0,7 C 98 % 1025,4 hPa 0,0 l/m 5,5 km/h (1 Bft) S-SW 197 0 min 0,000 mm 0,0 UV-I 79 W/m -1,0 C -0,7 C 9,7 km/h (2 Bft) 96,23 %
19.02.2017 08:20 -0,8 C 98 % 1025,3 hPa 0,0 l/m 4,9 km/h (1 Bft) S 180 0 min 0,000 mm 0,0 UV-I 84 W/m -1,1 C -0,8 C 8,0 km/h (2 Bft) 94,74 %
19.02.2017 08:22 -0,8 C 98 % 1025,3 hPa 0,0 l/m 5,4 km/h (1 Bft) S-SW 207 0 min 0,000 mm 0,0 UV-I 76 W/m -1,1 C -0,8 C 9,7 km/h (2 Bft) 96,23 %
19.02.2017 08:24 -0,8 C 98 % 1025,4 hPa 0,0 l/m 7,3 km/h (2 Bft) S-SW 201 0 min 0,000 mm 0,0 UV-I 80 W/m -1,1 C -1,8 C 9,7 km/h (2 Bft) 91,49 %
19.02.2017 08:26 -0,8 C 98 % 1025,4 hPa 0,0 l/m 7,1 km/h (2 Bft) S-SW 210 0 min 0,000 mm 0,0 UV-I 92 W/m -1,1 C -1,5 C 9,7 km/h (2 Bft) 92,11 %
19.02.2017 08:28 -0,8 C 98 % 1025,4 hPa 0,0 l/m 8,0 km/h (2 Bft) S-SW 208 0 min 0,000 mm 0,0 UV-I 90 W/m -1,1 C -2,5 C 11,3 km/h (2 Bft) 94,34 %
19.02.2017 08:30 -0,8 C 98 % 1025,4 hPa 0,0 l/m 5,3 km/h (1 Bft) S-SW 207 0 min 0,000 mm 0,0 UV-I 99 W/m -1,1 C -0,8 C 8,0 km/h (2 Bft) 92,45 %
19.02.2017 08:32 -0,7 C 98 % 1025,4 hPa 0,0 l/m 6,4 km/h (2 Bft) S-SW 205 0 min 0,000 mm 0,0 UV-I 107 W/m -1,0 C -0,7 C 9,7 km/h (2 Bft) 90,24 %
19.02.2017 08:34 -0,7 C 98 % 1025,4 hPa 0,0 l/m 7,5 km/h (2 Bft) SW 214 0 min 0,000 mm 0,0 UV-I 116 W/m -1,0 C -1,9 C 11,3 km/h (2 Bft) 90,24 %
19.02.2017 08:36 -0,8 C 98 % 1025,4 hPa 0,0 l/m 5,2 km/h (1 Bft) S 191 0 min 0,000 mm 0,0 UV-I 115 W/m -1,1 C -0,8 C 8,0 km/h (2 Bft) 96,23 %
19.02.2017 08:38 -0,7 C 98 % 1025,4 hPa 0,0 l/m 5,2 km/h (1 Bft) SW 217 0 min 0,000 mm 0,0 UV-I 115 W/m -1,0 C -0,7 C 9,7 km/h (2 Bft) 98,00 %
19.02.2017 08:40 -0,8 C 98 % 1025,4 hPa 0,0 l/m 3,6 km/h (1 Bft) SW 232 0 min 0,000 mm 0,0 UV-I 107 W/m -1,1 C -0,8 C 6,4 km/h (2 Bft) 94,44 %
19.02.2017 08:42 -0,8 C 98 % 1025,4 hPa 0,0 l/m 5,2 km/h (1 Bft) S-SW 213 0 min 0,000 mm 0,0 UV-I 106 W/m -1,1 C -0,8 C 8,0 km/h (2 Bft) 98,00 %
19.02.2017 08:44 -0,8 C 98 % 1025,4 hPa 0,0 l/m 4,8 km/h (1 Bft) S-SW 201 0 min 0,000 mm 0,0 UV-I 108 W/m -1,1 C -0,8 C 8,0 km/h (2 Bft) 93,62 %
19.02.2017 08:46 -0,8 C 98 % 1025,4 hPa 0,0 l/m 4,5 km/h (1 Bft) S-SW 201 0 min 0,000 mm 0,0 UV-I 114 W/m -1,1 C -0,8 C 6,4 km/h (2 Bft) 94,23 %
19.02.2017 08:48 -0,8 C 98 % 1025,4 hPa 0,0 l/m 3,3 km/h (1 Bft) S 190 0 min 0,000 mm 0,0 UV-I 126 W/m -1,1 C -0,8 C 6,4 km/h (2 Bft) 94,87 %
19.02.2017 08:50 -0,8 C 98 % 1025,4 hPa 0,0 l/m 3,9 km/h (1 Bft) S-SW 207 0 min 0,000 mm 0,0 UV-I 132 W/m -1,1 C -0,8 C 6,4 km/h (2 Bft) 96,00 %
19.02.2017 08:52 -0,8 C 98 % 1025,4 hPa 0,0 l/m 3,3 km/h (1 Bft) S-SW 207 2 min 0,000 mm 0,0 UV-I 171 W/m -1,1 C -0,8 C 4,8 km/h (1 Bft) 96,23 %
19.02.2017 08:54 -0,8 C 98 % 1025,4 hPa 0,0 l/m 3,5 km/h (1 Bft) SW 231 2 min 0,000 mm 0,0 UV-I 184 W/m -1,1 C -0,8 C 4,8 km/h (1 Bft) 87,80 %
19.02.2017 08:56 -0,7 C 98 % 1025,3 hPa 0,0 l/m 4,2 km/h (1 Bft) SW 233 2 min 0,000 mm 0,0 UV-I 170 W/m -1,0 C -0,7 C 6,4 km/h (2 Bft) 98,00 %
19.02.2017 08:58 -0,7 C 98 % 1025,3 hPa 0,0 l/m 2,7 km/h (1 Bft) SW 233 2 min 0,000 mm 0,0 UV-I 162 W/m -1,0 C -0,7 C 4,8 km/h (1 Bft) 96,00 %
19.02.2017 09:00 -0,7 C 98 % 1025,3 hPa 0,0 l/m 3,4 km/h (1 Bft) SW 233 0 min 0,025 mm 0,0 UV-I 153 W/m -1,0 C -0,7 C 4,8 km/h (1 Bft) 96,00 %
19.02.2017 09:02 -0,7 C 98 % 1025,4 hPa 0,0 l/m 2,9 km/h (1 Bft) SW 233 0 min 0,000 mm 0,0 UV-I 152 W/m -1,0 C -0,7 C 4,8 km/h (1 Bft) 93,18 %
19.02.2017 09:04 -0,7 C 98 % 1025,4 hPa 0,0 l/m 2,7 km/h (1 Bft) W-SW 245 0 min 0,000 mm 0,0 UV-I 148 W/m -1,0 C -0,7 C 4,8 km/h (1 Bft) 95,12 %
19.02.2017 09:06 -0,7 C 98 % 1025,4 hPa 0,0 l/m 2,4 km/h (1 Bft) W-SW 250 0 min 0,000 mm 0,0 UV-I 140 W/m -1,0 C -0,7 C 4,8 km/h (1 Bft) 88,00 %
19.02.2017 09:08 -0,7 C 98 % 1025,4 hPa 0,0 l/m 3,0 km/h (1 Bft) W-SW 250 0 min 0,000 mm 0,0 UV-I 129 W/m -1,0 C -0,7 C 4,8 km/h (1 Bft) 89,36 %
19.02.2017 09:10 -0,7 C 98 % 1025,4 hPa 0,0 l/m 2,5 km/h (1 Bft) W-SW 250 0 min 0,000 mm 0,0 UV-I 121 W/m -1,0 C -0,7 C 4,8 km/h (1 Bft) 94,00 %
19.02.2017 09:12 -0,8 C 98 % 1025,4 hPa 0,0 l/m 0,7 km/h (0 Bft) W-SW 250 0 min 0,000 mm 0,0 UV-I 123 W/m -1,1 C -0,8 C 3,2 km/h (1 Bft) 95,74 %
19.02.2017 09:14 -0,8 C 98 % 1025,3 hPa 0,0 l/m 2,5 km/h (1 Bft) W-SW 249 0 min 0,000 mm 0,0 UV-I 123 W/m -1,1 C -0,8 C 4,8 km/h (1 Bft) 89,47 %
19.02.2017 09:16 -0,7 C 98 % 1025,4 hPa 0,0 l/m 1,0 km/h (0 Bft) W-SW 249 0 min 0,000 mm 0,0 UV-I 125 W/m -1,0 C -0,7 C 3,2 km/h (1 Bft) 96,23 %
19.02.2017 09:18 -0,7 C 98 % 1025,4 hPa 0,0 l/m 1,5 km/h (1 Bft) W-SW 250 0 min 0,000 mm 0,0 UV-I 121 W/m -1,0 C -0,7 C 3,2 km/h (1 Bft) 97,56 %
19.02.2017 09:20 -0,8 C 98 % 1025,3 hPa 0,0 l/m 1,6 km/h (1 Bft) W-SW 249 0 min 0,000 mm 0,0 UV-I 109 W/m -1,1 C -0,8 C 3,2 km/h (1 Bft) 96,67 %
19.02.2017 09:22 -0,8 C 98 % 1025,4 hPa 0,0 l/m 3,2 km/h (1 Bft) W-SW 250 0 min 0,000 mm 0,0 UV-I 96 W/m -1,1 C -0,8 C 4,8 km/h (1 Bft) 94,29 %
19.02.2017 09:24 -0,9 C 98 % 1025,4 hPa 0,0 l/m 1,7 km/h (1 Bft) W-SW 250 0 min 0,000 mm 0,0 UV-I 112 W/m -1,2 C -0,9 C 4,8 km/h (1 Bft) 97,22 %
19.02.2017 09:26 -0,9 C 98 % 1025,4 hPa 0,0 l/m 0,4 km/h (0 Bft) W-SW 250 0 min 0,000 mm 0,0 UV-I 120 W/m -1,2 C -0,9 C 1,6 km/h (1 Bft) 92,45 %
19.02.2017 09:28 -0,9 C 98 % 1025,4 hPa 0,0 l/m 3,6 km/h (1 Bft) SW 234 0 min 0,000 mm 0,0 UV-I 110 W/m -1,2 C -0,9 C 6,4 km/h (2 Bft) 94,00 %
19.02.2017 09:30 -0,9 C 98 % 1025,5 hPa 0,0 l/m 3,5 km/h (1 Bft) SW 234 0 min 0,000 mm 0,0 UV-I 132 W/m -1,2 C -0,9 C 4,8 km/h (1 Bft) 92,00 %
19.02.2017 09:32 -0,8 C 98 % 1025,5 hPa 0,0 l/m 2,3 km/h (1 Bft) SW 234 0 min 0,000 mm 0,0 UV-I 166 W/m -1,1 C -0,8 C 4,8 km/h (1 Bft) 91,49 %
19.02.2017 09:34 -0,8 C 98 % 1025,5 hPa 0,0 l/m 1,6 km/h (1 Bft) SW 234 0 min 0,000 mm 0,5 UV-I 189 W/m -1,1 C -0,8 C 4,8 km/h (1 Bft) 100,00 %
19.02.2017 09:36 -0,8 C 98 % 1025,5 hPa 0,0 l/m 2,0 km/h (1 Bft) SW 232 2 min 0,000 mm 0,5 UV-I 224 W/m -1,1 C -0,8 C 4,8 km/h (1 Bft) 98,00 %
19.02.2017 09:38 -0,7 C 98 % 1025,5 hPa 0,0 l/m 2,1 km/h (1 Bft) SW 232 2 min 0,000 mm 0,5 UV-I 241 W/m -1,0 C -0,7 C 4,8 km/h (1 Bft) 93,62 %
19.02.2017 09:40 -0,8 C 98 % 1025,6 hPa 0,0 l/m 1,0 km/h (0 Bft) SW 232 2 min 0,000 mm 0,5 UV-I 225 W/m -1,1 C -0,8 C 3,2 km/h (1 Bft) 98,00 %
19.02.2017 09:42 -0,6 C 98 % 1025,6 hPa 0,0 l/m 0,9 km/h (0 Bft) SW 232 2 min 0,000 mm 0,5 UV-I 214 W/m -0,9 C -0,6 C 4,8 km/h (1 Bft) 98,00 %
19.02.2017 09:44 -0,6 C 98 % 1025,6 hPa 0,0 l/m 2,8 km/h (1 Bft) SW 232 0 min 0,000 mm 0,5 UV-I 205 W/m -0,9 C -0,6 C 6,4 km/h (2 Bft) 97,56 %
19.02.2017 09:46 -0,6 C 98 % 1025,5 hPa 0,0 l/m 1,5 km/h (1 Bft) SW 232 0 min 0,000 mm 0,5 UV-I 202 W/m -0,9 C -0,6 C 3,2 km/h (1 Bft) 94,34 %
19.02.2017 09:48 -0,6 C 98 % 1025,6 hPa 0,0 l/m 1,2 km/h (1 Bft) SW 232 2 min 0,000 mm 0,5 UV-I 215 W/m -0,9 C -0,6 C 4,8 km/h (1 Bft) 100,00 %
19.02.2017 09:50 -0,5 C 98 % 1025,6 hPa 0,0 l/m 2,2 km/h (1 Bft) SW 232 2 min 0,000 mm 0,5 UV-I 214 W/m -0,8 C -0,5 C 4,8 km/h (1 Bft) 96,23 %
19.02.2017 09:52 -0,4 C 98 % 1025,6 hPa 0,0 l/m 2,2 km/h (1 Bft) SW 232 0 min 0,000 mm 0,5 UV-I 210 W/m -0,7 C -0,4 C 4,8 km/h (1 Bft) 95,74 %
19.02.2017 09:54 -0,3 C 98 % 1025,6 hPa 0,0 l/m 2,3 km/h (1 Bft) W-SW 239 0 min 0,000 mm 0,5 UV-I 207 W/m -0,6 C -0,3 C 4,8 km/h (1 Bft) 97,37 %
19.02.2017 09:56 -0,3 C 98 % 1025,5 hPa 0,0 l/m 4,1 km/h (1 Bft) SW 236 0 min 0,000 mm 0,5 UV-I 192 W/m -0,6 C -0,3 C 6,4 km/h (2 Bft) 100,00 %
19.02.2017 09:58 -0,4 C 98 % 1025,5 hPa 0,0 l/m 2,2 km/h (1 Bft) SW 234 0 min 0,000 mm 0,5 UV-I 194 W/m -0,7 C -0,4 C 6,4 km/h (2 Bft) 97,87 %
19.02.2017 10:00 -0,5 C 98 % 1025,5 hPa 0,0 l/m 0,9 km/h (0 Bft) SW 234 0 min 0,051 mm 0,5 UV-I 200 W/m -0,8 C -0,5 C 1,6 km/h (1 Bft) 98,00 %
19.02.2017 10:02 -0,4 C 98 % 1025,5 hPa 0,0 l/m 0,4 km/h (0 Bft) SW 234 0 min 0,000 mm 0,5 UV-I 199 W/m -0,7 C -0,4 C 3,2 km/h (1 Bft) 100,00 %
19.02.2017 10:04 -0,3 C 98 % 1025,5 hPa 0,0 l/m 3,7 km/h (1 Bft) W-SW 239 0 min 0,000 mm 0,6 UV-I 181 W/m -0,6 C -0,3 C 4,8 km/h (1 Bft) 90,00 %
19.02.2017 10:06 -0,3 C 98 % 1025,5 hPa 0,0 l/m 3,9 km/h (1 Bft) W-SW 249 0 min 0,000 mm 0,5 UV-I 174 W/m -0,6 C -0,3 C 6,4 km/h (2 Bft) 97,87 %
19.02.2017 10:08 -0,2 C 98 % 1025,5 hPa 0,0 l/m 3,7 km/h (1 Bft) W-SW 250 0 min 0,000 mm 0,6 UV-I 182 W/m -0,5 C -0,2 C 4,8 km/h (1 Bft) 97,87 %
19.02.2017 10:10 -0,3 C 98 % 1025,5 hPa 0,0 l/m 1,8 km/h (1 Bft) W-SW 250 0 min 0,000 mm 0,6 UV-I 201 W/m -0,6 C -0,3 C 3,2 km/h (1 Bft) 93,62 %
19.02.2017 10:12 -0,3 C 98 % 1025,5 hPa 0,0 l/m 2,4 km/h (1 Bft) W-SW 250 0 min 0,000 mm 0,6 UV-I 215 W/m -0,6 C -0,3 C 4,8 km/h (1 Bft) 97,87 %
19.02.2017 10:14 -0,3 C 98 % 1025,4 hPa 0,0 l/m 1,2 km/h (1 Bft) W-SW 250 0 min 0,000 mm 0,6 UV-I 229 W/m -0,6 C -0,3 C 3,2 km/h (1 Bft) 95,74 %
19.02.2017 10:16 -0,2 C 98 % 1025,4 hPa 0,0 l/m 2,0 km/h (1 Bft) S-SW 193 2 min 0,000 mm 0,6 UV-I 247 W/m -0,5 C -0,2 C 4,8 km/h (1 Bft) 93,62 %
19.02.2017 10:18 -0,2 C 98 % 1025,4 hPa 0,0 l/m 1,2 km/h (1 Bft) S-SW 193 2 min 0,000 mm 0,6 UV-I 248 W/m -0,5 C -0,2 C 3,2 km/h (1 Bft) 100,00 %
19.02.2017 10:20 -0,2 C 98 % 1025,4 hPa 0,0 l/m 0,5 km/h (0 Bft) S-SW 193 2 min 0,000 mm 0,7 UV-I 257 W/m -0,5 C -0,2 C 3,2 km/h (1 Bft) 98,11 %
19.02.2017 10:22 -0,1 C 98 % 1025,4 hPa 0,0 l/m 2,3 km/h (1 Bft) S-SW 193 2 min 0,000 mm 0,7 UV-I 245 W/m -0,4 C -0,1 C 3,2 km/h (1 Bft) 90,00 %
19.02.2017 10:24 0,0 C 98 % 1025,4 hPa 0,0 l/m 3,0 km/h (1 Bft) S-SW 196 2 min 0,000 mm 0,7 UV-I 254 W/m -0,3 C 0,0 C 6,4 km/h (2 Bft) 96,00 %
19.02.2017 10:26 0,2 C 98 % 1025,4 hPa 0,0 l/m 3,3 km/h (1 Bft) S-SW 202 2 min 0,000 mm 0,7 UV-I 281 W/m -0,1 C 0,2 C 6,4 km/h (2 Bft) 91,43 %
19.02.2017 10:28 0,3 C 98 % 1025,4 hPa 0,0 l/m 4,0 km/h (1 Bft) W-SW 238 2 min 0,000 mm 0,8 UV-I 315 W/m 0,0 C 0,3 C 4,8 km/h (1 Bft) 96,00 %
19.02.2017 10:30 0,3 C 98 % 1025,4 hPa 0,0 l/m 4,1 km/h (1 Bft) W-SW 240 2 min 0,000 mm 0,8 UV-I 282 W/m 0,0 C 0,3 C 6,4 km/h (2 Bft) 96,23 %
19.02.2017 10:32 0,1 C 98 % 1025,4 hPa 0,0 l/m 1,8 km/h (1 Bft) W-SW 250 2 min 0,000 mm 0,8 UV-I 333 W/m -0,2 C 0,1 C 4,8 km/h (1 Bft) 97,44 %
19.02.2017 10:34 0,1 C 98 % 1025,4 hPa 0,0 l/m 0,7 km/h (0 Bft) S-SW 204 2 min 0,000 mm 0,8 UV-I 322 W/m -0,2 C 0,1 C 3,2 km/h (1 Bft) 96,23 %
19.02.2017 10:36 0,2 C 98 % 1025,4 hPa 0,0 l/m 0,4 km/h (0 Bft) S-SW 204 2 min 0,000 mm 0,8 UV-I 331 W/m -0,1 C 0,2 C 3,2 km/h (1 Bft) 89,36 %
19.02.2017 10:38 0,3 C 98 % 1025,3 hPa 0,0 l/m 0,9 km/h (0 Bft) S-SW 204 2 min 0,000 mm 0,8 UV-I 357 W/m 0,0 C 0,3 C 3,2 km/h (1 Bft) 97,87 %
19.02.2017 10:40 0,3 C 98 % 1025,3 hPa 0,0 l/m 0,7 km/h (0 Bft) S-SW 204 2 min 0,000 mm 0,8 UV-I 312 W/m 0,0 C 0,3 C 3,2 km/h (1 Bft) 97,62 %
19.02.2017 10:42 0,3 C 98 % 1025,3 hPa 0,0 l/m 3,0 km/h (1 Bft) S-SW 204 2 min 0,000 mm 0,8 UV-I 304 W/m 0,0 C 0,3 C 6,4 km/h (2 Bft) 93,62 %
19.02.2017 10:44 0,3 C 98 % 1025,3 hPa 0,0 l/m 1,5 km/h (1 Bft) S-SW 204 2 min 0,000 mm 0,8 UV-I 304 W/m 0,0 C 0,3 C 4,8 km/h (1 Bft) 94,00 %
19.02.2017 10:46 0,4 C 98 % 1025,3 hPa 0,0 l/m 3,7 km/h (1 Bft) W-SW 244 2 min 0,000 mm 0,8 UV-I 305 W/m 0,1 C 0,4 C 4,8 km/h (1 Bft) 92,31 %
19.02.2017 10:48 0,6 C 98 % 1025,3 hPa 0,0 l/m 0,8 km/h (0 Bft) W-SW 244 2 min 0,000 mm 0,8 UV-I 305 W/m 0,3 C 0,6 C 4,8 km/h (1 Bft) 90,57 %
19.02.2017 10:50 0,4 C 98 % 1025,3 hPa 0,0 l/m 0,5 km/h (0 Bft) W-SW 244 2 min 0,000 mm 0,8 UV-I 271 W/m 0,1 C 0,4 C 3,2 km/h (1 Bft) 95,74 %
19.02.2017 10:52 0,5 C 98 % 1025,4 hPa 0,0 l/m 1,5 km/h (1 Bft) SW 223 0 min 0,000 mm 0,8 UV-I 255 W/m 0,2 C 0,5 C 6,4 km/h (2 Bft) 91,49 %
19.02.2017 10:54 0,5 C 98 % 1025,4 hPa 0,0 l/m 2,6 km/h (1 Bft) S-SW 210 2 min 0,000 mm 0,8 UV-I 272 W/m 0,2 C 0,5 C 8,0 km/h (2 Bft) 93,62 %
19.02.2017 10:56 0,6 C 98 % 1025,4 hPa 0,0 l/m 4,1 km/h (1 Bft) S-SW 210 2 min 0,000 mm 0,9 UV-I 363 W/m 0,3 C 0,6 C 6,4 km/h (2 Bft) 97,87 %
19.02.2017 10:58 0,6 C 98 % 1025,5 hPa 0,0 l/m 2,2 km/h (1 Bft) S-SW 205 2 min 0,000 mm 1,0 UV-I 364 W/m 0,3 C 0,6 C 4,8 km/h (1 Bft) 100,00 %
19.02.2017 11:00 0,6 C 98 % 1025,5 hPa 0,0 l/m 2,1 km/h (1 Bft) S-SW 205 2 min 0,000 mm 1,0 UV-I 380 W/m 0,3 C 0,6 C 4,8 km/h (1 Bft) 91,49 %
19.02.2017 11:02 0,8 C 98 % 1025,4 hPa 0,0 l/m 2,2 km/h (1 Bft) S-SW 205 2 min 0,102 mm 1,0 UV-I 389 W/m 0,5 C 0,8 C 4,8 km/h (1 Bft) 92,68 %
19.02.2017 11:04 0,9 C 98 % 1025,4 hPa 0,0 l/m 3,6 km/h (1 Bft) S-SW 203 2 min 0,000 mm 0,9 UV-I 316 W/m 0,6 C 0,9 C 8,0 km/h (2 Bft) 100,00 %
19.02.2017 11:06 1,0 C 98 % 1025,4 hPa 0,0 l/m 5,3 km/h (1 Bft) S-SW 208 2 min 0,000 mm 0,8 UV-I 275 W/m 0,7 C 1,0 C 8,0 km/h (2 Bft) 97,87 %
19.02.2017 11:08 1,1 C 98 % 1025,4 hPa 0,0 l/m 3,1 km/h (1 Bft) S-SW 209 0 min 0,000 mm 0,8 UV-I 255 W/m 0,8 C 1,1 C 4,8 km/h (1 Bft) 92,00 %
19.02.2017 11:10 0,9 C 98 % 1025,4 hPa 0,0 l/m 1,2 km/h (1 Bft) S-SW 209 0 min 0,000 mm 0,8 UV-I 258 W/m 0,6 C 0,9 C 4,8 km/h (1 Bft) 100,00 %
19.02.2017 11:12 0,9 C 98 % 1025,4 hPa 0,0 l/m 1,5 km/h (1 Bft) S-SW 207 2 min 0,000 mm 0,8 UV-I 278 W/m 0,6 C 0,9 C 4,8 km/h (1 Bft) 98,00 %
19.02.2017 11:14 0,9 C 98 % 1025,4 hPa 0,0 l/m 2,5 km/h (1 Bft) S-SW 207 2 min 0,000 mm 0,8 UV-I 294 W/m 0,6 C 0,9 C 6,4 km/h (2 Bft) 94,00 %
19.02.2017 11:16 0,9 C 98 % 1025,4 hPa 0,0 l/m 2,1 km/h (1 Bft) S-SW 207 2 min 0,000 mm 0,9 UV-I 303 W/m 0,6 C 0,9 C 4,8 km/h (1 Bft) 100,00 %
19.02.2017 11:18 0,9 C 98 % 1025,3 hPa 0,0 l/m 3,1 km/h (1 Bft) S-SW 207 2 min 0,000 mm 0,9 UV-I 308 W/m 0,6 C 0,9 C 4,8 km/h (1 Bft) 98,00 %
19.02.2017 11:20 0,9 C 98 % 1025,4 hPa 0,0 l/m 2,4 km/h (1 Bft) W-SW 242 0 min 0,000 mm 0,8 UV-I 272 W/m 0,6 C 0,9 C 6,4 km/h (2 Bft) 96,00 %
19.02.2017 11:22 1,1 C 98 % 1025,3 hPa 0,0 l/m 3,3 km/h (1 Bft) W-SW 250 0 min 0,000 mm 0,8 UV-I 251 W/m 0,8 C 1,1 C 6,4 km/h (2 Bft) 95,74 %
19.02.2017 11:24 1,2 C 98 % 1025,4 hPa 0,0 l/m 3,4 km/h (1 Bft) W 268 0 min 0,000 mm 0,8 UV-I 256 W/m 0,9 C 1,2 C 6,4 km/h (2 Bft) 97,87 %
19.02.2017 11:26 1,3 C 98 % 1025,4 hPa 0,0 l/m 4,5 km/h (1 Bft) SW 236 0 min 0,000 mm 0,9 UV-I 273 W/m 1,0 C 1,3 C 6,4 km/h (2 Bft) 100,00 %
19.02.2017 11:28 1,3 C 98 % 1025,4 hPa 0,0 l/m 0,5 km/h (0 Bft) SW 236 0 min 0,000 mm 0,9 UV-I 275 W/m 1,0 C 1,3 C 1,6 km/h (1 Bft) 98,21 %
19.02.2017 11:30 1,2 C 98 % 1025,3 hPa 0,0 l/m 3,0 km/h (1 Bft) SW 236 2 min 0,000 mm 0,9 UV-I 284 W/m 0,9 C 1,2 C 4,8 km/h (1 Bft) 92,11 %
19.02.2017 11:32 1,2 C 98 % 1025,3 hPa 0,0 l/m 2,0 km/h (1 Bft) SW 236 0 min 0,000 mm 0,9 UV-I 269 W/m 0,9 C 1,2 C 4,8 km/h (1 Bft) 100,00 %
19.02.2017 11:34 1,2 C 98 % 1025,2 hPa 0,0 l/m 0,6 km/h (0 Bft) SW 236 0 min 0,000 mm 0,9 UV-I 255 W/m 0,9 C 1,2 C 3,2 km/h (1 Bft) 96,23 %
19.02.2017 11:36 1,1 C 98 % 1025,3 hPa 0,0 l/m 1,1 km/h (1 Bft) SW 220 2 min 0,000 mm 0,9 UV-I 282 W/m 0,8 C 1,1 C 4,8 km/h (1 Bft) 97,37 %
19.02.2017 11:38 1,2 C 98 % 1025,3 hPa 0,0 l/m 2,0 km/h (1 Bft) SW 220 2 min 0,000 mm 1,0 UV-I 302 W/m 0,9 C 1,2 C 3,2 km/h (1 Bft) 98,00 %
19.02.2017 11:40 1,3 C 98 % 1025,2 hPa 0,0 l/m 0,7 km/h (0 Bft) SW 220 2 min 0,000 mm 1,0 UV-I 290 W/m 1,0 C 1,3 C 1,6 km/h (1 Bft) 98,00 %
19.02.2017 11:42 1,4 C 98 % 1025,2 hPa 0,0 l/m 1,7 km/h (1 Bft) SW 220 0 min 0,000 mm 1,0 UV-I 276 W/m 1,1 C 1,4 C 4,8 km/h (1 Bft) 97,87 %
19.02.2017 11:44 1,5 C 98 % 1025,2 hPa 0,0 l/m 1,7 km/h (1 Bft) SW 220 0 min 0,000 mm 1,0 UV-I 274 W/m 1,2 C 1,5 C 4,8 km/h (1 Bft) 100,00 %
19.02.2017 11:46 1,6 C 98 % 1025,2 hPa 0,0 l/m 2,5 km/h (1 Bft) SW 220 2 min 0,000 mm 1,0 UV-I 292 W/m 1,3 C 1,6 C 3,2 km/h (1 Bft) 98,00 %
19.02.2017 11:48 1,5 C 98 % 1025,2 hPa 0,0 l/m 1,6 km/h (1 Bft) SW 220 2 min 0,000 mm 1,0 UV-I 300 W/m 1,2 C 1,5 C 3,2 km/h (1 Bft) 100,00 %
19.02.2017 11:50 1,4 C 97 % 1025,2 hPa 0,0 l/m 1,2 km/h (1 Bft) SW 220 2 min 0,000 mm 1,1 UV-I 307 W/m 1,0 C 1,4 C 3,2 km/h (1 Bft) 98,00 %
19.02.2017 11:52 1,4 C 97 % 1025,1 hPa 0,0 l/m 1,2 km/h (1 Bft) SW 220 2 min 0,000 mm 1,1 UV-I 308 W/m 1,0 C 1,4 C 3,2 km/h (1 Bft) 100,00 %
19.02.2017 11:54 1,6 C 97 % 1025,1 hPa 0,0 l/m 0,2 km/h (0 Bft) SW 220 2 min 0,000 mm 1,2 UV-I 331 W/m 1,2 C 1,6 C 1,6 km/h (1 Bft) 95,74 %
19.02.2017 11:56 1,7 C 97 % 1025,1 hPa 0,0 l/m 2,5 km/h (1 Bft) SW 220 2 min 0,000 mm 1,2 UV-I 355 W/m 1,3 C 1,7 C 4,8 km/h (1 Bft) 98,11 %
19.02.2017 11:58 1,7 C 97 % 1025,1 hPa 0,0 l/m 1,4 km/h (1 Bft) SW 220 2 min 0,000 mm 1,2 UV-I 436 W/m 1,3 C 1,7 C 4,8 km/h (1 Bft) 100,00 %
19.02.2017 12:00 1,8 C 97 % 1025,1 hPa 0,0 l/m 0,5 km/h (0 Bft) SW 226 2 min 0,000 mm 1,2 UV-I 502 W/m 1,4 C 1,8 C 3,2 km/h (1 Bft) 97,22 %
19.02.2017 12:02 2,1 C 97 % 1025,0 hPa 0,0 l/m 3,1 km/h (1 Bft) W-NW 296 2 min 0,101 mm 1,3 UV-I 543 W/m 1,7 C 2,1 C 6,4 km/h (2 Bft) 98,15 %
19.02.2017 12:04 2,3 C 97 % 1025,0 hPa 0,0 l/m 3,0 km/h (1 Bft) W-NW 290 2 min 0,000 mm 1,1 UV-I 380 W/m 1,9 C 2,3 C 4,8 km/h (1 Bft) 100,00 %
19.02.2017 12:06 2,2 C 96 % 1025,0 hPa 0,0 l/m 2,7 km/h (1 Bft) W-NW 294 2 min 0,000 mm 1,1 UV-I 330 W/m 1,6 C 2,2 C 6,4 km/h (2 Bft) 95,74 %
19.02.2017 12:08 2,3 C 96 % 1025,0 hPa 0,0 l/m 3,4 km/h (1 Bft) W-NW 287 2 min 0,000 mm 1,1 UV-I 354 W/m 1,7 C 2,3 C 6,4 km/h (2 Bft) 97,22 %
19.02.2017 12:10 2,3 C 95 % 1025,0 hPa 0,0 l/m 2,2 km/h (1 Bft) W-NW 284 2 min 0,000 mm 1,0 UV-I 369 W/m 1,6 C 2,3 C 4,8 km/h (1 Bft) 98,11 %
19.02.2017 12:12 2,2 C 95 % 1025,0 hPa 0,0 l/m 3,4 km/h (1 Bft) W 262 2 min 0,000 mm 1,0 UV-I 344 W/m 1,5 C 2,2 C 4,8 km/h (1 Bft) 100,00 %
19.02.2017 12:14 2,2 C 95 % 1024,9 hPa 0,0 l/m 3,5 km/h (1 Bft) W 263 2 min 0,000 mm 0,8 UV-I 291 W/m 1,5 C 2,2 C 6,4 km/h (2 Bft) 95,74 %
19.02.2017 12:16 2,3 C 95 % 1024,9 hPa 0,0 l/m 1,8 km/h (1 Bft) W-NW 292 0 min 0,000 mm 0,8 UV-I 259 W/m 1,6 C 2,3 C 4,8 km/h (1 Bft) 97,37 %
19.02.2017 12:18 2,2 C 95 % 1024,9 hPa 0,0 l/m 2,5 km/h (1 Bft) W-NW 296 0 min 0,000 mm 0,8 UV-I 250 W/m 1,5 C 2,2 C 6,4 km/h (2 Bft) 94,00 %
19.02.2017 12:20 2,2 C 95 % 1024,9 hPa 0,0 l/m 3,4 km/h (1 Bft) W-NW 294 0 min 0,000 mm 0,8 UV-I 245 W/m 1,5 C 2,2 C 4,8 km/h (1 Bft) 97,56 %
19.02.2017 12:22 2,2 C 95 % 1024,9 hPa 0,0 l/m 0,7 km/h (0 Bft) W-NW 294 0 min 0,000 mm 0,8 UV-I 261 W/m 1,5 C 2,2 C 3,2 km/h (1 Bft) 97,87 %
19.02.2017 12:24 2,2 C 95 % 1024,9 hPa 0,0 l/m 3,0 km/h (1 Bft) W 265 0 min 0,000 mm 0,9 UV-I 263 W/m 1,5 C 2,2 C 6,4 km/h (2 Bft) 95,74 %
19.02.2017 12:26 2,2 C 95 % 1024,8 hPa 0,0 l/m 2,9 km/h (1 Bft) W 268 0 min 0,000 mm 0,9 UV-I 259 W/m 1,5 C 2,2 C 4,8 km/h (1 Bft) 94,34 %
19.02.2017 12:28 2,2 C 95 % 1024,9 hPa 0,0 l/m 1,9 km/h (1 Bft) W-NW 286 0 min 0,000 mm 0,9 UV-I 264 W/m 1,5 C 2,2 C 4,8 km/h (1 Bft) 97,37 %
19.02.2017 12:30 2,2 C 95 % 1024,9 hPa 0,0 l/m 1,7 km/h (1 Bft) W-NW 300 0 min 0,000 mm 0,9 UV-I 256 W/m 1,5 C 2,2 C 4,8 km/h (1 Bft) 96,23 %
19.02.2017 12:32 2,2 C 95 % 1024,9 hPa 0,0 l/m 3,6 km/h (1 Bft) W 267 0 min 0,000 mm 0,9 UV-I 246 W/m 1,5 C 2,2 C 4,8 km/h (1 Bft) 94,00 %
19.02.2017 12:34 2,1 C 94 % 1024,9 hPa 0,0 l/m 2,1 km/h (1 Bft) W 267 0 min 0,000 mm 0,9 UV-I 262 W/m 1,2 C 2,1 C 4,8 km/h (1 Bft) 95,74 %
19.02.2017 12:36 2,1 C 94 % 1024,8 hPa 0,0 l/m 3,0 km/h (1 Bft) W-NW 289 0 min 0,000 mm 0,9 UV-I 254 W/m 1,2 C 2,1 C 6,4 km/h (2 Bft) 96,00 %
19.02.2017 12:38 2,1 C 94 % 1024,8 hPa 0,0 l/m 1,9 km/h (1 Bft) W-NW 286 0 min 0,000 mm 0,9 UV-I 225 W/m 1,2 C 2,1 C 6,4 km/h (2 Bft) 97,87 %
19.02.2017 12:40 2,1 C 94 % 1024,8 hPa 0,0 l/m 2,8 km/h (1 Bft) W-NW 298 0 min 0,000 mm 0,9 UV-I 223 W/m 1,2 C 2,1 C 6,4 km/h (2 Bft) 97,73 %
19.02.2017 12:42 2,1 C 94 % 1024,8 hPa 0,0 l/m 1,2 km/h (1 Bft) W-NW 298 0 min 0,000 mm 1,0 UV-I 242 W/m 1,2 C 2,1 C 3,2 km/h (1 Bft) 94,00 %
19.02.2017 12:44 2,0 C 94 % 1024,8 hPa 0,0 l/m 1,3 km/h (1 Bft) W-NW 298 0 min 0,000 mm 1,1 UV-I 257 W/m 1,1 C 2,0 C 3,2 km/h (1 Bft) 97,62 %
19.02.2017 12:46 2,0 C 94 % 1024,8 hPa 0,0 l/m 1,0 km/h (0 Bft) W-NW 298 2 min 0,000 mm 1,2 UV-I 345 W/m 1,1 C 2,0 C 3,2 km/h (1 Bft) 94,74 %
19.02.2017 12:48 2,2 C 94 % 1024,7 hPa 0,0 l/m 0,2 km/h (0 Bft) W-NW 298 2 min 0,000 mm 1,3 UV-I 413 W/m 1,3 C 2,2 C 1,6 km/h (1 Bft) 96,36 %
19.02.2017 12:50 2,4 C 94 % 1024,7 hPa 0,0 l/m 0,7 km/h (0 Bft) W-NW 300 2 min 0,000 mm 1,3 UV-I 478 W/m 1,5 C 2,4 C 3,2 km/h (1 Bft) 96,00 %
19.02.2017 12:52 2,5 C 94 % 1024,7 hPa 0,0 l/m 0,4 km/h (0 Bft) W-NW 300 2 min 0,000 mm 1,2 UV-I 400 W/m 1,6 C 2,5 C 1,6 km/h (1 Bft) 97,87 %
19.02.2017 12:54 2,6 C 93 % 1024,6 hPa 0,0 l/m 0,9 km/h (0 Bft) W-NW 300 2 min 0,000 mm 1,4 UV-I 460 W/m 1,6 C 2,6 C 1,6 km/h (1 Bft) 96,00 %
19.02.2017 12:56 2,9 C 94 % 1024,5 hPa 0,0 l/m 1,6 km/h (1 Bft) NW 323 2 min 0,000 mm 1,4 UV-I 592 W/m 2,0 C 2,9 C 4,8 km/h (1 Bft) 93,75 %
19.02.2017 12:58 3,1 C 93 % 1024,5 hPa 0,0 l/m 2,6 km/h (1 Bft) N-NW 339 2 min 0,000 mm 1,4 UV-I 633 W/m 2,1 C 3,1 C 4,8 km/h (1 Bft) 98,00 %
19.02.2017 13:00 3,2 C 92 % 1024,5 hPa 0,0 l/m 2,5 km/h (1 Bft) N 9 2 min 0,127 mm 1,3 UV-I 504 W/m 2,0 C 3,2 C 4,8 km/h (1 Bft) 94,00 %
19.02.2017 13:02 3,2 C 91 % 1024,5 hPa 0,0 l/m 2,6 km/h (1 Bft) N 9 2 min 0,000 mm 1,3 UV-I 428 W/m 1,9 C 3,2 C 4,8 km/h (1 Bft) 100,00 %
19.02.2017 13:04 3,2 C 91 % 1024,4 hPa 0,0 l/m 1,4 km/h (1 Bft) N 9 2 min 0,000 mm 1,4 UV-I 521 W/m 1,9 C 3,2 C 3,2 km/h (1 Bft) 100,00 %
19.02.2017 13:06 3,3 C 92 % 1024,4 hPa 0,0 l/m 1,0 km/h (0 Bft) NW 317 2 min 0,000 mm 1,4 UV-I 660 W/m 2,1 C 3,3 C 3,2 km/h (1 Bft) 100,00 %
19.02.2017 13:08 3,4 C 91 % 1024,4 hPa 0,0 l/m 2,0 km/h (1 Bft) NW 308 2 min 0,000 mm 1,5 UV-I 565 W/m 2,1 C 3,4 C 4,8 km/h (1 Bft) 100,00 %
19.02.2017 13:10 3,6 C 91 % 1024,4 hPa 0,0 l/m 2,8 km/h (1 Bft) W-NW 286 2 min 0,000 mm 1,4 UV-I 629 W/m 2,3 C 3,6 C 6,4 km/h (2 Bft) 100,00 %
19.02.2017 13:12 3,6 C 91 % 1024,3 hPa 0,0 l/m 1,4 km/h (1 Bft) NW 306 2 min 0,000 mm 1,3 UV-I 506 W/m 2,3 C 3,6 C 3,2 km/h (1 Bft) 100,00 %
19.02.2017 13:14 3,5 C 90 % 1024,4 hPa 0,0 l/m 2,5 km/h (1 Bft) NW 306 2 min 0,000 mm 1,2 UV-I 449 W/m 2,0 C 3,5 C 6,4 km/h (2 Bft) 100,00 %
19.02.2017 13:16 3,4 C 90 % 1024,4 hPa 0,0 l/m 2,0 km/h (1 Bft) N-NW 327 2 min 0,000 mm 1,2 UV-I 395 W/m 1,9 C 3,4 C 4,8 km/h (1 Bft) 97,37 %
19.02.2017 13:18 3,3 C 90 % 1024,3 hPa 0,0 l/m 0,8 km/h (0 Bft) NW 325 2 min 0,000 mm 1,1 UV-I 337 W/m 1,8 C 3,3 C 3,2 km/h (1 Bft) 100,00 %
19.02.2017 13:20 3,3 C 91 % 1024,3 hPa 0,0 l/m 1,0 km/h (0 Bft) N-NW 327 2 min 0,000 mm 1,1 UV-I 325 W/m 2,0 C 3,3 C 3,2 km/h (1 Bft) 100,00 %
19.02.2017 13:22 3,3 C 91 % 1024,2 hPa 0,0 l/m 3,0 km/h (1 Bft) W-SW 257 0 min 0,000 mm 1,1 UV-I 266 W/m 2,0 C 3,3 C 4,8 km/h (1 Bft) 100,00 %
19.02.2017 13:24 3,4 C 90 % 1024,2 hPa 0,0 l/m 6,8 km/h (2 Bft) W 279 0 min 0,000 mm 1,2 UV-I 269 W/m 1,9 C 3,0 C 11,3 km/h (2 Bft) 93,18 %
19.02.2017 13:26 3,5 C 90 % 1024,2 hPa 0,0 l/m 6,6 km/h (2 Bft) W 261 2 min 0,000 mm 1,2 UV-I 312 W/m 2,0 C 3,3 C 11,3 km/h (2 Bft) 100,00 %
19.02.2017 13:28 3,7 C 89 % 1024,2 hPa 0,0 l/m 1,8 km/h (1 Bft) W 267 2 min 0,000 mm 1,2 UV-I 578 W/m 2,1 C 3,7 C 4,8 km/h (1 Bft) 100,00 %
19.02.2017 13:30 3,8 C 88 % 1024,2 hPa 0,0 l/m 3,9 km/h (1 Bft) W 259 2 min 0,000 mm 1,2 UV-I 584 W/m 2,0 C 3,8 C 9,7 km/h (2 Bft) 95,59 %
19.02.2017 13:32 3,6 C 87 % 1024,1 hPa 0,0 l/m 4,1 km/h (1 Bft) W 264 2 min 0,000 mm 1,0 UV-I 293 W/m 1,6 C 3,6 C 6,4 km/h (2 Bft) 100,00 %
19.02.2017 13:34 3,4 C 87 % 1024,2 hPa 0,0 l/m 2,3 km/h (1 Bft) W 264 0 min 0,000 mm 1,0 UV-I 231 W/m 1,4 C 3,4 C 4,8 km/h (1 Bft) 97,37 %
19.02.2017 13:36 3,3 C 88 % 1024,1 hPa 0,0 l/m 2,1 km/h (1 Bft) W 264 0 min 0,000 mm 1,0 UV-I 230 W/m 1,5 C 3,3 C 4,8 km/h (1 Bft) 100,00 %
19.02.2017 13:38 3,4 C 89 % 1024,1 hPa 0,0 l/m 3,4 km/h (1 Bft) W 269 0 min 0,000 mm 1,0 UV-I 245 W/m 1,8 C 3,4 C 4,8 km/h (1 Bft) 100,00 %
19.02.2017 13:40 3,4 C 89 % 1024,1 hPa 0,0 l/m 6,6 km/h (2 Bft) W 273 2 min 0,000 mm 1,1 UV-I 269 W/m 1,8 C 3,2 C 9,7 km/h (2 Bft) 100,00 %
19.02.2017 13:42 3,4 C 89 % 1024,1 hPa 0,0 l/m 2,7 km/h (1 Bft) NW 322 2 min 0,000 mm 1,1 UV-I 316 W/m 1,8 C 3,4 C 4,8 km/h (1 Bft) 97,87 %
19.02.2017 13:44 3,6 C 90 % 1024,1 hPa 0,0 l/m 1,8 km/h (1 Bft) NW 304 2 min 0,000 mm 1,1 UV-I 307 W/m 2,1 C 3,6 C 4,8 km/h (1 Bft) 98,00 %
19.02.2017 13:46 3,6 C 89 % 1024,1 hPa 0,0 l/m 1,2 km/h (1 Bft) NW 310 0 min 0,000 mm 1,0 UV-I 228 W/m 2,0 C 3,6 C 4,8 km/h (1 Bft) 94,00 %
19.02.2017 13:48 3,4 C 88 % 1024,0 hPa 0,0 l/m 1,3 km/h (1 Bft) NW 317 0 min 0,000 mm 1,0 UV-I 251 W/m 1,6 C 3,4 C 3,2 km/h (1 Bft) 98,00 %
19.02.2017 13:50 3,4 C 89 % 1024,0 hPa 0,0 l/m 3,1 km/h (1 Bft) W 274 2 min 0,000 mm 1,2 UV-I 359 W/m 1,8 C 3,4 C 6,4 km/h (2 Bft) 97,37 %
19.02.2017 13:52 3,7 C 89 % 1023,9 hPa 0,0 l/m 1,1 km/h (1 Bft) W 274 2 min 0,000 mm 1,1 UV-I 482 W/m 2,1 C 3,7 C 3,2 km/h (1 Bft) 96,23 %
19.02.2017 13:54 3,8 C 89 % 1023,9 hPa 0,0 l/m 0,3 km/h (0 Bft) W 274 2 min 0,000 mm 1,1 UV-I 478 W/m 2,2 C 3,8 C 1,6 km/h (1 Bft) 97,87 %
19.02.2017 13:56 3,8 C 88 % 1023,8 hPa 0,0 l/m 3,0 km/h (1 Bft) W 271 2 min 0,000 mm 1,1 UV-I 492 W/m 2,0 C 3,8 C 6,4 km/h (2 Bft) 97,87 %
19.02.2017 13:58 3,7 C 87 % 1023,8 hPa 0,0 l/m 1,6 km/h (1 Bft) W 271 2 min 0,000 mm 1,1 UV-I 467 W/m 1,7 C 3,7 C 3,2 km/h (1 Bft) 100,00 %
19.02.2017 14:00 3,9 C 88 % 1023,7 hPa 0,0 l/m 1,8 km/h (1 Bft) W 271 2 min 0,000 mm 1,1 UV-I 459 W/m 2,1 C 3,9 C 3,2 km/h (1 Bft) 98,11 %
19.02.2017 14:02 4,0 C 87 % 1023,6 hPa 0,0 l/m 0,4 km/h (0 Bft) W 274 2 min 0,153 mm 1,1 UV-I 456 W/m 2,0 C 4,0 C 1,6 km/h (1 Bft) 97,22 %
19.02.2017 14:04 4,1 C 87 % 1023,6 hPa 0,0 l/m 1,9 km/h (1 Bft) NW 317 2 min 0,000 mm 1,1 UV-I 439 W/m 2,1 C 4,1 C 4,8 km/h (1 Bft) 96,30 %
19.02.2017 14:06 3,9 C 87 % 1023,5 hPa 0,0 l/m 0,9 km/h (0 Bft) N-NW 348 2 min 0,000 mm 1,1 UV-I 446 W/m 1,9 C 3,9 C 3,2 km/h (1 Bft) 97,67 %
19.02.2017 14:08 3,9 C 87 % 1023,5 hPa 0,0 l/m 2,4 km/h (1 Bft) N-NW 348 2 min 0,000 mm 1,0 UV-I 431 W/m 1,9 C 3,9 C 4,8 km/h (1 Bft) 100,00 %
19.02.2017 14:10 4,0 C 88 % 1023,5 hPa 0,0 l/m 1,6 km/h (1 Bft) N-NW 348 2 min 0,000 mm 1,0 UV-I 430 W/m 2,2 C 4,0 C 3,2 km/h (1 Bft) 98,00 %
19.02.2017 14:12 4,0 C 87 % 1023,5 hPa 0,0 l/m 0,9 km/h (0 Bft) N 350 2 min 0,000 mm 1,0 UV-I 427 W/m 2,0 C 4,0 C 3,2 km/h (1 Bft) 100,00 %
19.02.2017 14:14 4,0 C 88 % 1023,4 hPa 0,0 l/m 2,3 km/h (1 Bft) NW 316 2 min 0,000 mm 1,0 UV-I 425 W/m 2,2 C 4,0 C 4,8 km/h (1 Bft) 94,34 %
19.02.2017 14:16 4,0 C 87 % 1023,4 hPa 0,0 l/m 1,1 km/h (1 Bft) NW 316 2 min 0,000 mm 1,0 UV-I 427 W/m 2,0 C 4,0 C 3,2 km/h (1 Bft) 94,00 %
19.02.2017 14:18 4,1 C 87 % 1023,4 hPa 0,0 l/m 1,2 km/h (1 Bft) NW 316 2 min 0,000 mm 1,0 UV-I 423 W/m 2,1 C 4,1 C 3,2 km/h (1 Bft) 97,56 %
19.02.2017 14:20 4,1 C 87 % 1023,4 hPa 0,0 l/m 1,1 km/h (1 Bft) NW 316 2 min 0,000 mm 0,9 UV-I 420 W/m 2,1 C 4,1 C 3,2 km/h (1 Bft) 94,00 %
19.02.2017 14:22 4,1 C 87 % 1023,4 hPa 0,0 l/m 0,8 km/h (0 Bft) N-NW 332 2 min 0,000 mm 0,9 UV-I 412 W/m 2,1 C 4,1 C 1,6 km/h (1 Bft) 97,56 %
19.02.2017 14:24 4,1 C 87 % 1023,3 hPa 0,0 l/m 2,2 km/h (1 Bft) W-NW 298 2 min 0,000 mm 0,9 UV-I 402 W/m 2,1 C 4,1 C 4,8 km/h (1 Bft) 96,23 %
19.02.2017 14:26 4,2 C 87 % 1023,3 hPa 0,0 l/m 3,1 km/h (1 Bft) W-NW 287 2 min 0,000 mm 0,9 UV-I 402 W/m 2,2 C 4,2 C 8,0 km/h (2 Bft) 92,11 %
19.02.2017 14:28 4,1 C 87 % 1023,4 hPa 0,0 l/m 4,0 km/h (1 Bft) W-NW 295 2 min 0,000 mm 0,9 UV-I 397 W/m 2,1 C 4,1 C 6,4 km/h (2 Bft) 98,11 %
19.02.2017 14:30 4,1 C 87 % 1023,3 hPa 0,0 l/m 1,2 km/h (1 Bft) W-NW 287 2 min 0,000 mm 0,9 UV-I 393 W/m 2,1 C 4,1 C 6,4 km/h (2 Bft) 98,00 %
19.02.2017 14:33 4,3 C 89 % 1023,3 hPa 0,0 l/m 1,9 km/h (1 Bft) W-NW 300 3 min 0,000 mm 0,8 UV-I 390 W/m 2,7 C 4,3 C 4,8 km/h (1 Bft) 97,30 %
19.02.2017 14:34 4,3 C 87 % 1023,3 hPa 0,0 l/m 2,1 km/h (1 Bft) W-NW 300 1 min 0,000 mm 0,8 UV-I 382 W/m 2,3 C 4,3 C 3,2 km/h (1 Bft) 100,00 %
19.02.2017 14:36 4,3 C 87 % 1023,3 hPa 0,0 l/m 3,1 km/h (1 Bft) NW 306 2 min 0,000 mm 0,8 UV-I 377 W/m 2,3 C 4,3 C 4,8 km/h (1 Bft) 96,23 %
19.02.2017 14:38 4,2 C 87 % 1023,3 hPa 0,0 l/m 1,2 km/h (1 Bft) NW 306 2 min 0,000 mm 0,8 UV-I 366 W/m 2,2 C 4,2 C 3,2 km/h (1 Bft) 96,00 %
19.02.2017 14:40 4,2 C 87 % 1023,2 hPa 0,0 l/m 1,4 km/h (1 Bft) W-NW 298 2 min 0,000 mm 0,8 UV-I 359 W/m 2,2 C 4,2 C 3,2 km/h (1 Bft) 97,56 %
19.02.2017 14:42 4,2 C 87 % 1023,1 hPa 0,0 l/m 2,7 km/h (1 Bft) NW 309 2 min 0,000 mm 0,8 UV-I 357 W/m 2,2 C 4,2 C 4,8 km/h (1 Bft) 97,92 %
19.02.2017 14:44 4,2 C 87 % 1023,1 hPa 0,0 l/m 3,6 km/h (1 Bft) NW 309 2 min 0,000 mm 0,7 UV-I 352 W/m 2,2 C 4,2 C 4,8 km/h (1 Bft) 97,56 %
19.02.2017 14:46 4,1 C 87 % 1023,1 hPa 0,0 l/m 2,5 km/h (1 Bft) N-NW 329 2 min 0,000 mm 0,7 UV-I 329 W/m 2,1 C 4,1 C 4,8 km/h (1 Bft) 100,00 %
19.02.2017 14:48 4,2 C 87 % 1023,1 hPa 0,0 l/m 2,6 km/h (1 Bft) NW 326 2 min 0,000 mm 0,7 UV-I 325 W/m 2,2 C 4,2 C 6,4 km/h (2 Bft) 100,00 %
19.02.2017 14:50 4,2 C 87 % 1023,1 hPa 0,0 l/m 2,3 km/h (1 Bft) N-NW 335 2 min 0,000 mm 0,7 UV-I 344 W/m 2,2 C 4,2 C 6,4 km/h (2 Bft) 100,00 %
19.02.2017 14:52 4,1 C 87 % 1023,1 hPa 0,0 l/m 2,2 km/h (1 Bft) NW 311 2 min 0,000 mm 0,7 UV-I 331 W/m 2,1 C 4,1 C 4,8 km/h (1 Bft) 100,00 %
19.02.2017 14:54 4,1 C 87 % 1023,1 hPa 0,0 l/m 1,1 km/h (1 Bft) NW 315 2 min 0,000 mm 0,7 UV-I 334 W/m 2,1 C 4,1 C 4,8 km/h (1 Bft) 98,21 %
19.02.2017 14:56 4,2 C 88 % 1023,0 hPa 0,0 l/m 2,9 km/h (1 Bft) W-NW 303 2 min 0,000 mm 0,6 UV-I 325 W/m 2,4 C 4,2 C 6,4 km/h (2 Bft) 97,87 %
19.02.2017 14:58 4,2 C 88 % 1023,1 hPa 0,0 l/m 4,2 km/h (1 Bft) W-NW 300 2 min 0,000 mm 0,6 UV-I 320 W/m 2,4 C 4,2 C 8,0 km/h (2 Bft) 98,00 %
19.02.2017 15:00 4,2 C 88 % 1023,1 hPa 0,0 l/m 2,9 km/h (1 Bft) NW 318 2 min 0,152 mm 0,6 UV-I 319 W/m 2,4 C 4,2 C 4,8 km/h (1 Bft) 97,56 %
19.02.2017 15:02 4,2 C 88 % 1023,2 hPa 0,0 l/m 3,9 km/h (1 Bft) W-NW 303 2 min 0,000 mm 0,6 UV-I 304 W/m 2,4 C 4,2 C 8,0 km/h (2 Bft) 97,87 %
19.02.2017 15:04 4,2 C 88 % 1023,1 hPa 0,0 l/m 2,1 km/h (1 Bft) NW 305 2 min 0,000 mm 0,6 UV-I 303 W/m 2,4 C 4,2 C 4,8 km/h (1 Bft) 98,00 %
19.02.2017 15:06 4,2 C 89 % 1023,1 hPa 0,0 l/m 1,9 km/h (1 Bft) NW 326 2 min 0,000 mm 0,6 UV-I 300 W/m 2,6 C 4,2 C 4,8 km/h (1 Bft) 95,12 %
19.02.2017 15:08 4,1 C 88 % 1023,1 hPa 0,0 l/m 2,7 km/h (1 Bft) NW 321 2 min 0,000 mm 0,6 UV-I 299 W/m 2,3 C 4,1 C 6,4 km/h (2 Bft) 98,00 %
19.02.2017 15:10 4,2 C 89 % 1023,1 hPa 0,0 l/m 4,6 km/h (1 Bft) NW 314 2 min 0,000 mm 0,5 UV-I 295 W/m 2,6 C 4,2 C 9,7 km/h (2 Bft) 98,00 %
19.02.2017 15:12 4,1 C 88 % 1023,1 hPa 0,0 l/m 1,9 km/h (1 Bft) NW 309 2 min 0,000 mm 0,5 UV-I 291 W/m 2,3 C 4,1 C 6,4 km/h (2 Bft) 97,37 %
19.02.2017 15:14 4,0 C 88 % 1023,0 hPa 0,0 l/m 3,0 km/h (1 Bft) NW 308 2 min 0,000 mm 0,5 UV-I 286 W/m 2,2 C 4,0 C 6,4 km/h (2 Bft) 98,00 %
19.02.2017 15:16 4,0 C 88 % 1022,9 hPa 0,0 l/m 3,1 km/h (1 Bft) NW 309 2 min 0,000 mm 0,5 UV-I 277 W/m 2,2 C 4,0 C 6,4 km/h (2 Bft) 95,92 %
19.02.2017 15:18 3,9 C 88 % 1022,9 hPa 0,0 l/m 1,6 km/h (1 Bft) NW 309 2 min 0,000 mm 0,5 UV-I 279 W/m 2,1 C 3,9 C 3,2 km/h (1 Bft) 98,00 %
19.02.2017 15:20 3,8 C 89 % 1022,9 hPa 0,0 l/m 1,8 km/h (1 Bft) NW 306 2 min 0,000 mm 0,5 UV-I 272 W/m 2,2 C 3,8 C 4,8 km/h (1 Bft) 97,87 %
19.02.2017 15:22 3,9 C 89 % 1022,9 hPa 0,0 l/m 1,4 km/h (1 Bft) W-NW 300 2 min 0,000 mm 0,5 UV-I 266 W/m 2,3 C 3,9 C 4,8 km/h (1 Bft) 97,87 %
19.02.2017 15:24 3,9 C 89 % 1022,9 hPa 0,0 l/m 2,7 km/h (1 Bft) W-NW 300 2 min 0,000 mm 0,1 UV-I 264 W/m 2,3 C 3,9 C 4,8 km/h (1 Bft) 95,74 %
19.02.2017 15:26 3,9 C 89 % 1022,9 hPa 0,0 l/m 1,6 km/h (1 Bft) W-NW 298 2 min 0,000 mm 0,0 UV-I 262 W/m 2,3 C 3,9 C 4,8 km/h (1 Bft) 97,44 %
19.02.2017 15:28 3,9 C 89 % 1022,9 hPa 0,0 l/m 0,9 km/h (0 Bft) NW 321 2 min 0,000 mm 0,0 UV-I 255 W/m 2,3 C 3,9 C 3,2 km/h (1 Bft) 97,87 %
19.02.2017 15:30 3,9 C 89 % 1022,8 hPa 0,0 l/m 3,5 km/h (1 Bft) NW 307 2 min 0,000 mm 0,0 UV-I 251 W/m 2,3 C 3,9 C 6,4 km/h (2 Bft) 98,11 %
19.02.2017 15:32 3,9 C 88 % 1022,8 hPa 0,0 l/m 1,2 km/h (1 Bft) NW 326 2 min 0,000 mm 0,0 UV-I 249 W/m 2,1 C 3,9 C 4,8 km/h (1 Bft) 97,56 %
19.02.2017 15:34 3,9 C 89 % 1022,8 hPa 0,0 l/m 2,0 km/h (1 Bft) NW 322 2 min 0,000 mm 0,0 UV-I 243 W/m 2,3 C 3,9 C 4,8 km/h (1 Bft) 96,23 %
19.02.2017 15:36 3,9 C 89 % 1022,9 hPa 0,0 l/m 0,5 km/h (0 Bft) NW 322 2 min 0,000 mm 0,0 UV-I 233 W/m 2,3 C 3,9 C 3,2 km/h (1 Bft) 95,74 %
19.02.2017 15:38 3,8 C 88 % 1022,8 hPa 0,0 l/m 0,7 km/h (0 Bft) NW 322 2 min 0,000 mm 0,0 UV-I 228 W/m 2,0 C 3,8 C 1,6 km/h (1 Bft) 100,00 %
19.02.2017 15:40 3,8 C 88 % 1022,8 hPa 0,0 l/m 1,3 km/h (1 Bft) N-NW 338 2 min 0,000 mm 0,0 UV-I 221 W/m 2,0 C 3,8 C 4,8 km/h (1 Bft) 94,00 %
19.02.2017 15:42 3,8 C 88 % 1022,8 hPa 0,0 l/m 0,3 km/h (0 Bft) N-NW 336 2 min 0,000 mm 0,0 UV-I 218 W/m 2,0 C 3,8 C 1,6 km/h (1 Bft) 96,00 %
19.02.2017 15:44 3,8 C 88 % 1022,7 hPa 0,0 l/m 1,2 km/h (1 Bft) N 355 2 min 0,000 mm 0,0 UV-I 213 W/m 2,0 C 3,8 C 3,2 km/h (1 Bft) 98,00 %
19.02.2017 15:46 3,8 C 89 % 1022,8 hPa 0,0 l/m 0,4 km/h (0 Bft) N-NW 348 2 min 0,000 mm 0,0 UV-I 210 W/m 2,2 C 3,8 C 1,6 km/h (1 Bft) 97,14 %
19.02.2017 15:48 3,8 C 89 % 1022,8 hPa 0,0 l/m 0,3 km/h (0 Bft) N-NW 348 2 min 0,000 mm 0,0 UV-I 207 W/m 2,2 C 3,8 C 1,6 km/h (1 Bft) 98,21 %
19.02.2017 15:50 3,8 C 89 % 1022,7 hPa 0,0 l/m 1,4 km/h (1 Bft) N-NW 327 2 min 0,000 mm 0,0 UV-I 203 W/m 2,2 C 3,8 C 4,8 km/h (1 Bft) 98,00 %
19.02.2017 15:52 3,8 C 88 % 1022,8 hPa 0,0 l/m 2,3 km/h (1 Bft) NW 309 2 min 0,000 mm 0,0 UV-I 199 W/m 2,0 C 3,8 C 4,8 km/h (1 Bft) 97,37 %
19.02.2017 15:54 3,8 C 88 % 1022,8 hPa 0,0 l/m 4,0 km/h (1 Bft) NW 321 2 min 0,000 mm 0,0 UV-I 195 W/m 2,0 C 3,8 C 6,4 km/h (2 Bft) 96,23 %
19.02.2017 15:56 3,7 C 88 % 1022,7 hPa 0,0 l/m 2,2 km/h (1 Bft) NW 306 2 min 0,000 mm 0,0 UV-I 194 W/m 1,9 C 3,7 C 3,2 km/h (1 Bft) 98,00 %
19.02.2017 15:58 3,7 C 88 % 1022,7 hPa 0,0 l/m 2,9 km/h (1 Bft) NW 307 2 min 0,000 mm 0,0 UV-I 187 W/m 1,9 C 3,7 C 4,8 km/h (1 Bft) 95,74 %
19.02.2017 16:00 3,7 C 88 % 1022,6 hPa 0,0 l/m 0,4 km/h (0 Bft) NW 307 2 min 0,000 mm 0,0 UV-I 182 W/m 1,9 C 3,7 C 3,2 km/h (1 Bft) 100,00 %
19.02.2017 16:02 3,7 C 88 % 1022,6 hPa 0,0 l/m 0,3 km/h (0 Bft) NW 307 2 min 0,102 mm 0,0 UV-I 178 W/m 1,9 C 3,7 C 1,6 km/h (1 Bft) 95,74 %
19.02.2017 16:04 3,7 C 88 % 1022,6 hPa 0,0 l/m 0,4 km/h (0 Bft) NW 307 2 min 0,000 mm 0,0 UV-I 172 W/m 1,9 C 3,7 C 1,6 km/h (1 Bft) 98,00 %
19.02.2017 16:06 3,7 C 88 % 1022,6 hPa 0,0 l/m 1,9 km/h (1 Bft) NW 309 2 min 0,000 mm 0,0 UV-I 162 W/m 1,9 C 3,7 C 4,8 km/h (1 Bft) 98,00 %
19.02.2017 16:08 3,7 C 88 % 1022,6 hPa 0,0 l/m 1,7 km/h (1 Bft) NW 309 2 min 0,000 mm 0,0 UV-I 152 W/m 1,9 C 3,7 C 3,2 km/h (1 Bft) 97,37 %
19.02.2017 16:10 3,7 C 88 % 1022,6 hPa 0,0 l/m 1,0 km/h (0 Bft) NW 309 2 min 0,000 mm 0,0 UV-I 150 W/m 1,9 C 3,7 C 1,6 km/h (1 Bft) 98,00 %
19.02.2017 16:12 3,7 C 89 % 1022,5 hPa 0,0 l/m 0,6 km/h (0 Bft) NW 309 2 min 0,000 mm 0,0 UV-I 148 W/m 2,1 C 3,7 C 1,6 km/h (1 Bft) 94,00 %
19.02.2017 16:14 3,7 C 89 % 1022,4 hPa 0,0 l/m 0,3 km/h (0 Bft) NW 309 2 min 0,000 mm 0,0 UV-I 146 W/m 2,1 C 3,7 C 1,6 km/h (1 Bft) 96,00 %
19.02.2017 16:16 3,7 C 89 % 1022,3 hPa 0,0 l/m 0,3 km/h (0 Bft) NW 309 2 min 0,000 mm 0,0 UV-I 144 W/m 2,1 C 3,7 C 1,6 km/h (1 Bft) 94,74 %
19.02.2017 16:18 3,7 C 89 % 1022,2 hPa 0,0 l/m 0,3 km/h (0 Bft) NW 309 2 min 0,000 mm 0,0 UV-I 138 W/m 2,1 C 3,7 C 1,6 km/h (1 Bft) 98,00 %
19.02.2017 16:20 3,7 C 89 % 1022,2 hPa 0,0 l/m 0,5 km/h (0 Bft) NW 309 2 min 0,000 mm 0,0 UV-I 134 W/m 2,1 C 3,7 C 1,6 km/h (1 Bft) 93,62 %
19.02.2017 16:22 3,6 C 89 % 1022,2 hPa 0,0 l/m 0,5 km/h (0 Bft) NW 309 2 min 0,000 mm 0,0 UV-I 129 W/m 2,0 C 3,6 C 1,6 km/h (1 Bft) 95,74 %
19.02.2017 16:24 3,7 C 89 % 1022,2 hPa 0,0 l/m 0,7 km/h (0 Bft) NW 309 2 min 0,000 mm 0,0 UV-I 121 W/m 2,1 C 3,7 C 1,6 km/h (1 Bft) 98,11 %
19.02.2017 16:26 3,7 C 89 % 1022,3 hPa 0,0 l/m 0,6 km/h (0 Bft) NW 309 2 min 0,000 mm 0,0 UV-I 118 W/m 2,1 C 3,7 C 3,2 km/h (1 Bft) 97,37 %
19.02.2017 16:28 3,7 C 89 % 1022,3 hPa 0,0 l/m 1,9 km/h (1 Bft) NW 309 2 min 0,000 mm 0,0 UV-I 112 W/m 2,1 C 3,7 C 3,2 km/h (1 Bft) 98,11 %
19.02.2017 16:30 3,7 C 89 % 1022,2 hPa 0,0 l/m 1,7 km/h (1 Bft) NW 309 2 min 0,000 mm 0,0 UV-I 105 W/m 2,1 C 3,7 C 3,2 km/h (1 Bft) 96,00 %
19.02.2017 16:32 3,7 C 88 % 1022,2 hPa 0,0 l/m 1,3 km/h (1 Bft) NW 309 2 min 0,000 mm 0,0 UV-I 106 W/m 1,9 C 3,7 C 3,2 km/h (1 Bft) 97,14 %
19.02.2017 16:34 3,7 C 89 % 1022,2 hPa 0,0 l/m 1,4 km/h (1 Bft) NW 309 2 min 0,000 mm 0,0 UV-I 102 W/m 2,1 C 3,7 C 3,2 km/h (1 Bft) 98,00 %
19.02.2017 16:36 3,7 C 89 % 1022,2 hPa 0,0 l/m 1,6 km/h (1 Bft) NW 309 2 min 0,000 mm 0,0 UV-I 100 W/m 2,1 C 3,7 C 3,2 km/h (1 Bft) 97,87 %
19.02.2017 16:38 3,7 C 88 % 1022,2 hPa 0,0 l/m 0,2 km/h (0 Bft) NW 309 2 min 0,000 mm 0,0 UV-I 97 W/m 1,9 C 3,7 C 1,6 km/h (1 Bft) 97,92 %
19.02.2017 16:40 3,7 C 88 % 1022,2 hPa 0,0 l/m 1,0 km/h (0 Bft) NW 309 2 min 0,000 mm 0,0 UV-I 93 W/m 1,9 C 3,7 C 3,2 km/h (1 Bft) 98,08 %
19.02.2017 16:42 3,7 C 89 % 1022,2 hPa 0,0 l/m 0,0 km/h (0 Bft) NW 309 2 min 0,000 mm 0,0 UV-I 88 W/m 2,1 C 3,7 C 0,0 km/h (0 Bft) 97,44 %
19.02.2017 16:44 3,7 C 89 % 1022,2 hPa 0,0 l/m 0,0 km/h (0 Bft) NW 309 2 min 0,000 mm 0,0 UV-I 83 W/m 2,1 C 3,7 C 0,0 km/h (0 Bft) 98,00 %
19.02.2017 16:46 3,7 C 89 % 1022,2 hPa 0,0 l/m 0,6 km/h (0 Bft) NW 309 2 min 0,000 mm 0,0 UV-I 78 W/m 2,1 C 3,7 C 3,2 km/h (1 Bft) 86,00 %
19.02.2017 16:48 3,7 C 89 % 1022,2 hPa 0,0 l/m 0,9 km/h (0 Bft) NW 309 2 min 0,000 mm 0,0 UV-I 72 W/m 2,1 C 3,7 C 1,6 km/h (1 Bft) 98,00 %
19.02.2017 16:50 3,6 C 89 % 1022,2 hPa 0,0 l/m 0,3 km/h (0 Bft) NW 309 2 min 0,000 mm 0,0 UV-I 69 W/m 2,0 C 3,6 C 1,6 km/h (1 Bft) 97,87 %
19.02.2017 16:52 3,6 C 89 % 1022,1 hPa 0,0 l/m 1,0 km/h (0 Bft) NW 309 2 min 0,000 mm 0,0 UV-I 63 W/m 2,0 C 3,6 C 1,6 km/h (1 Bft) 92,11 %
19.02.2017 16:54 3,6 C 89 % 1022,1 hPa 0,0 l/m 0,4 km/h (0 Bft) NW 309 2 min 0,000 mm 0,0 UV-I 57 W/m 2,0 C 3,6 C 1,6 km/h (1 Bft) 92,00 %
19.02.2017 16:56 3,6 C 89 % 1022,1 hPa 0,0 l/m 0,0 km/h (0 Bft) NW 309 2 min 0,000 mm 0,0 UV-I 54 W/m 2,0 C 3,6 C 0,0 km/h (0 Bft) 92,00 %
19.02.2017 16:58 3,6 C 89 % 1022,1 hPa 0,0 l/m 0,1 km/h (0 Bft) NW 309 2 min 0,000 mm 0,0 UV-I 51 W/m 2,0 C 3,6 C 1,6 km/h (1 Bft) 92,11 %
19.02.2017 17:00 3,6 C 89 % 1022,1 hPa 0,0 l/m 0,2 km/h (0 Bft) NW 309 2 min 0,000 mm 0,0 UV-I 48 W/m 2,0 C 3,6 C 1,6 km/h (1 Bft) 96,00 %
19.02.2017 17:02 3,6 C 89 % 1022,0 hPa 0,0 l/m 0,3 km/h (0 Bft) NW 309 2 min 0,051 mm 0,0 UV-I 44 W/m 2,0 C 3,6 C 1,6 km/h (1 Bft) 100,00 %
19.02.2017 17:04 3,6 C 89 % 1022,0 hPa 0,0 l/m 0,1 km/h (0 Bft) NW 309 2 min 0,000 mm 0,0 UV-I 40 W/m 2,0 C 3,6 C 1,6 km/h (1 Bft) 93,62 %
19.02.2017 17:06 3,5 C 89 % 1021,9 hPa 0,0 l/m 0,0 km/h (0 Bft) NW 309 2 min 0,000 mm 0,0 UV-I 36 W/m 1,9 C 3,5 C 0,0 km/h (0 Bft) 93,62 %
19.02.2017 17:08 3,5 C 89 % 1021,8 hPa 0,0 l/m 0,0 km/h (0 Bft) NW 309 2 min 0,000 mm 0,0 UV-I 33 W/m 1,9 C 3,5 C 0,0 km/h (0 Bft) 100,00 %
19.02.2017 17:10 3,4 C 89 % 1021,9 hPa 0,0 l/m 0,9 km/h (0 Bft) NW 309 0 min 0,000 mm 0,0 UV-I 26 W/m 1,8 C 3,4 C 3,2 km/h (1 Bft) 98,21 %
19.02.2017 17:12 3,3 C 89 % 1021,9 hPa 0,0 l/m 3,3 km/h (1 Bft) NW 309 2 min 0,000 mm 0,0 UV-I 24 W/m 1,7 C 3,3 C 4,8 km/h (1 Bft) 96,00 %
19.02.2017 17:14 3,1 C 90 % 1021,9 hPa 0,0 l/m 2,6 km/h (1 Bft) NW 309 2 min 0,000 mm 0,0 UV-I 21 W/m 1,6 C 3,1 C 3,2 km/h (1 Bft) 100,00 %
19.02.2017 17:16 2,8 C 90 % 1021,9 hPa 0,0 l/m 2,0 km/h (1 Bft) NW 309 0 min 0,000 mm 0,0 UV-I 15 W/m 1,3 C 2,8 C 3,2 km/h (1 Bft) 97,01 %
19.02.2017 17:18 2,7 C 91 % 1022,0 hPa 0,0 l/m 0,8 km/h (0 Bft) NW 309 0 min 0,000 mm 0,0 UV-I 13 W/m 1,4 C 2,7 C 1,6 km/h (1 Bft) 95,74 %
19.02.2017 17:20 2,7 C 92 % 1021,9 hPa 0,0 l/m 0,0 km/h (0 Bft) NW 309 2 min 0,000 mm 0,0 UV-I 12 W/m 1,5 C 2,7 C 0,0 km/h (0 Bft) 100,00 %
19.02.2017 17:22 2,6 C 92 % 1021,9 hPa 0,0 l/m 0,0 km/h (0 Bft) NW 309 0 min 0,000 mm 0,0 UV-I 11 W/m 1,4 C 2,6 C 0,0 km/h (0 Bft) 96,00 %
19.02.2017 17:24 2,4 C 91 % 1021,9 hPa 0,0 l/m 0,0 km/h (0 Bft) NW 309 0 min 0,000 mm 0,0 UV-I 11 W/m 1,1 C 2,4 C 0,0 km/h (0 Bft) 96,00 %
19.02.2017 17:26 2,4 C 92 % 1021,9 hPa 0,0 l/m 0,1 km/h (0 Bft) NW 309 0 min 0,000 mm 0,0 UV-I 11 W/m 1,2 C 2,4 C 1,6 km/h (1 Bft) 95,92 %
19.02.2017 17:28 2,3 C 92 % 1021,9 hPa 0,0 l/m 0,0 km/h (0 Bft) NW 309 0 min 0,000 mm 0,0 UV-I 10 W/m 1,1 C 2,3 C 0,0 km/h (0 Bft) 97,37 %
19.02.2017 17:30 2,3 C 93 % 1021,9 hPa 0,0 l/m 0,5 km/h (0 Bft) NW 309 0 min 0,000 mm 0,0 UV-I 9 W/m 1,3 C 2,3 C 1,6 km/h (1 Bft) 93,62 %
19.02.2017 17:32 2,3 C 93 % 1021,9 hPa 0,0 l/m 1,5 km/h (1 Bft) NW 309 0 min 0,000 mm 0,0 UV-I 8 W/m 1,3 C 2,3 C 3,2 km/h (1 Bft) 95,74 %
19.02.2017 17:34 2,2 C 93 % 1021,9 hPa 0,0 l/m 1,4 km/h (1 Bft) NW 309 0 min 0,000 mm 0,0 UV-I 7 W/m 1,2 C 2,2 C 1,6 km/h (1 Bft) 97,87 %
19.02.2017 17:36 2,1 C 93 % 1021,8 hPa 0,0 l/m 1,4 km/h (1 Bft) NW 309 0 min 0,000 mm 0,0 UV-I 6 W/m 1,1 C 2,1 C 1,6 km/h (1 Bft) 96,00 %
19.02.2017 17:38 2,1 C 94 % 1021,9 hPa 0,0 l/m 1,1 km/h (1 Bft) NW 309 0 min 0,000 mm 0,0 UV-I 5 W/m 1,2 C 2,1 C 1,6 km/h (1 Bft) 100,00 %
19.02.2017 17:40 1,9 C 94 % 1021,8 hPa 0,0 l/m 0,9 km/h (0 Bft) NW 309 0 min 0,000 mm 0,0 UV-I 5 W/m 1,0 C 1,9 C 1,6 km/h (1 Bft) 98,00 %
19.02.2017 17:42 1,8 C 94 % 1021,8 hPa 0,0 l/m 0,0 km/h (0 Bft) NW 309 0 min 0,000 mm 0,0 UV-I 5 W/m 0,9 C 1,8 C 0,0 km/h (0 Bft) 93,62 %
19.02.2017 17:44 1,8 C 94 % 1021,8 hPa 0,0 l/m 0,0 km/h (0 Bft) NW 309 0 min 0,000 mm 0,0 UV-I 5 W/m 0,9 C 1,8 C 0,0 km/h (0 Bft) 100,00 %
19.02.2017 17:46 1,8 C 95 % 1021,8 hPa 0,0 l/m 0,0 km/h (0 Bft) NW 309 0 min 0,000 mm 0,0 UV-I 0 W/m 1,1 C 1,8 C 0,0 km/h (0 Bft) 97,87 %
19.02.2017 17:48 1,7 C 94 % 1021,9 hPa 0,0 l/m 0,8 km/h (0 Bft) NW 309 0 min 0,000 mm 0,0 UV-I 0 W/m 0,8 C 1,7 C 1,6 km/h (1 Bft) 95,74 %
19.02.2017 17:50 1,5 C 94 % 1021,9 hPa 0,0 l/m 2,2 km/h (1 Bft) NW 309 0 min 0,000 mm 0,0 UV-I 0 W/m 0,6 C 1,5 C 3,2 km/h (1 Bft) 98,11 %
19.02.2017 17:52 1,4 C 94 % 1021,9 hPa 0,0 l/m 3,0 km/h (1 Bft) NW 309 0 min 0,000 mm 0,0 UV-I 0 W/m 0,5 C 1,4 C 3,2 km/h (1 Bft) 94,74 %
19.02.2017 17:54 1,5 C 95 % 1021,8 hPa 0,0 l/m 2,8 km/h (1 Bft) NW 309 0 min 0,000 mm 0,0 UV-I 0 W/m 0,8 C 1,5 C 3,2 km/h (1 Bft) 95,74 %
19.02.2017 17:56 1,5 C 95 % 1021,8 hPa 0,0 l/m 3,5 km/h (1 Bft) NW 309 0 min 0,000 mm 0,0 UV-I 0 W/m 0,8 C 1,5 C 4,8 km/h (1 Bft) 98,00 %
19.02.2017 17:58 1,6 C 95 % 1021,8 hPa 0,0 l/m 3,3 km/h (1 Bft) NW 309 0 min 0,000 mm 0,0 UV-I 0 W/m 0,9 C 1,6 C 4,8 km/h (1 Bft) 100,00 %
19.02.2017 18:00 1,5 C 95 % 1021,9 hPa 0,0 l/m 2,8 km/h (1 Bft) NW 309 0 min 0,000 mm 0,0 UV-I 0 W/m 0,8 C 1,5 C 3,2 km/h (1 Bft) 94,87 %
19.02.2017 18:02 1,4 C 95 % 1021,8 hPa 0,0 l/m 2,8 km/h (1 Bft) NW 309 0 min 0,000 mm 0,0 UV-I 0 W/m 0,7 C 1,4 C 3,2 km/h (1 Bft) 95,74 %
19.02.2017 18:04 1,3 C 95 % 1021,8 hPa 0,0 l/m 2,1 km/h (1 Bft) NW 309 0 min 0,000 mm 0,0 UV-I 0 W/m 0,6 C 1,3 C 3,2 km/h (1 Bft) 98,11 %
19.02.2017 18:06 1,1 C 94 % 1021,8 hPa 0,0 l/m 1,0 km/h (0 Bft) NW 309 0 min 0,000 mm 0,0 UV-I 0 W/m 0,2 C 1,1 C 1,6 km/h (1 Bft) 88,46 %
19.02.2017 18:08 1,0 C 95 % 1021,8 hPa 0,0 l/m 1,4 km/h (1 Bft) NW 309 0 min 0,000 mm 0,0 UV-I 0 W/m 0,3 C 1,0 C 1,6 km/h (1 Bft) 98,39 %
19.02.2017 18:10 1,1 C 95 % 1021,8 hPa 0,0 l/m 2,2 km/h (1 Bft) NW 309 0 min 0,000 mm 0,0 UV-I 0 W/m 0,4 C 1,1 C 3,2 km/h (1 Bft) 94,00 %
19.02.2017 18:12 1,2 C 96 % 1021,8 hPa 0,0 l/m 1,8 km/h (1 Bft) NW 309 0 min 0,000 mm 0,0 UV-I 0 W/m 0,6 C 1,2 C 3,2 km/h (1 Bft) 93,88 %
19.02.2017 18:14 1,1 C 95 % 1021,8 hPa 0,0 l/m 2,3 km/h (1 Bft) NW 309 0 min 0,000 mm 0,0 UV-I 0 W/m 0,4 C 1,1 C 3,2 km/h (1 Bft) 92,11 %
19.02.2017 18:16 1,0 C 95 % 1021,8 hPa 0,0 l/m 2,1 km/h (1 Bft) NW 309 0 min 0,000 mm 0,0 UV-I 0 W/m 0,3 C 1,0 C 3,2 km/h (1 Bft) 96,00 %
19.02.2017 18:18 0,9 C 95 % 1021,8 hPa 0,0 l/m 1,3 km/h (1 Bft) NW 309 0 min 0,000 mm 0,0 UV-I 0 W/m 0,2 C 0,9 C 1,6 km/h (1 Bft) 92,00 %
19.02.2017 18:20 0,9 C 95 % 1021,8 hPa 0,0 l/m 0,6 km/h (0 Bft) NW 309 0 min 0,000 mm 0,0 UV-I 0 W/m 0,2 C 0,9 C 1,6 km/h (1 Bft) 97,56 %
19.02.2017 18:22 0,9 C 95 % 1021,8 hPa 0,0 l/m 0,0 km/h (0 Bft) NW 309 0 min 0,000 mm 0,0 UV-I 0 W/m 0,2 C 0,9 C 1,6 km/h (1 Bft) 93,62 %
19.02.2017 18:24 0,9 C 95 % 1021,8 hPa 0,0 l/m 0,8 km/h (0 Bft) NW 309 0 min 0,000 mm 0,0 UV-I 0 W/m 0,2 C 0,9 C 1,6 km/h (1 Bft) 94,34 %
19.02.2017 18:26 0,9 C 95 % 1021,9 hPa 0,0 l/m 0,0 km/h (0 Bft) NW 309 0 min 0,000 mm 0,0 UV-I 0 W/m 0,2 C 0,9 C 0,0 km/h (0 Bft) 93,62 %
19.02.2017 18:28 0,9 C 96 % 1021,9 hPa 0,0 l/m 0,0 km/h (0 Bft) NW 309 0 min 0,000 mm 0,0 UV-I 0 W/m 0,3 C 0,9 C 0,0 km/h (0 Bft) 97,87 %
19.02.2017 18:30 0,9 C 96 % 1022,0 hPa 0,0 l/m 0,0 km/h (0 Bft) NW 309 0 min 0,000 mm 0,0 UV-I 0 W/m 0,3 C 0,9 C 0,0 km/h (0 Bft) 97,56 %
19.02.2017 18:32 0,9 C 96 % 1021,9 hPa 0,0 l/m 0,0 km/h (0 Bft) NW 309 0 min 0,000 mm 0,0 UV-I 0 W/m 0,3 C 0,9 C 0,0 km/h (0 Bft) 98,00 %
19.02.2017 18:34 0,9 C 96 % 1021,9 hPa 0,0 l/m 0,7 km/h (0 Bft) NW 309 0 min 0,000 mm 0,0 UV-I 0 W/m 0,3 C 0,9 C 1,6 km/h (1 Bft) 95,74 %
19.02.2017 18:36 0,8 C 95 % 1021,9 hPa 0,0 l/m 0,6 km/h (0 Bft) NW 309 0 min 0,000 mm 0,0 UV-I 0 W/m 0,1 C 0,8 C 1,6 km/h (1 Bft) 92,86 %
19.02.2017 18:38 0,7 C 95 % 1022,0 hPa 0,0 l/m 0,1 km/h (0 Bft) NW 309 0 min 0,000 mm 0,0 UV-I 0 W/m -0,0 C 0,7 C 1,6 km/h (1 Bft) 92,73 %
19.02.2017 18:40 0,6 C 95 % 1022,0 hPa 0,0 l/m 0,0 km/h (0 Bft) NW 309 0 min 0,000 mm 0,0 UV-I 0 W/m -0,1 C 0,6 C 1,6 km/h (1 Bft) 93,62 %
19.02.2017 18:42 0,6 C 96 % 1022,0 hPa 0,0 l/m 0,3 km/h (0 Bft) NW 309 0 min 0,000 mm 0,0 UV-I 0 W/m 0,0 C 0,6 C 1,6 km/h (1 Bft) 88,89 %
19.02.2017 18:44 0,6 C 96 % 1022,0 hPa 0,0 l/m 0,4 km/h (0 Bft) NW 309 0 min 0,000 mm 0,0 UV-I 0 W/m 0,0 C 0,6 C 1,6 km/h (1 Bft) 94,23 %
19.02.2017 18:46 0,6 C 96 % 1021,9 hPa 0,0 l/m 0,8 km/h (0 Bft) NW 309 0 min 0,000 mm 0,0 UV-I 0 W/m 0,0 C 0,6 C 1,6 km/h (1 Bft) 91,49 %
19.02.2017 18:48 0,6 C 96 % 1022,0 hPa 0,0 l/m 1,4 km/h (1 Bft) NW 309 0 min 0,000 mm 0,0 UV-I 0 W/m 0,0 C 0,6 C 1,6 km/h (1 Bft) 90,00 %
19.02.2017 18:50 0,7 C 96 % 1021,9 hPa 0,0 l/m 1,7 km/h (1 Bft) NW 309 0 min 0,000 mm 0,0 UV-I 0 W/m 0,1 C 0,7 C 3,2 km/h (1 Bft) 88,00 %
19.02.2017 18:52 0,8 C 96 % 1021,9 hPa 0,0 l/m 1,6 km/h (1 Bft) NW 309 0 min 0,000 mm 0,0 UV-I 0 W/m 0,2 C 0,8 C 3,2 km/h (1 Bft) 89,47 %
19.02.2017 18:54 0,8 C 96 % 1021,9 hPa 0,0 l/m 2,3 km/h (1 Bft) NW 309 0 min 0,000 mm 0,0 UV-I 0 W/m 0,2 C 0,8 C 3,2 km/h (1 Bft) 98,00 %
19.02.2017 18:56 0,8 C 96 % 1021,9 hPa 0,0 l/m 2,2 km/h (1 Bft) NW 309 0 min 0,000 mm 0,0 UV-I 0 W/m 0,2 C 0,8 C 3,2 km/h (1 Bft) 93,62 %
19.02.2017 18:58 0,8 C 96 % 1021,9 hPa 0,0 l/m 2,6 km/h (1 Bft) NW 309 0 min 0,000 mm 0,0 UV-I 0 W/m 0,2 C 0,8 C 3,2 km/h (1 Bft) 96,00 %
19.02.2017 19:00 0,8 C 96 % 1021,9 hPa 0,0 l/m 3,4 km/h (1 Bft) NW 309 0 min 0,000 mm 0,0 UV-I 0 W/m 0,2 C 0,8 C 4,8 km/h (1 Bft) 95,74 %
19.02.2017 19:02 0,8 C 96 % 1021,9 hPa 0,0 l/m 2,9 km/h (1 Bft) NW 309 0 min 0,000 mm 0,0 UV-I 0 W/m 0,2 C 0,8 C 3,2 km/h (1 Bft) 96,00 %
19.02.2017 19:04 0,7 C 96 % 1021,9 hPa 0,0 l/m 2,5 km/h (1 Bft) NW 309 0 min 0,000 mm 0,0 UV-I 0 W/m 0,1 C 0,7 C 3,2 km/h (1 Bft) 92,11 %
19.02.2017 19:06 0,7 C 96 % 1021,9 hPa 0,0 l/m 2,6 km/h (1 Bft) NW 309 0 min 0,000 mm 0,0 UV-I 0 W/m 0,1 C 0,7 C 3,2 km/h (1 Bft) 98,11 %
19.02.2017 19:08 0,7 C 96 % 1021,9 hPa 0,0 l/m 2,2 km/h (1 Bft) NW 309 0 min 0,000 mm 0,0 UV-I 0 W/m 0,1 C 0,7 C 3,2 km/h (1 Bft) 96,00 %
19.02.2017 19:10 0,7 C 96 % 1022,0 hPa 0,0 l/m 2,0 km/h (1 Bft) NW 309 0 min 0,000 mm 0,0 UV-I 0 W/m 0,1 C 0,7 C 3,2 km/h (1 Bft) 92,11 %
19.02.2017 19:12 0,8 C 96 % 1022,1 hPa 0,0 l/m 1,8 km/h (1 Bft) NW 309 0 min 0,000 mm 0,0 UV-I 0 W/m 0,2 C 0,8 C 3,2 km/h (1 Bft) 100,00 %
19.02.2017 19:14 0,9 C 96 % 1022,1 hPa 0,0 l/m 1,7 km/h (1 Bft) NW 309 0 min 0,000 mm 0,0 UV-I 0 W/m 0,3 C 0,9 C 3,2 km/h (1 Bft) 100,00 %
19.02.2017 19:16 0,9 C 96 % 1022,0 hPa 0,0 l/m 0,4 km/h (0 Bft) NW 309 0 min 0,000 mm 0,0 UV-I 0 W/m 0,3 C 0,9 C 1,6 km/h (1 Bft) 100,00 %
19.02.2017 19:18 0,9 C 96 % 1022,0 hPa 0,0 l/m 0,0 km/h (0 Bft) NW 309 0 min 0,000 mm 0,0 UV-I 0 W/m 0,3 C 0,9 C 1,6 km/h (1 Bft) 100,00 %
19.02.2017 19:20 0,8 C 96 % 1022,1 hPa 0,0 l/m 0,1 km/h (0 Bft) NW 309 0 min 0,000 mm 0,0 UV-I 0 W/m 0,2 C 0,8 C 1,6 km/h (1 Bft) 95,74 %
19.02.2017 19:22 0,7 C 96 % 1022,1 hPa 0,0 l/m 1,8 km/h (1 Bft) NW 309 0 min 0,000 mm 0,0 UV-I 0 W/m 0,1 C 0,7 C 3,2 km/h (1 Bft) 95,24 %
19.02.2017 19:24 0,6 C 96 % 1022,0 hPa 0,0 l/m 1,6 km/h (1 Bft) NW 309 0 min 0,000 mm 0,0 UV-I 0 W/m 0,0 C 0,6 C 3,2 km/h (1 Bft) 94,29 %
19.02.2017 19:26 0,6 C 96 % 1022,0 hPa 0,0 l/m 0,7 km/h (0 Bft) NW 309 0 min 0,000 mm 0,0 UV-I 0 W/m 0,0 C 0,6 C 3,2 km/h (1 Bft) 95,38 %
19.02.2017 19:28 0,6 C 96 % 1022,0 hPa 0,0 l/m 1,0 km/h (0 Bft) NW 309 0 min 0,000 mm 0,0 UV-I 0 W/m 0,0 C 0,6 C 3,2 km/h (1 Bft) 100,00 %
19.02.2017 19:30 0,7 C 96 % 1021,9 hPa 0,0 l/m 1,6 km/h (1 Bft) NW 309 0 min 0,000 mm 0,0 UV-I 0 W/m 0,1 C 0,7 C 3,2 km/h (1 Bft) 96,23 %
19.02.2017 19:32 0,7 C 96 % 1022,0 hPa 0,0 l/m 1,0 km/h (0 Bft) NW 309 0 min 0,000 mm 0,0 UV-I 0 W/m 0,1 C 0,7 C 3,2 km/h (1 Bft) 94,34 %
19.02.2017 19:34 0,8 C 96 % 1022,0 hPa 0,0 l/m 0,2 km/h (0 Bft) NW 309 0 min 0,000 mm 0,0 UV-I 0 W/m 0,2 C 0,8 C 1,6 km/h (1 Bft) 100,00 %
19.02.2017 19:36 0,8 C 96 % 1022,0 hPa 0,0 l/m 0,0 km/h (0 Bft) NW 309 0 min 0,000 mm 0,0 UV-I 0 W/m 0,2 C 0,8 C 1,6 km/h (1 Bft) 98,11 %
19.02.2017 19:38 0,8 C 96 % 1022,0 hPa 0,0 l/m 1,0 km/h (0 Bft) NW 309 0 min 0,000 mm 0,0 UV-I 0 W/m 0,2 C 0,8 C 1,6 km/h (1 Bft) 96,00 %
19.02.2017 19:40 0,8 C 96 % 1022,1 hPa 0,0 l/m 1,3 km/h (1 Bft) NW 309 0 min 0,000 mm 0,0 UV-I 0 W/m 0,2 C 0,8 C 3,2 km/h (1 Bft) 94,29 %
19.02.2017 19:42 0,8 C 96 % 1022,0 hPa 0,0 l/m 2,8 km/h (1 Bft) NW 306 0 min 0,000 mm 0,0 UV-I 0 W/m 0,2 C 0,8 C 4,8 km/h (1 Bft) 100,00 %
19.02.2017 19:44 0,7 C 96 % 1022,0 hPa 0,0 l/m 1,9 km/h (1 Bft) NW 306 0 min 0,000 mm 0,0 UV-I 0 W/m 0,1 C 0,7 C 3,2 km/h (1 Bft) 98,53 %
19.02.2017 19:46 0,8 C 96 % 1022,0 hPa 0,0 l/m 2,7 km/h (1 Bft) W-NW 299 0 min 0,000 mm 0,0 UV-I 0 W/m 0,2 C 0,8 C 4,8 km/h (1 Bft) 100,00 %
19.02.2017 19:48 0,7 C 96 % 1022,0 hPa 0,0 l/m 1,5 km/h (1 Bft) W 275 0 min 0,000 mm 0,0 UV-I 0 W/m 0,1 C 0,7 C 3,2 km/h (1 Bft) 97,56 %
19.02.2017 19:50 0,7 C 96 % 1022,0 hPa 0,0 l/m 0,8 km/h (0 Bft) W-SW 251 0 min 0,000 mm 0,0 UV-I 0 W/m 0,1 C 0,7 C 1,6 km/h (1 Bft) 96,00 %
19.02.2017 19:52 0,7 C 96 % 1022,0 hPa 0,0 l/m 0,7 km/h (0 Bft) W-SW 251 0 min 0,000 mm 0,0 UV-I 0 W/m 0,1 C 0,7 C 3,2 km/h (1 Bft) 97,87 %
19.02.2017 19:54 0,7 C 96 % 1022,0 hPa 0,0 l/m 0,7 km/h (0 Bft) W-SW 250 0 min 0,000 mm 0,0 UV-I 0 W/m 0,1 C 0,7 C 3,2 km/h (1 Bft) 98,11 %
19.02.2017 19:56 0,7 C 96 % 1022,1 hPa 0,0 l/m 0,6 km/h (0 Bft) W-SW 250 0 min 0,000 mm 0,0 UV-I 0 W/m 0,1 C 0,7 C 1,6 km/h (1 Bft) 92,68 %
19.02.2017 19:58 0,8 C 96 % 1022,1 hPa 0,0 l/m 0,6 km/h (0 Bft) W-SW 250 0 min 0,000 mm 0,0 UV-I 0 W/m 0,2 C 0,8 C 1,6 km/h (1 Bft) 95,83 %
19.02.2017 20:00 0,8 C 96 % 1022,1 hPa 0,0 l/m 1,2 km/h (1 Bft) W-SW 250 0 min 0,000 mm 0,0 UV-I 0 W/m 0,2 C 0,8 C 3,2 km/h (1 Bft) 100,00 %
19.02.2017 20:02 0,8 C 96 % 1022,1 hPa 0,0 l/m 1,4 km/h (1 Bft) W-SW 250 0 min 0,000 mm 0,0 UV-I 0 W/m 0,2 C 0,8 C 1,6 km/h (1 Bft) 96,36 %
19.02.2017 20:04 0,8 C 96 % 1022,0 hPa 0,0 l/m 0,7 km/h (0 Bft) W-SW 250 0 min 0,000 mm 0,0 UV-I 0 W/m 0,2 C 0,8 C 1,6 km/h (1 Bft) 100,00 %
19.02.2017 20:06 0,8 C 96 % 1022,1 hPa 0,0 l/m 1,3 km/h (1 Bft) W-SW 250 0 min 0,000 mm 0,0 UV-I 0 W/m 0,2 C 0,8 C 3,2 km/h (1 Bft) 97,73 %
19.02.2017 20:08 0,9 C 97 % 1022,1 hPa 0,0 l/m 2,4 km/h (1 Bft) W-SW 250 0 min 0,000 mm 0,0 UV-I 0 W/m 0,5 C 0,9 C 4,8 km/h (1 Bft) 100,00 %
19.02.2017 20:10 0,9 C 97 % 1022,1 hPa 0,0 l/m 2,9 km/h (1 Bft) W-SW 250 0 min 0,000 mm 0,0 UV-I 0 W/m 0,5 C 0,9 C 4,8 km/h (1 Bft) 96,00 %
19.02.2017 20:12 0,9 C 97 % 1022,2 hPa 0,0 l/m 3,6 km/h (1 Bft) W-SW 250 0 min 0,000 mm 0,0 UV-I 0 W/m 0,5 C 0,9 C 4,8 km/h (1 Bft) 100,00 %
19.02.2017 20:14 1,0 C 97 % 1022,2 hPa 0,0 l/m 4,2 km/h (1 Bft) W-SW 250 0 min 0,000 mm 0,0 UV-I 0 W/m 0,6 C 1,0 C 4,8 km/h (1 Bft) 96,00 %
19.02.2017 20:16 1,0 C 97 % 1022,2 hPa 0,0 l/m 3,5 km/h (1 Bft) W-SW 250 0 min 0,000 mm 0,0 UV-I 0 W/m 0,6 C 1,0 C 4,8 km/h (1 Bft) 96,77 %
19.02.2017 20:18 0,9 C 97 % 1022,3 hPa 0,0 l/m 4,0 km/h (1 Bft) W-SW 250 0 min 0,000 mm 0,0 UV-I 0 W/m 0,5 C 0,9 C 6,4 km/h (2 Bft) 100,00 %
19.02.2017 20:20 0,8 C 96 % 1022,3 hPa 0,0 l/m 5,0 km/h (1 Bft) SW 236 0 min 0,000 mm 0,0 UV-I 0 W/m 0,2 C 0,8 C 6,4 km/h (2 Bft) 98,00 %
19.02.2017 20:23 0,7 C 96 % 1022,4 hPa 0,0 l/m 5,3 km/h (1 Bft) SW 220 0 min 0,000 mm 0,0 UV-I 0 W/m 0,1 C 0,7 C 8,0 km/h (2 Bft) 97,37 %
19.02.2017 20:24 0,7 C 96 % 1022,4 hPa 0,0 l/m 5,6 km/h (1 Bft) SW 224 0 min 0,000 mm 0,0 UV-I 0 W/m 0,1 C 0,7 C 6,4 km/h (2 Bft) 83,33 %
19.02.2017 20:26 0,7 C 96 % 1022,4 hPa 0,0 l/m 5,1 km/h (1 Bft) SW 219 0 min 0,000 mm 0,0 UV-I 0 W/m 0,1 C 0,7 C 6,4 km/h (2 Bft) 95,74 %
19.02.2017 20:28 0,7 C 97 % 1022,4 hPa 0,0 l/m 4,1 km/h (1 Bft) SW 219 0 min 0,000 mm 0,0 UV-I 0 W/m 0,3 C 0,7 C 6,4 km/h (2 Bft) 96,00 %
19.02.2017 20:30 0,7 C 97 % 1022,4 hPa 0,0 l/m 4,2 km/h (1 Bft) SW 232 0 min 0,000 mm 0,0 UV-I 0 W/m 0,3 C 0,7 C 6,4 km/h (2 Bft) 94,00 %
19.02.2017 20:32 0,7 C 97 % 1022,4 hPa 0,0 l/m 3,8 km/h (1 Bft) SW 234 0 min 0,000 mm 0,0 UV-I 0 W/m 0,3 C 0,7 C 6,4 km/h (2 Bft) 97,56 %
19.02.2017 20:34 0,8 C 97 % 1022,4 hPa 0,0 l/m 4,2 km/h (1 Bft) SW 234 0 min 0,000 mm 0,0 UV-I 0 W/m 0,4 C 0,8 C 6,4 km/h (2 Bft) 94,34 %
19.02.2017 20:36 0,8 C 97 % 1022,4 hPa 0,0 l/m 4,5 km/h (1 Bft) SW 234 0 min 0,000 mm 0,0 UV-I 0 W/m 0,4 C 0,8 C 6,4 km/h (2 Bft) 92,00 %
19.02.2017 20:38 0,8 C 97 % 1022,4 hPa 0,0 l/m 4,7 km/h (1 Bft) SW 226 0 min 0,000 mm 0,0 UV-I 0 W/m 0,4 C 0,8 C 6,4 km/h (2 Bft) 95,12 %
19.02.2017 20:40 0,9 C 97 % 1022,4 hPa 0,0 l/m 5,0 km/h (1 Bft) SW 236 0 min 0,000 mm 0,0 UV-I 0 W/m 0,5 C 0,9 C 8,0 km/h (2 Bft) 93,75 %
19.02.2017 20:42 0,9 C 97 % 1022,4 hPa 0,0 l/m 5,9 km/h (2 Bft) SW 232 0 min 0,000 mm 0,0 UV-I 0 W/m 0,5 C 0,9 C 8,0 km/h (2 Bft) 95,74 %
19.02.2017 20:44 1,0 C 97 % 1022,4 hPa 0,0 l/m 5,3 km/h (1 Bft) SW 225 0 min 0,000 mm 0,0 UV-I 0 W/m 0,6 C 1,0 C 8,0 km/h (2 Bft) 93,62 %
19.02.2017 20:46 1,0 C 97 % 1022,4 hPa 0,0 l/m 6,5 km/h (2 Bft) SW 236 0 min 0,000 mm 0,0 UV-I 0 W/m 0,6 C 0,9 C 8,0 km/h (2 Bft) 96,00 %
19.02.2017 20:48 1,0 C 97 % 1022,4 hPa 0,0 l/m 6,4 km/h (2 Bft) W-SW 241 0 min 0,000 mm 0,0 UV-I 0 W/m 0,6 C 1,0 C 8,0 km/h (2 Bft) 92,68 %
19.02.2017 20:50 1,0 C 97 % 1022,4 hPa 0,0 l/m 7,1 km/h (2 Bft) SW 223 0 min 0,000 mm 0,0 UV-I 0 W/m 0,6 C 0,3 C 9,7 km/h (2 Bft) 96,00 %
19.02.2017 20:52 1,1 C 97 % 1022,4 hPa 0,0 l/m 7,0 km/h (2 Bft) SW 229 0 min 0,000 mm 0,0 UV-I 0 W/m 0,7 C 0,5 C 9,7 km/h (2 Bft) 92,68 %
19.02.2017 20:54 1,0 C 97 % 1022,4 hPa 0,0 l/m 6,0 km/h (2 Bft) SW 230 0 min 0,000 mm 0,0 UV-I 0 W/m 0,6 C 1,0 C 8,0 km/h (2 Bft) 92,45 %
19.02.2017 20:56 1,0 C 97 % 1022,5 hPa 0,0 l/m 5,6 km/h (1 Bft) SW 228 0 min 0,000 mm 0,0 UV-I 0 W/m 0,6 C 1,0 C 8,0 km/h (2 Bft) 96,15 %
19.02.2017 20:59 1,1 C 97 % 1022,5 hPa 0,0 l/m 5,8 km/h (2 Bft) SW 218 0 min 0,000 mm 0,0 UV-I 0 W/m 0,7 C 1,1 C 8,0 km/h (2 Bft) 92,13 %
19.02.2017 21:00 1,1 C 97 % 1022,5 hPa 0,0 l/m 6,4 km/h (2 Bft) SW 228 0 min 0,000 mm 0,0 UV-I 0 W/m 0,7 C 1,1 C 12,9 km/h (3 Bft) 95,65 %
19.02.2017 21:02 1,1 C 97 % 1022,5 hPa 0,0 l/m 7,2 km/h (2 Bft) SW 216 0 min 0,000 mm 0,0 UV-I 0 W/m 0,7 C 0,3 C 11,3 km/h (2 Bft) 95,12 %
19.02.2017 21:04 1,1 C 97 % 1022,5 hPa 0,0 l/m 7,0 km/h (2 Bft) W-SW 237 0 min 0,000 mm 0,0 UV-I 0 W/m 0,7 C 0,5 C 9,7 km/h (2 Bft) 97,56 %
19.02.2017 21:06 1,2 C 97 % 1022,6 hPa 0,0 l/m 7,7 km/h (2 Bft) SW 227 0 min 0,000 mm 0,0 UV-I 0 W/m 0,8 C -0,1 C 9,7 km/h (2 Bft) 96,43 %
19.02.2017 21:08 1,2 C 97 % 1022,7 hPa 0,0 l/m 8,8 km/h (2 Bft) W-SW 239 0 min 0,000 mm 0,0 UV-I 0 W/m 0,8 C -1,1 C 12,9 km/h (3 Bft) 97,87 %
19.02.2017 21:10 1,2 C 96 % 1022,6 hPa 0,0 l/m 8,2 km/h (2 Bft) SW 234 0 min 0,000 mm 0,0 UV-I 0 W/m 0,6 C -0,6 C 11,3 km/h (2 Bft) 97,87 %
19.02.2017 21:12 1,2 C 96 % 1022,6 hPa 0,0 l/m 7,5 km/h (2 Bft) SW 236 0 min 0,000 mm 0,0 UV-I 0 W/m 0,6 C 0,1 C 12,9 km/h (3 Bft) 97,87 %
19.02.2017 21:14 1,2 C 96 % 1022,7 hPa 0,0 l/m 7,4 km/h (2 Bft) W-SW 237 0 min 0,000 mm 0,0 UV-I 0 W/m 0,6 C 0,2 C 9,7 km/h (2 Bft) 97,87 %
19.02.2017 21:16 1,2 C 96 % 1022,7 hPa 0,0 l/m 9,1 km/h (2 Bft) W-SW 239 0 min 0,000 mm 0,0 UV-I 0 W/m 0,6 C -1,4 C 14,5 km/h (3 Bft) 98,11 %
19.02.2017 21:18 1,2 C 96 % 1022,7 hPa 0,0 l/m 9,7 km/h (2 Bft) SW 231 0 min 0,000 mm 0,0 UV-I 0 W/m 0,6 C -1,9 C 12,9 km/h (3 Bft) 100,00 %
19.02.2017 21:20 1,2 C 96 % 1022,7 hPa 0,0 l/m 8,5 km/h (2 Bft) W-SW 249 0 min 0,000 mm 0,0 UV-I 0 W/m 0,6 C -0,8 C 12,9 km/h (3 Bft) 96,15 %
19.02.2017 21:22 1,2 C 96 % 1022,7 hPa 0,0 l/m 8,5 km/h (2 Bft) SW 227 0 min 0,000 mm 0,0 UV-I 0 W/m 0,6 C -0,8 C 11,3 km/h (2 Bft) 97,62 %
19.02.2017 21:24 1,2 C 96 % 1022,7 hPa 0,0 l/m 9,1 km/h (2 Bft) W-SW 239 0 min 0,000 mm 0,0 UV-I 0 W/m 0,6 C -1,4 C 14,5 km/h (3 Bft) 98,11 %
19.02.2017 21:26 1,2 C 96 % 1022,7 hPa 0,0 l/m 7,6 km/h (2 Bft) W-SW 257 0 min 0,000 mm 0,0 UV-I 0 W/m 0,6 C -0,0 C 12,9 km/h (3 Bft) 97,87 %
19.02.2017 21:28 1,2 C 96 % 1022,7 hPa 0,0 l/m 7,8 km/h (2 Bft) W-SW 239 0 min 0,000 mm 0,0 UV-I 0 W/m 0,6 C -0,2 C 11,3 km/h (2 Bft) 97,14 %
19.02.2017 21:30 1,2 C 96 % 1022,7 hPa 0,0 l/m 6,6 km/h (2 Bft) W-SW 242 0 min 0,000 mm 0,0 UV-I 0 W/m 0,6 C 1,0 C 9,7 km/h (2 Bft) 98,00 %
19.02.2017 21:32 1,2 C 96 % 1022,7 hPa 0,0 l/m 7,2 km/h (2 Bft) W-SW 243 0 min 0,000 mm 0,0 UV-I 0 W/m 0,6 C 0,4 C 11,3 km/h (2 Bft) 98,00 %
19.02.2017 21:34 1,2 C 96 % 1022,8 hPa 0,0 l/m 8,2 km/h (2 Bft) W-SW 254 0 min 0,000 mm 0,0 UV-I 0 W/m 0,6 C -0,6 C 11,3 km/h (2 Bft) 100,00 %
19.02.2017 21:36 1,2 C 96 % 1022,7 hPa 0,0 l/m 8,3 km/h (2 Bft) W-SW 240 0 min 0,000 mm 0,0 UV-I 0 W/m 0,6 C -0,7 C 14,5 km/h (3 Bft) 100,00 %
19.02.2017 21:38 1,2 C 96 % 1022,8 hPa 0,0 l/m 9,3 km/h (2 Bft) W-SW 251 0 min 0,000 mm 0,0 UV-I 0 W/m 0,6 C -1,5 C 14,5 km/h (3 Bft) 98,11 %
19.02.2017 21:40 1,2 C 96 % 1022,8 hPa 0,0 l/m 8,3 km/h (2 Bft) SW 232 0 min 0,000 mm 0,0 UV-I 0 W/m 0,6 C -0,7 C 14,5 km/h (3 Bft) 91,49 %
19.02.2017 21:42 1,2 C 96 % 1022,8 hPa 0,0 l/m 7,0 km/h (2 Bft) SW 234 0 min 0,000 mm 0,0 UV-I 0 W/m 0,6 C 0,6 C 11,3 km/h (2 Bft) 97,56 %
19.02.2017 21:44 1,2 C 96 % 1022,8 hPa 0,0 l/m 7,6 km/h (2 Bft) W-SW 257 0 min 0,000 mm 0,0 UV-I 0 W/m 0,6 C -0,0 C 12,9 km/h (3 Bft) 100,00 %
19.02.2017 21:46 1,2 C 96 % 1022,8 hPa 0,0 l/m 6,9 km/h (2 Bft) SW 232 0 min 0,000 mm 0,0 UV-I 0 W/m 0,6 C 0,7 C 11,3 km/h (2 Bft) 98,00 %
19.02.2017 21:48 1,2 C 96 % 1022,8 hPa 0,0 l/m 7,1 km/h (2 Bft) W-SW 242 0 min 0,000 mm 0,0 UV-I 0 W/m 0,6 C 0,5 C 11,3 km/h (2 Bft) 100,00 %
19.02.2017 21:50 1,2 C 96 % 1022,7 hPa 0,0 l/m 9,9 km/h (2 Bft) W-SW 250 0 min 0,000 mm 0,0 UV-I 0 W/m 0,6 C -2,0 C 12,9 km/h (3 Bft) 96,00 %
19.02.2017 21:52 1,2 C 96 % 1022,8 hPa 0,0 l/m 6,3 km/h (2 Bft) W-SW 255 0 min 0,000 mm 0,0 UV-I 0 W/m 0,6 C 1,2 C 11,3 km/h (2 Bft) 97,37 %
19.02.2017 21:54 1,2 C 96 % 1022,8 hPa 0,0 l/m 7,2 km/h (2 Bft) W-SW 244 0 min 0,000 mm 0,0 UV-I 0 W/m 0,6 C 0,4 C 11,3 km/h (2 Bft) 98,00 %
19.02.2017 21:56 1,1 C 96 % 1022,8 hPa 0,0 l/m 6,5 km/h (2 Bft) W-SW 254 0 min 0,000 mm 0,0 UV-I 0 W/m 0,5 C 1,0 C 9,7 km/h (2 Bft) 100,00 %
19.02.2017 21:59 1,1 C 96 % 1022,8 hPa 0,0 l/m 6,1 km/h (2 Bft) SW 233 0 min 0,000 mm 0,0 UV-I 0 W/m 0,5 C 1,1 C 11,3 km/h (2 Bft) 98,65 %
19.02.2017 22:00 1,1 C 96 % 1022,8 hPa 0,0 l/m 6,0 km/h (2 Bft) SW 232 0 min 0,000 mm 0,0 UV-I 0 W/m 0,5 C 1,1 C 8,0 km/h (2 Bft) 91,67 %
19.02.2017 22:02 1,1 C 96 % 1022,8 hPa 0,0 l/m 7,6 km/h (2 Bft) W-SW 248 0 min 0,000 mm 0,0 UV-I 0 W/m 0,5 C -0,1 C 11,3 km/h (2 Bft) 98,11 %
19.02.2017 22:04 1,1 C 96 % 1022,8 hPa 0,0 l/m 5,6 km/h (1 Bft) W-SW 250 0 min 0,000 mm 0,0 UV-I 0 W/m 0,5 C 1,1 C 8,0 km/h (2 Bft) 100,00 %
19.02.2017 22:06 1,1 C 96 % 1022,8 hPa 0,0 l/m 5,8 km/h (2 Bft) W-SW 253 0 min 0,000 mm 0,0 UV-I 0 W/m 0,5 C 1,1 C 9,7 km/h (2 Bft) 98,00 %
19.02.2017 22:08 1,1 C 96 % 1022,8 hPa 0,0 l/m 5,5 km/h (1 Bft) W-SW 248 0 min 0,000 mm 0,0 UV-I 0 W/m 0,5 C 1,1 C 8,0 km/h (2 Bft) 98,11 %
19.02.2017 22:10 1,0 C 96 % 1022,9 hPa 0,0 l/m 5,1 km/h (1 Bft) W-SW 258 0 min 0,000 mm 0,0 UV-I 0 W/m 0,4 C 1,0 C 6,4 km/h (2 Bft) 100,00 %
19.02.2017 22:12 1,0 C 96 % 1022,9 hPa 0,0 l/m 5,6 km/h (1 Bft) W-SW 250 0 min 0,000 mm 0,0 UV-I 0 W/m 0,4 C 1,0 C 9,7 km/h (2 Bft) 98,11 %
19.02.2017 22:14 0,9 C 96 % 1022,9 hPa 0,0 l/m 4,7 km/h (1 Bft) W-SW 254 0 min 0,000 mm 0,0 UV-I 0 W/m 0,3 C 0,9 C 6,4 km/h (2 Bft) 97,87 %
19.02.2017 22:16 0,9 C 96 % 1022,9 hPa 0,0 l/m 4,7 km/h (1 Bft) W-SW 254 0 min 0,000 mm 0,0 UV-I 0 W/m 0,3 C 0,9 C 6,4 km/h (2 Bft) 97,87 %
19.02.2017 22:19 0,9 C 96 % 1022,9 hPa 0,0 l/m 4,9 km/h (1 Bft) W-SW 258 0 min 0,000 mm 0,0 UV-I 0 W/m 0,3 C 0,9 C 6,4 km/h (2 Bft) 98,68 %
19.02.2017 22:20 0,9 C 96 % 1023,0 hPa 0,0 l/m 3,7 km/h (1 Bft) W-SW 258 0 min 0,000 mm 0,0 UV-I 0 W/m 0,3 C 0,9 C 4,8 km/h (1 Bft) 100,00 %
19.02.2017 22:22 0,9 C 96 % 1023,0 hPa 0,0 l/m 3,8 km/h (1 Bft) W-SW 258 0 min 0,000 mm 0,0 UV-I 0 W/m 0,3 C 0,9 C 6,4 km/h (2 Bft) 98,00 %
19.02.2017 22:24 0,9 C 96 % 1023,1 hPa 0,0 l/m 3,0 km/h (1 Bft) W-SW 258 0 min 0,000 mm 0,0 UV-I 0 W/m 0,3 C 0,9 C 4,8 km/h (1 Bft) 100,00 %
19.02.2017 22:26 0,9 C 96 % 1023,1 hPa 0,0 l/m 2,7 km/h (1 Bft) W-SW 256 0 min 0,000 mm 0,0 UV-I 0 W/m 0,3 C 0,9 C 4,8 km/h (1 Bft) 97,87 %
19.02.2017 22:28 0,8 C 96 % 1023,1 hPa 0,0 l/m 3,9 km/h (1 Bft) W-SW 244 0 min 0,000 mm 0,0 UV-I 0 W/m 0,2 C 0,8 C 4,8 km/h (1 Bft) 100,00 %
19.02.2017 22:30 0,8 C 96 % 1023,1 hPa 0,0 l/m 3,7 km/h (1 Bft) W-SW 244 0 min 0,000 mm 0,0 UV-I 0 W/m 0,2 C 0,8 C 4,8 km/h (1 Bft) 100,00 %
19.02.2017 22:32 0,7 C 96 % 1023,2 hPa 0,0 l/m 3,8 km/h (1 Bft) W-SW 244 0 min 0,000 mm 0,0 UV-I 0 W/m 0,1 C 0,7 C 4,8 km/h (1 Bft) 97,37 %
19.02.2017 22:34 0,7 C 96 % 1023,1 hPa 0,0 l/m 3,8 km/h (1 Bft) W-SW 240 0 min 0,000 mm 0,0 UV-I 0 W/m 0,1 C 0,7 C 4,8 km/h (1 Bft) 96,23 %
19.02.2017 22:36 0,7 C 96 % 1023,1 hPa 0,0 l/m 3,7 km/h (1 Bft) W-SW 238 0 min 0,000 mm 0,0 UV-I 0 W/m 0,1 C 0,7 C 6,4 km/h (2 Bft) 96,23 %
19.02.2017 22:38 0,7 C 96 % 1023,2 hPa 0,0 l/m 3,3 km/h (1 Bft) W-SW 238 0 min 0,000 mm 0,0 UV-I 0 W/m 0,1 C 0,7 C 4,8 km/h (1 Bft) 97,44 %
19.02.2017 22:40 0,7 C 96 % 1023,2 hPa 0,0 l/m 2,6 km/h (1 Bft) W-SW 238 0 min 0,000 mm 0,0 UV-I 0 W/m 0,1 C 0,7 C 4,8 km/h (1 Bft) 95,74 %
19.02.2017 22:42 0,7 C 96 % 1023,2 hPa 0,0 l/m 3,2 km/h (1 Bft) W-SW 238 0 min 0,000 mm 0,0 UV-I 0 W/m 0,1 C 0,7 C 4,8 km/h (1 Bft) 91,49 %
19.02.2017 22:44 0,7 C 96 % 1023,2 hPa 0,0 l/m 3,2 km/h (1 Bft) W-SW 238 0 min 0,000 mm 0,0 UV-I 0 W/m 0,1 C 0,7 C 4,8 km/h (1 Bft) 94,34 %
19.02.2017 22:46 0,6 C 96 % 1023,1 hPa 0,0 l/m 3,3 km/h (1 Bft) W-SW 238 0 min 0,000 mm 0,0 UV-I 0 W/m 0,0 C 0,6 C 4,8 km/h (1 Bft) 97,56 %
19.02.2017 22:48 0,6 C 96 % 1023,2 hPa 0,0 l/m 3,3 km/h (1 Bft) W-SW 238 0 min 0,000 mm 0,0 UV-I 0 W/m 0,0 C 0,6 C 4,8 km/h (1 Bft) 96,00 %
19.02.2017 22:50 0,6 C 96 % 1023,2 hPa 0,0 l/m 1,9 km/h (1 Bft) W-SW 238 0 min 0,000 mm 0,0 UV-I 0 W/m 0,0 C 0,6 C 3,2 km/h (1 Bft) 95,12 %
19.02.2017 22:52 0,6 C 96 % 1023,2 hPa 0,0 l/m 3,1 km/h (1 Bft) W-SW 238 0 min 0,000 mm 0,0 UV-I 0 W/m 0,0 C 0,6 C 4,8 km/h (1 Bft) 93,62 %
19.02.2017 22:54 0,6 C 96 % 1023,2 hPa 0,0 l/m 3,3 km/h (1 Bft) W-SW 238 0 min 0,000 mm 0,0 UV-I 0 W/m 0,0 C 0,6 C 4,8 km/h (1 Bft) 93,62 %
19.02.2017 22:56 0,6 C 96 % 1023,2 hPa 0,0 l/m 2,2 km/h (1 Bft) W-SW 238 0 min 0,000 mm 0,0 UV-I 0 W/m 0,0 C 0,6 C 4,8 km/h (1 Bft) 91,49 %
19.02.2017 22:58 0,6 C 96 % 1023,2 hPa 0,0 l/m 2,4 km/h (1 Bft) SW 229 0 min 0,000 mm 0,0 UV-I 0 W/m 0,0 C 0,6 C 3,2 km/h (1 Bft) 91,49 %
19.02.2017 23:00 0,5 C 96 % 1023,2 hPa 0,0 l/m 1,8 km/h (1 Bft) SW 229 0 min 0,000 mm 0,0 UV-I 0 W/m -0,1 C 0,5 C 4,8 km/h (1 Bft) 96,00 %
19.02.2017 23:02 0,5 C 96 % 1023,3 hPa 0,0 l/m 1,2 km/h (1 Bft) SW 229 0 min 0,000 mm 0,0 UV-I 0 W/m -0,1 C 0,5 C 3,2 km/h (1 Bft) 94,34 %
19.02.2017 23:04 0,4 C 96 % 1023,2 hPa 0,0 l/m 0,2 km/h (0 Bft) SW 229 0 min 0,000 mm 0,0 UV-I 0 W/m -0,2 C 0,4 C 1,6 km/h (1 Bft) 93,62 %
19.02.2017 23:06 0,4 C 96 % 1023,3 hPa 0,0 l/m 0,7 km/h (0 Bft) SW 229 0 min 0,000 mm 0,0 UV-I 0 W/m -0,2 C 0,4 C 3,2 km/h (1 Bft) 95,74 %
19.02.2017 23:08 0,4 C 96 % 1023,2 hPa 0,0 l/m 0,0 km/h (0 Bft) SW 229 0 min 0,000 mm 0,0 UV-I 0 W/m -0,2 C 0,4 C 1,6 km/h (1 Bft) 97,37 %
19.02.2017 23:10 0,4 C 96 % 1023,3 hPa 0,0 l/m 0,2 km/h (0 Bft) SW 229 0 min 0,000 mm 0,0 UV-I 0 W/m -0,2 C 0,4 C 1,6 km/h (1 Bft) 97,44 %
19.02.2017 23:12 0,5 C 97 % 1023,3 hPa 0,0 l/m 0,1 km/h (0 Bft) SW 229 0 min 0,000 mm 0,0 UV-I 0 W/m 0,1 C 0,5 C 1,6 km/h (1 Bft) 98,08 %
19.02.2017 23:14 0,6 C 97 % 1023,2 hPa 0,0 l/m 1,6 km/h (1 Bft) SW 229 0 min 0,000 mm 0,0 UV-I 0 W/m 0,2 C 0,6 C 3,2 km/h (1 Bft) 96,00 %
19.02.2017 23:16 0,6 C 97 % 1023,2 hPa 0,0 l/m 0,8 km/h (0 Bft) SW 229 0 min 0,000 mm 0,0 UV-I 0 W/m 0,2 C 0,6 C 1,6 km/h (1 Bft) 96,23 %
19.02.2017 23:18 0,5 C 97 % 1023,2 hPa 0,0 l/m 0,5 km/h (0 Bft) SW 229 0 min 0,000 mm 0,0 UV-I 0 W/m 0,1 C 0,5 C 1,6 km/h (1 Bft) 93,62 %
19.02.2017 23:20 0,6 C 96 % 1023,3 hPa 0,0 l/m 0,0 km/h (0 Bft) SW 229 0 min 0,000 mm 0,0 UV-I 0 W/m 0,0 C 0,6 C 0,0 km/h (0 Bft) 95,74 %
19.02.2017 23:22 0,6 C 96 % 1023,4 hPa 0,0 l/m 0,0 km/h (0 Bft) SW 229 0 min 0,000 mm 0,0 UV-I 0 W/m 0,0 C 0,6 C 1,6 km/h (1 Bft) 97,22 %
19.02.2017 23:24 0,6 C 97 % 1023,4 hPa 0,0 l/m 1,7 km/h (1 Bft) SW 229 0 min 0,000 mm 0,0 UV-I 0 W/m 0,2 C 0,6 C 3,2 km/h (1 Bft) 98,31 %
19.02.2017 23:26 0,6 C 97 % 1023,3 hPa 0,0 l/m 2,6 km/h (1 Bft) SW 229 0 min 0,000 mm 0,0 UV-I 0 W/m 0,2 C 0,6 C 4,8 km/h (1 Bft) 100,00 %
19.02.2017 23:28 0,6 C 97 % 1023,3 hPa 0,0 l/m 3,8 km/h (1 Bft) SW 229 0 min 0,000 mm 0,0 UV-I 0 W/m 0,2 C 0,6 C 4,8 km/h (1 Bft) 97,87 %
19.02.2017 23:30 0,6 C 96 % 1023,3 hPa 0,0 l/m 3,5 km/h (1 Bft) SW 229 0 min 0,000 mm 0,0 UV-I 0 W/m 0,0 C 0,6 C 4,8 km/h (1 Bft) 97,56 %
19.02.2017 23:32 0,6 C 96 % 1023,3 hPa 0,0 l/m 3,0 km/h (1 Bft) SW 229 0 min 0,000 mm 0,0 UV-I 0 W/m 0,0 C 0,6 C 4,8 km/h (1 Bft) 95,74 %
19.02.2017 23:34 0,6 C 96 % 1023,4 hPa 0,0 l/m 3,4 km/h (1 Bft) SW 229 0 min 0,000 mm 0,0 UV-I 0 W/m 0,0 C 0,6 C 4,8 km/h (1 Bft) 94,00 %
19.02.2017 23:36 0,6 C 97 % 1023,3 hPa 0,0 l/m 1,1 km/h (1 Bft) SW 229 0 min 0,000 mm 0,0 UV-I 0 W/m 0,2 C 0,6 C 3,2 km/h (1 Bft) 100,00 %
19.02.2017 23:38 0,5 C 97 % 1023,3 hPa 0,0 l/m 1,3 km/h (1 Bft) SW 229 0 min 0,000 mm 0,0 UV-I 0 W/m 0,1 C 0,5 C 3,2 km/h (1 Bft) 96,23 %
19.02.2017 23:40 0,4 C 96 % 1023,3 hPa 0,0 l/m 3,1 km/h (1 Bft) SW 229 0 min 0,000 mm 0,0 UV-I 0 W/m -0,2 C 0,4 C 4,8 km/h (1 Bft) 100,00 %
19.02.2017 23:43 0,5 C 97 % 1023,3 hPa 0,0 l/m 3,6 km/h (1 Bft) SW 228 0 min 0,000 mm 0,0 UV-I 0 W/m 0,1 C 0,5 C 6,4 km/h (2 Bft) 96,34 %
19.02.2017 23:44 0,5 C 97 % 1023,3 hPa 0,0 l/m 4,7 km/h (1 Bft) SW 227 0 min 0,000 mm 0,0 UV-I 0 W/m 0,1 C 0,5 C 8,0 km/h (2 Bft) 96,50 %
19.02.2017 23:46 0,5 C 97 % 1023,4 hPa 0,0 l/m 3,3 km/h (1 Bft) SW 227 0 min 0,000 mm 0,0 UV-I 0 W/m 0,1 C 0,5 C 4,8 km/h (1 Bft) 98,39 %
19.02.2017 23:48 0,5 C 97 % 1023,3 hPa 0,0 l/m 5,7 km/h (1 Bft) SW 219 0 min 0,000 mm 0,0 UV-I 0 W/m 0,1 C 0,5 C 8,0 km/h (2 Bft) 97,37 %
19.02.2017 23:50 0,5 C 97 % 1023,3 hPa 0,0 l/m 4,6 km/h (1 Bft) SW 219 0 min 0,000 mm 0,0 UV-I 0 W/m 0,1 C 0,5 C 6,4 km/h (2 Bft) 100,00 %
19.02.2017 23:52 0,5 C 97 % 1023,3 hPa 0,0 l/m 3,4 km/h (1 Bft) SW 219 0 min 0,000 mm 0,0 UV-I 0 W/m 0,1 C 0,5 C 6,4 km/h (2 Bft) 97,87 %
19.02.2017 23:54 0,5 C 97 % 1023,3 hPa 0,0 l/m 4,3 km/h (1 Bft) SW 219 0 min 0,000 mm 0,0 UV-I 0 W/m 0,1 C 0,5 C 4,8 km/h (1 Bft) 97,87 %
19.02.2017 23:56 0,5 C 97 % 1023,3 hPa 0,0 l/m 5,1 km/h (1 Bft) SW 219 0 min 0,000 mm 0,0 UV-I 0 W/m 0,1 C 0,5 C 6,4 km/h (2 Bft) 100,00 %
19.02.2017 23:58 0,5 C 97 % 1023,3 hPa 0,0 l/m 4,4 km/h (1 Bft) SW 219 0 min 0,000 mm 0,0 UV-I 0 W/m 0,1 C 0,5 C 6,4 km/h (2 Bft) 95,24 %
_ Min-Zeit 07:32 13:32 17:08 - 00:10 - - - - - - 07:32 07:24 01:26 20:24
Minimum _ -1,0 C 87 % 1021,8 hPa - 0,0 km/h (0 Bft) - - - - - - -1,3 C -3,4 C 0,0 km/h (0 Bft) 83,33 %
_ Max-Zeit 14:33 03:16 00:00 00:00 21:50 - - 14:33 14:02 13:08 13:06 14:33 14:33 07:34 00:22
Maximum _ 4,3 C 98 % 1026,3 hPa 0,0 l/m 9,9 km/h
W-SW (2 Bft)
- - 3 min 0,153 mm 1,5 UV-I 660 W/m 2,7 C 4,3 C 14,5 km/h
S-SW (3 Bft)
100,00 %
Durchschnitt _ 1,1 C 95 % 1024,2 hPa #0,0 l/m 2,6 km/h (1 Bft) SW - #6:14 h #0,864 mm 0,9 UV-I 218 W/m 0,5 C 1,0 C 4,6 km/h (1 Bft) 96,56 %